[[{"header":{"parameterUnit":"m.s-1","parameterCategory":1,"la1":30.6,"la2":29.2853,"lo1":-89.7004,"lo2":-87.6739,"dy":0.0162,"dx":0.0183,"nx":112,"ny":82,"refTime":"2023-10-10T18:00:00:Z","depth":0,"parameterNumber":2,"parameterNumberName":"U-component_of_WINDS"},"data":[0.0,0.0,0.0,0.0,0.0,0.0,0.0,0.0,0.0,0.0,0.0,0.0,0.0,0.0,0.0,0.0,0.0,0.0,0.0,0.0,0.0,0.0,0.0,0.0,0.0,0.0,0.0,0.0,0.0,0.0,0.0,0.0,0.0,0.0,0.0,0.0,0.0,0.0,0.0,0.0,0.0,0.0,0.0,0.0,0.0,0.0,0.0,0.0,0.0,0.0,0.0,0.0,0.0,0.0,0.0,0.0,0.0,0.0,0.0,0.0,0.0,0.0,0.0,0.0,0.0,0.0,0.0,0.0,0.0,0.0,0.0,0.0,0.0,0.0,0.0,0.0,0.0,0.0,0.0,0.0,0.0,0.0,0.0,0.0,0.0,0.0,0.0,0.0,0.0,0.0,1.6543,1.7455,1.9898,2.0969,1.9806,1.9375,1.811,1.5547,0.0,0.0,0.0,0.0,0.0,0.0,0.0,0.0,0.0,0.0,0.0,0.0,0.0,0.0,0.0,0.0,0.0,0.0,0.0,0.0,0.0,0.0,0.0,0.0,0.0,0.0,0.0,0.0,0.0,0.0,0.0,0.0,0.0,0.0,0.0,0.0,0.0,0.0,0.0,0.0,0.0,0.0,0.0,0.0,0.0,0.0,0.0,0.0,0.0,0.0,0.0,0.0,0.0,0.0,0.0,0.0,0.0,0.0,0.0,0.0,0.0,0.0,0.0,0.0,0.0,0.0,0.0,0.0,0.0,0.0,0.0,0.0,0.0,0.0,0.0,0.0,0.0,0.0,0.0,0.0,0.0,0.0,0.0,0.0,0.0,0.0,0.0,0.0,0.0,0.0,0.0,0.0,0.0,0.0,0.0,0.0,0.0,0.0,0.0,0.0,0.0,0.0,0.0,0.0,1.6396,1.7331,1.8431,1.9043,1.8809,1.8113,1.7076,1.5498,0.0,0.0,0.0,0.0,0.0,0.0,0.0,0.0,0.0,0.0,0.0,0.0,0.0,0.0,0.0,0.0,0.0,0.0,0.0,0.0,0.0,0.0,0.0,0.0,0.0,0.0,0.0,0.0,0.0,0.0,0.0,0.0,0.0,0.0,0.0,0.0,0.0,0.0,0.0,0.0,0.0,0.0,0.0,0.0,0.0,0.0,0.0,0.0,0.0,0.0,0.0,0.0,0.0,0.0,0.0,0.0,0.0,0.0,0.0,0.0,0.0,0.0,0.0,0.0,0.0,0.0,0.0,0.0,0.0,0.0,0.0,0.0,0.0,0.0,0.0,0.0,0.0,0.0,0.0,0.0,0.0,0.0,0.0,0.0,0.0,0.0,0.0,0.0,0.0,0.0,0.0,0.0,0.0,0.0,0.0,0.0,0.0,0.0,0.0,0.0,0.0,0.0,0.0,1.6457,1.7184,1.8865,1.948,1.9642,1.9345,1.8589,1.7275,1.5195,1.4455,0.0,0.0,0.0,0.0,0.0,0.0,0.0,0.0,0.0,0.0,0.0,0.0,0.0,0.0,0.0,0.0,0.0,0.0,0.0,0.0,0.0,0.0,0.0,0.0,0.0,0.0,0.0,0.0,0.0,0.0,0.0,0.0,0.0,0.0,0.0,0.0,0.0,0.0,0.0,0.0,0.0,0.0,0.0,0.0,0.0,0.0,0.0,0.0,0.0,0.0,0.0,0.0,0.0,0.0,0.0,0.0,0.0,0.0,0.0,0.0,0.0,0.0,0.0,0.0,0.0,0.0,0.0,0.0,0.0,0.0,0.0,0.0,0.0,0.0,0.0,0.0,0.0,0.0,0.0,0.0,0.0,0.0,0.0,0.0,0.0,0.0,0.0,0.0,0.0,0.0,0.0,0.0,0.0,0.0,0.0,0.0,0.0,0.0,0.0,0.0,0.0,0.0,1.6484,1.7377,1.9206,1.9636,1.9657,1.918,1.8436,1.7072,1.4929,1.4277,0.0,0.0,0.0,0.0,0.0,0.0,0.0,0.0,0.0,0.0,0.0,0.0,0.0,0.0,0.0,0.0,0.0,0.0,0.0,0.0,0.0,0.0,0.0,0.0,0.0,0.0,0.0,0.0,0.0,0.0,0.0,0.0,0.0,0.0,0.0,0.0,0.0,0.0,0.0,0.0,0.0,0.0,0.0,0.0,0.0,0.0,0.0,0.0,0.0,0.0,0.0,0.0,0.0,0.0,0.0,0.0,0.0,0.0,0.0,0.0,0.0,0.0,0.0,0.0,0.0,0.0,0.0,0.0,0.0,0.0,0.0,0.0,0.0,0.0,0.0,0.0,0.0,0.0,0.0,0.0,0.0,0.0,0.0,0.0,0.0,0.0,0.0,0.0,0.0,0.0,0.0,0.0,0.0,0.0,0.0,0.0,0.0,0.0,0.0,0.0,0.0,0.0,1.587,1.5945,1.6357,1.6741,1.6955,1.6926,1.6136,1.5409,1.4842,1.4004,0.0,0.0,0.0,0.0,0.0,0.0,0.0,0.0,0.0,0.0,0.0,0.0,0.0,0.0,0.0,0.0,0.0,0.0,0.0,0.0,0.0,0.0,0.0,0.0,0.0,0.0,0.0,0.0,0.0,0.0,0.0,0.0,0.0,0.0,0.0,0.0,0.0,0.0,0.0,0.0,0.0,0.0,0.0,0.0,0.0,0.0,0.0,0.0,0.0,0.0,0.0,0.0,0.0,0.0,0.0,0.0,0.0,0.0,0.0,0.0,0.0,0.0,0.0,0.0,0.0,0.0,0.0,0.0,0.0,0.0,0.0,0.0,0.0,0.0,0.0,0.0,0.0,0.0,0.0,0.0,0.0,0.0,0.0,0.0,0.0,0.0,0.0,0.0,0.0,0.0,0.0,0.0,0.0,0.0,0.0,0.0,0.0,0.0,0.0,0.0,0.0,0.0,1.5598,1.5735,1.6801,1.6567,1.6435,1.6673,1.5909,1.5,1.4043,0.0,0.0,0.0,0.0,0.0,0.0,0.0,0.0,0.0,0.0,0.0,0.0,0.0,0.0,0.0,0.0,0.0,0.0,0.0,0.0,0.0,0.0,0.0,0.0,0.0,0.0,0.0,0.0,0.0,0.0,0.0,0.0,0.0,0.0,0.0,0.0,0.0,0.0,0.0,0.0,0.0,0.0,0.0,0.0,0.0,0.0,0.0,0.0,0.0,0.0,0.0,0.0,0.0,0.0,0.0,0.0,0.0,0.0,0.0,0.0,0.0,0.0,0.0,0.0,0.0,0.0,0.0,0.0,0.0,0.0,0.0,0.0,0.0,0.0,0.0,0.0,0.0,0.0,0.0,0.0,0.0,0.0,0.0,0.0,0.0,0.0,0.0,0.0,0.0,0.0,0.0,0.0,0.0,0.0,0.0,0.0,0.0,0.0,0.0,0.0,0.0,0.0,1.5931,1.5294,1.528,1.6614,1.6107,1.5791,1.6087,1.5307,1.4505,1.3815,0.0,0.0,0.0,0.0,0.0,0.0,0.0,0.0,0.0,0.0,0.0,0.0,0.0,0.0,0.0,0.0,0.0,0.0,0.0,0.0,0.0,0.0,0.0,0.0,0.0,0.0,0.0,0.0,0.0,0.0,0.0,0.0,0.0,0.0,0.0,0.0,0.0,0.0,0.0,0.0,0.0,0.0,0.0,0.0,0.0,0.0,0.0,0.0,0.0,0.0,0.0,0.0,0.0,0.0,0.0,0.0,0.0,0.0,0.0,0.0,0.0,0.0,0.0,0.0,0.0,0.0,0.0,0.0,0.0,0.0,0.0,0.0,0.0,0.0,0.0,0.0,0.0,0.0,0.0,0.0,0.0,0.0,0.0,0.0,0.0,0.0,0.0,0.0,0.0,0.0,0.0,0.0,0.0,0.0,0.0,0.0,0.0,0.0,0.0,0.0,0.0,0.0,1.5881,1.4867,1.4436,1.5312,1.5039,1.4813,1.4775,1.3994,1.3766,0.0,0.0,0.0,0.0,0.0,0.0,0.0,0.0,0.0,0.0,0.0,0.0,0.0,0.0,0.0,0.0,0.0,0.0,0.0,0.0,0.0,0.0,0.0,0.0,0.0,0.0,0.0,0.0,0.0,0.0,0.0,0.0,0.0,0.0,0.0,0.0,0.0,0.0,0.0,0.0,0.0,0.0,0.0,0.0,0.0,0.0,0.0,0.0,0.0,0.0,0.0,0.0,0.0,0.0,0.0,0.0,0.0,0.0,0.0,0.0,0.0,0.0,0.0,0.0,0.0,0.0,0.0,0.0,0.0,0.0,0.0,0.0,0.0,0.0,0.0,0.0,0.0,0.0,0.0,0.0,0.0,0.0,0.0,0.0,0.0,0.0,0.0,0.0,0.0,0.0,0.0,0.0,0.0,0.0,0.0,0.0,0.0,0.0,0.0,0.0,0.0,0.0,0.0,1.5439,1.4671,1.4328,1.4912,1.4863,1.4658,1.4328,1.3792,1.3636,1.3975,0.0,0.0,0.0,0.0,0.0,0.0,0.0,0.0,0.0,0.0,0.0,0.0,0.0,0.0,0.0,0.0,0.0,0.0,0.0,0.0,0.0,0.0,0.0,0.0,0.0,0.0,0.0,0.0,0.0,0.0,0.0,0.0,0.0,0.0,0.0,0.0,0.0,0.0,0.0,0.0,0.0,0.0,0.0,0.0,0.0,0.0,0.0,0.0,0.0,0.0,0.0,0.0,0.0,0.0,0.0,0.0,0.0,0.0,0.0,0.0,0.0,0.0,0.0,0.0,0.0,0.0,0.0,0.0,0.0,0.0,0.0,0.0,0.0,0.0,0.0,0.0,0.0,0.0,0.0,0.0,0.0,0.0,0.0,0.0,0.0,0.0,0.0,0.0,0.0,0.0,0.0,0.0,0.0,0.0,0.0,0.0,0.0,0.0,0.0,0.0,0.0,0.0,1.5239,1.446,1.4016,1.4473,1.4375,1.417,1.388,1.3496,1.3397,1.3766,0.0,0.0,0.0,0.0,0.0,0.0,0.0,0.0,0.0,0.0,0.0,0.0,0.0,0.0,0.0,0.0,0.0,0.0,0.0,0.0,0.0,0.0,0.0,0.0,0.0,0.0,0.0,0.0,0.0,0.0,0.0,0.0,0.0,0.0,0.0,0.0,0.0,0.0,0.0,0.0,0.0,0.0,0.0,0.0,0.0,0.0,0.0,0.0,0.0,0.0,0.0,0.0,0.0,0.0,0.0,0.0,0.0,0.0,0.0,0.0,0.0,0.0,0.0,0.0,0.0,0.0,0.0,0.0,0.0,0.0,0.0,0.0,0.0,0.0,0.0,0.0,0.0,0.0,0.0,0.0,0.0,0.0,0.0,0.0,0.0,0.0,0.0,0.0,0.0,0.0,0.0,0.0,0.0,0.0,0.0,0.0,0.0,0.0,0.0,0.0,0.0,0.0,1.5196,1.4258,1.3685,1.4065,1.3763,1.3564,1.3564,1.3145,1.3152,1.3755,0.0,0.0,0.0,0.0,0.0,0.0,0.0,0.0,0.0,0.0,0.0,0.0,0.0,0.0,0.0,0.0,0.0,0.0,0.0,0.0,0.0,0.0,0.0,0.0,0.0,0.0,0.0,0.0,0.0,0.0,0.0,0.0,0.0,0.0,0.0,0.0,0.0,0.0,0.0,0.0,0.0,0.0,0.0,0.0,0.0,0.0,0.0,0.0,0.0,0.0,0.0,0.0,0.0,0.0,0.0,0.0,0.0,0.0,0.0,0.0,1.5497,1.5454,0.0,0.0,0.0,0.0,0.0,0.0,0.0,0.0,0.0,0.0,0.0,0.0,0.0,0.0,0.0,0.0,0.0,0.0,0.0,0.0,0.0,0.0,0.0,0.0,0.0,0.0,0.0,0.0,0.0,0.0,0.0,0.0,0.0,0.0,0.0,0.0,0.0,0.0,0.0,0.0,1.482,1.4341,1.4007,1.4094,1.4026,1.3977,1.3977,1.3311,1.3152,1.3755,1.3348,0.0,0.0,0.0,0.0,0.0,0.0,0.0,0.0,0.0,0.0,0.0,0.0,0.0,0.0,0.0,0.0,0.0,0.0,0.0,0.0,0.0,0.0,0.0,0.0,0.0,0.0,0.0,0.0,0.0,0.0,0.0,0.0,0.0,0.0,0.0,0.0,0.0,0.0,0.0,0.0,0.0,0.0,0.0,0.0,0.0,0.0,0.0,0.0,0.0,0.0,0.0,0.0,0.0,0.0,0.0,0.0,0.0,0.0,0.0,1.5905,1.5551,0.0,0.0,0.0,0.0,0.0,0.0,0.0,0.0,0.0,0.0,0.0,0.0,0.0,0.0,0.0,0.0,0.0,0.0,0.0,0.0,0.0,0.0,0.0,0.0,0.0,0.0,0.0,0.0,0.0,0.0,0.0,0.0,0.0,0.0,0.0,0.0,0.0,0.0,0.0,0.0,1.4965,1.431,1.389,1.4085,1.4104,1.4104,1.4104,1.3545,1.3313,1.3638,1.3446,0.0,0.0,0.0,0.0,0.0,0.0,0.0,0.0,0.0,0.0,0.0,0.0,0.0,0.0,0.0,0.0,0.0,0.0,0.0,0.0,0.0,0.0,0.0,0.0,0.0,0.0,0.0,0.0,0.0,0.0,0.0,0.0,0.0,0.0,0.0,0.0,0.0,0.0,0.0,0.0,0.0,0.0,0.0,0.0,0.0,0.0,0.0,0.0,0.0,0.0,0.0,0.0,0.0,1.7089,1.725,1.8134,1.8134,1.8081,1.7942,1.6889,1.6189,1.5759,1.5577,0.0,0.0,0.0,0.0,0.0,0.0,0.0,0.0,0.0,0.0,0.0,0.0,0.0,0.0,0.0,0.0,0.0,0.0,0.0,0.0,0.0,0.0,1.6022,1.5908,1.5919,1.5945,1.6008,0.0,0.0,0.0,0.0,0.0,0.0,0.0,0.0,0.0,0.0,0.0,1.5238,1.4368,1.3841,1.4182,1.4221,1.4221,1.4221,1.3831,1.3588,1.3588,1.3749,1.3832,0.0,0.0,0.0,0.0,0.0,0.0,0.0,0.0,0.0,0.0,0.0,0.0,0.0,0.0,0.0,0.0,0.0,0.0,0.0,0.0,0.0,0.0,0.0,0.0,0.0,0.0,0.0,0.0,0.0,0.0,0.0,0.0,1.4795,1.5273,0.0,0.0,0.0,0.0,0.0,0.0,0.0,0.0,0.0,0.0,0.0,0.0,0.0,1.8249,1.8249,1.8572,1.9,1.9463,1.8672,1.8577,1.9106,1.9106,1.9298,1.9544,1.8666,0.0,1.6059,1.6185,0.0,0.0,0.0,0.0,0.0,0.0,0.0,0.0,0.0,0.0,0.0,0.0,0.0,0.0,0.0,0.0,0.0,0.0,0.0,0.0,0.0,0.0,1.5493,1.5493,1.5772,1.6079,1.6079,1.6765,1.7415,1.7513,1.7175,1.7065,0.0,0.0,0.0,0.0,0.0,0.0,1.5209,1.4834,1.4639,1.4687,1.4697,1.4697,1.4697,1.4307,1.4026,1.4026,1.4047,1.43,1.4868,1.4492,0.0,0.0,0.0,0.0,0.0,0.0,0.0,0.0,0.0,0.0,0.0,0.0,0.0,0.0,0.0,0.0,0.0,0.0,0.0,0.0,0.0,0.0,0.0,0.0,0.0,0.0,0.0,0.0,0.0,1.4863,1.5205,1.5391,1.541,1.541,0.0,0.0,0.0,0.0,0.0,0.0,0.0,0.0,0.0,1.8509,1.8812,1.8947,1.8947,1.962,2.0062,2.0263,1.9903,1.9951,2.0381,2.0381,2.0615,2.0996,2.0625,1.9893,1.8854,1.7221,1.6457,1.6207,0.0,0.0,0.0,0.0,1.5889,1.5741,1.6233,1.6219,1.6006,1.6006,0.0,0.0,0.0,0.0,0.0,0.0,0.0,1.6147,1.5555,1.606,1.6638,1.6234,1.6299,1.6436,1.6436,1.6618,1.6814,1.6948,1.6778,1.6994,1.816,1.7557,0.0,0.0,0.0,1.5555,1.5451,1.5072,1.4873,1.5107,1.5137,1.5137,1.5137,1.4746,1.4502,1.4502,1.4241,1.4356,1.4901,1.5053,1.5155,0.0,0.0,0.0,0.0,0.0,0.0,0.0,0.0,0.0,0.0,0.0,0.0,0.0,0.0,0.0,0.0,0.0,0.0,0.0,0.0,0.0,0.0,0.0,0.0,0.0,0.0,0.0,0.0,1.5381,1.5625,1.5732,1.5722,1.5722,0.0,0.0,0.0,0.0,0.0,0.0,1.8606,1.8188,1.8378,1.9441,1.9667,1.9785,1.9785,2.0527,2.0997,2.1104,2.1104,2.1299,2.1678,2.1678,2.1894,2.2197,2.209,2.1865,2.1307,1.8617,1.7447,1.7262,1.6426,1.6074,1.6113,1.6476,1.6594,1.6643,1.6943,1.7028,1.7028,1.7028,1.696,1.6848,1.6604,0.0,0.0,0.0,0.0,1.6989,1.6572,1.7144,1.7693,1.7042,1.695,1.6999,1.6892,1.6543,1.6286,1.6378,1.629,1.6613,1.7934,1.7357,0.0,1.7455,1.6345,1.5496,1.5608,1.5223,1.5068,1.5381,1.541,1.541,1.541,1.5127,1.4941,1.4941,1.4639,1.4582,1.4932,1.5472,1.5652,1.54,0.0,0.0,0.0,0.0,0.0,0.0,0.0,0.0,0.0,0.0,0.0,0.0,0.0,0.0,0.0,0.0,0.0,0.0,0.0,0.0,0.0,0.0,0.0,0.0,0.0,0.0,0.0,0.0,0.0,1.658,1.6629,0.0,0.0,0.0,0.0,1.7285,1.7314,1.7895,1.9193,1.9226,1.9607,2.0487,2.0889,2.1093,2.1093,2.1592,2.2021,2.2412,2.2412,2.2637,2.2994,2.2994,2.3013,2.3013,2.2656,2.2471,2.2305,2.0498,1.9521,1.9072,1.8213,1.7881,1.7881,1.791,1.791,1.791,1.7939,1.7949,1.7949,1.7949,1.7676,1.7428,1.7636,1.7213,0.0,0.0,1.7224,1.6721,1.6701,1.7337,1.7875,1.7474,1.7656,1.7842,1.7441,1.7002,1.6572,1.6174,1.5753,1.569,1.6492,0.0,1.6535,1.6564,1.6486,1.6175,1.5487,1.5381,1.5391,1.541,1.541,1.541,1.541,1.5391,1.5381,1.5381,1.5361,1.5361,1.5381,1.541,1.542,1.541,1.5439,0.0,0.0,0.0,0.0,0.0,0.0,0.0,0.0,0.0,0.0,0.0,0.0,0.0,0.0,0.0,0.0,0.0,0.0,0.0,0.0,0.0,0.0,0.0,0.0,0.0,0.0,0.0,0.0,1.751,1.7525,0.0,1.7896,1.7925,1.8217,1.8955,1.9014,1.9463,2.0488,2.0498,2.081,2.1437,2.1836,2.206,2.206,2.248,2.2721,2.2877,2.2877,2.2955,2.3091,2.3091,2.3091,2.3091,2.2935,2.2877,2.2755,2.1123,1.9987,1.9379,1.96,1.9182,1.8563,1.9378,1.9648,1.9648,1.9648,1.9648,1.9609,1.9326,1.8945,1.8595,1.8373,1.7955,1.7582,1.7859,1.7935,1.7925,1.7925,1.8398,1.8799,1.8643,1.8721,1.8711,1.8281,1.7828,1.7432,1.6992,1.6359,1.5999,1.642,1.6122,1.595,1.6436,1.6338,1.6158,1.589,1.6084,1.6229,1.6229,1.6006,1.586,1.586,1.5566,1.541,1.541,1.541,1.541,1.541,1.541,1.541,1.541,1.541,1.6197,0.0,0.0,0.0,0.0,0.0,0.0,0.0,0.0,0.0,0.0,0.0,0.0,0.0,0.0,0.0,0.0,0.0,0.0,0.0,0.0,0.0,0.0,0.0,0.0,0.0,1.7754,1.8291,1.9014,1.9065,1.9268,1.965,1.9699,2.0029,2.0742,2.0791,2.1103,2.1795,2.1885,2.2021,2.2305,2.2578,2.2682,2.2682,2.2955,2.3091,2.3091,2.3091,2.3091,2.3091,2.3091,2.3091,2.3091,2.3091,2.3091,2.2984,2.1514,2.0296,1.9442,1.9716,1.9264,1.8644,1.9466,1.9798,1.9798,1.9798,1.9798,1.9774,1.972,1.9563,1.9316,1.9093,1.8831,1.8623,1.8477,1.8643,1.8857,1.8857,1.918,1.9463,1.9316,1.9394,1.9385,1.8909,1.8481,1.8096,1.7676,1.6799,1.6147,1.6321,1.5949,1.5802,1.6289,1.6327,1.6289,1.6289,1.6553,1.6697,1.6697,1.6465,1.6289,1.6289,1.6025,1.5829,1.5829,1.5829,1.5829,1.5829,1.5829,1.5829,1.5829,1.5829,1.6636,1.8251,0.0,0.0,0.0,0.0,0.0,0.0,0.0,0.0,0.0,0.0,0.0,0.0,0.0,0.0,0.0,0.0,0.0,0.0,0.0,0.0,0.0,0.0,0.0,1.8424,1.9,1.9759,2.1043,2.1209,2.1384,2.1863,2.1902,2.2077,2.2454,2.2526,2.2701,2.3023,2.3106,2.314,2.3076,2.3076,2.3057,2.3091,2.3091,2.3091,2.3091,2.3091,2.3091,2.3091,2.3047,2.3047,2.3047,2.3003,2.3003,2.2906,2.1712,2.0486,1.9377,1.8545,1.824,1.8189,1.824,1.824,1.824,1.824,1.824,1.839,1.9116,1.9406,1.9516,1.9793,1.9933,1.9893,1.9482,1.9365,1.9365,1.9365,1.9668,1.9873,1.9453,1.9658,1.9834,1.9404,1.8975,1.851,1.8115,1.6992,1.6144,1.6124,1.6114,1.6114,1.6114,1.6465,0.0,1.6716,1.6726,1.6746,1.6746,1.6726,1.6716,1.6716,1.6707,1.6697,1.6697,1.6697,1.6697,1.6697,1.6697,1.6697,1.6697,1.6738,1.7106,1.7822,0.0,0.0,0.0,0.0,0.0,0.0,0.0,0.0,0.0,0.0,0.0,0.0,0.0,0.0,0.0,0.0,0.0,0.0,0.0,0.0,0.0,1.62,1.7211,1.8224,1.9222,2.0035,2.0625,2.0955,2.1293,2.1768,2.1814,2.1979,2.2419,2.3334,2.3089,2.1263,2.2084,2.2483,2.2189,2.218,2.2447,2.3101,2.3091,2.3091,2.3091,2.3091,2.3091,2.3047,2.2164,2.18,2.1756,2.0854,2.0494,2.0404,1.9177,1.8503,1.8257,1.8867,1.8622,1.7948,1.8802,1.9154,1.9154,1.9154,1.9154,1.9142,1.8989,1.9609,2.0301,2.0035,2.0611,2.1318,2.1201,2.1172,2.1172,2.1172,2.126,2.124,2.0761,2.0752,2.0625,1.9902,1.9648,1.9309,1.8568,1.793,1.7275,1.665,1.6553,1.6553,1.6553,1.6924,1.7207,1.7207,1.7471,1.7623,1.7623,1.7383,1.7207,1.7207,1.6882,1.6697,1.6697,1.6697,1.6697,1.6697,1.6697,1.6697,1.6697,1.7609,1.8164,0.0,0.0,0.0,0.0,0.0,0.0,0.0,0.0,0.0,0.0,0.0,0.0,0.0,0.0,0.0,0.0,0.0,0.0,0.0,0.0,0.0,0.0,1.6193,1.718,1.8092,1.9167,2.0081,2.0615,2.0919,2.1259,2.1704,2.1739,2.1882,2.2099,2.2844,2.2522,2.0752,2.1287,2.1466,2.1038,2.0882,2.1101,2.1587,2.1587,2.1587,2.1587,2.1587,2.1587,2.1587,2.0845,2.0531,2.0531,1.9807,1.9497,1.9405,1.8187,1.7692,1.7738,0.0,0.0,0.0,0.0,1.794,1.794,1.794,1.794,1.7995,1.8261,1.8823,1.9474,1.9488,2.0031,2.0577,2.0413,2.0367,2.0367,2.0367,2.0367,2.0267,1.9866,1.9766,1.9593,1.8937,1.9019,1.9071,1.8553,1.8353,0.0,1.7584,1.7204,1.7002,1.7002,1.7373,1.7646,1.7646,1.7861,1.8008,1.8008,1.7793,1.7503,1.7116,1.6812,0.0,0.0,0.0,1.6075,1.6075,1.6075,0.0,0.0,0.0,1.7965,1.8357,1.914,0.0,0.0,1.8776,1.9349,0.0,0.0,0.0,0.0,0.0,0.0,0.0,0.0,0.0,0.0,0.0,0.0,0.0,0.0,0.0,0.0,1.6131,1.7047,1.7864,1.8818,1.9814,2.0687,2.0792,2.0988,2.1415,2.1448,2.1448,2.1448,2.16,2.1359,2.0634,2.0533,0.0,0.0,0.0,1.9401,1.9497,1.9497,1.9513,1.9554,1.9554,1.9571,1.9612,1.9428,1.9382,1.9382,1.9204,1.9142,1.905,1.7924,1.7505,1.7365,1.6244,1.5784,1.5784,1.5784,1.5784,1.5784,1.5784,0.0,0.0,1.7131,1.7598,1.7817,1.8489,1.8787,1.881,1.8455,1.8365,1.8365,1.8365,1.8365,1.8275,1.7966,1.7894,1.7804,1.7597,1.7995,1.8416,1.8486,1.8507,1.8547,1.8498,1.794,1.7484,1.7484,1.7773,1.8008,1.8008,1.8008,1.7974,1.7862,1.7828,0.0,1.6532,1.6428,1.6428,1.6428,1.5649,1.5199,1.5199,1.5199,1.5579,1.6428,1.6428,1.6853,1.7691,1.7691,1.7251,1.6489,1.8971,1.9672,0.0,0.0,0.0,0.0,0.0,0.0,0.0,0.0,0.0,0.0,0.0,0.0,0.0,0.0,0.0,1.5259,1.615,1.6864,1.7326,1.7732,1.8336,1.9257,1.9671,1.9913,1.9973,2.0033,2.0033,2.0033,2.1041,2.0703,1.8362,1.9021,1.9243,1.881,1.8525,1.873,1.9497,1.9497,1.9591,1.9832,1.9832,0.0,2.0172,1.9173,1.8697,1.8641,1.7423,1.6938,1.6876,1.6395,1.6157,1.6157,1.592,1.5784,1.5784,1.5784,1.5784,1.5784,1.5784,1.5784,1.5825,1.6109,1.685,1.7723,1.788,1.8577,0.0,1.9261,1.9237,1.9237,1.9237,1.9237,1.9146,1.8696,1.8436,1.8422,1.8891,1.8919,1.9024,1.9516,1.8929,1.8263,1.7944,1.7877,1.7891,1.7891,1.7959,1.8008,1.8008,1.8008,1.7716,1.6957,1.6888,1.6498,1.5552,1.5473,1.5473,1.5473,1.5305,1.5199,1.5199,1.5199,1.5305,1.5482,1.5473,1.5552,1.5728,1.5728,1.5658,1.5517,1.6791,1.6886,0.0,0.0,0.0,0.0,0.0,0.0,0.0,0.0,0.0,0.0,0.0,1.3369,1.4092,0.0,1.503,1.5912,1.6547,1.7079,1.738,1.7548,1.7784,1.8243,1.8466,1.861,1.861,1.861,1.861,1.861,1.9265,1.9057,1.7687,1.7814,1.7839,1.7584,1.7182,1.7188,1.7623,1.7826,1.7991,1.8107,1.8223,1.8386,1.855,1.7874,1.7584,1.7577,1.6844,1.6406,1.6253,1.5952,1.5784,1.5784,1.5784,1.5784,1.5784,1.5784,1.5784,1.5784,1.5784,1.5784,1.5784,1.5784,1.6251,1.6763,1.6763,1.7163,1.7662,1.7662,1.7662,1.7662,1.7662,1.7662,1.7541,1.7205,1.6885,1.6731,1.6897,1.7177,1.7429,1.7723,1.7652,1.7424,1.7243,1.7079,1.7018,1.7018,1.6893,1.6803,1.6803,1.6803,1.6581,1.5956,1.5895,1.5508,1.4522,1.445,1.4243,1.3774,1.4361,1.4498,1.4021,1.4112,1.4426,1.4895,1.4895,1.5118,1.5581,1.5581,1.5368,1.4895,1.5368,1.5527,0.0,0.0,0.0,0.0,0.0,0.0,0.0,1.2758,1.3255,1.3135,1.338,1.3868,1.4585,1.5251,1.5899,1.6667,1.7092,1.7367,1.7549,1.7535,1.7502,1.7502,1.7549,1.7582,1.7582,1.7582,1.7582,1.7582,1.7582,1.7582,1.7582,1.7021,1.6707,1.6707,1.6084,1.5784,1.5784,1.6066,1.6219,1.6279,1.6567,1.6734,1.6794,1.6854,1.6874,1.6867,1.6754,1.654,1.6253,1.5952,1.5784,1.5784,1.5784,1.5784,1.5784,1.5784,1.5784,1.5784,1.5784,1.5784,1.5784,1.5784,1.5784,1.5784,1.5784,1.5784,1.5784,1.5784,1.5784,1.5784,1.5784,1.5784,1.5772,1.5538,1.5257,1.5073,1.4994,1.5412,1.5835,1.6084,1.633,1.6524,1.6524,1.5952,1.562,1.5932,1.5831,1.5688,1.5688,1.5688,1.5544,1.5114,1.5081,1.4691,1.3682,1.3608,1.3283,1.2516,1.345,1.3668,1.2916,1.308,1.3548,1.4304,1.4343,1.4686,1.5473,1.5473,1.5057,1.4343,1.4369,1.4681,1.0304,1.0743,1.1151,1.1418,1.1975,1.2526,0.0,1.3541,1.4053,1.4255,1.4763,1.5264,1.5571,1.6159,1.668,1.7092,1.7393,1.7549,1.7582,1.7414,1.7246,1.7246,1.7474,1.7582,1.7582,1.7582,1.7582,1.7582,1.7582,1.7582,1.7582,1.7021,1.6707,1.6707,1.6084,1.5784,1.5784,1.5865,1.6012,1.6279,1.6567,1.684,1.7159,1.7368,1.7482,1.7455,1.6934,1.654,1.6253,1.5952,1.5784,1.5784,1.5784,1.5784,1.5784,1.5784,1.5784,1.5784,1.5784,1.5784,1.5784,1.5784,1.5784,1.5784,1.5784,1.5784,1.5784,1.5784,1.5784,1.5784,1.5784,1.5784,1.5771,1.5744,1.5558,1.5606,1.653,1.6352,1.6342,1.7361,1.6617,1.5808,1.5808,1.4739,1.4358,1.5781,1.5959,1.5943,1.5943,1.5943,1.5623,1.4766,1.4689,1.4272,1.3335,1.3263,1.3224,1.3113,1.3218,1.3278,1.316,1.3193,1.3253,1.3358,1.3365,1.3404,1.3509,1.3509,1.3476,1.3371,1.3588,1.3635,1.0294,1.0675,1.1189,1.2027,1.2639,1.328,1.4055,1.4683,1.5231,1.5698,1.5985,1.6299,1.6767,1.6914,1.7112,1.7407,1.7554,1.7582,1.7582,1.6697,1.5989,1.5928,1.5191,1.5324,1.6901,1.7074,1.7074,1.7074,1.7074,1.7074,1.7074,1.668,1.6094,1.5332,1.5647,1.5439,1.4704,1.5602,1.6152,1.6328,1.679,1.6606,1.5942,1.6209,1.5849,1.5074,1.4613,1.4316,1.4115,1.3813,1.3625,1.3596,1.4411,1.4704,1.48,1.5534,1.5784,1.5784,1.5784,1.5784,1.5784,1.5784,1.5784,1.5784,1.5784,1.5784,1.5784,1.5784,1.5784,1.5784,1.5784,1.5784,1.5784,1.5784,1.5611,1.5529,1.5968,1.5763,1.5586,1.6068,1.5698,1.5253,1.5028,1.452,1.4294,1.4832,1.4736,1.4612,1.4612,1.4612,1.4396,1.3838,1.3777,1.3627,1.3246,1.3213,1.3213,1.3213,1.3367,1.342,1.342,1.3627,1.3721,1.3721,1.3721,1.3721,1.3721,1.3721,1.3721,1.3721,1.3848,1.3834,1.0296,1.0903,1.1779,1.2878,1.3687,1.4326,1.4701,1.5322,1.5769,1.5681,1.5698,1.59,1.6271,1.616,1.6041,1.6241,1.6336,1.6302,1.6285,1.5261,1.4402,1.4232,1.3122,1.3139,1.5115,1.5469,1.5595,1.562,1.5626,1.5626,1.5626,1.5369,1.4765,1.3815,1.4407,1.4274,1.3343,1.451,1.5107,1.5113,1.5657,1.5348,1.4366,1.4682,1.4288,1.3254,1.2926,1.2735,1.2616,1.2334,1.2128,1.208,1.2985,1.3349,1.3445,1.437,1.5194,1.5784,1.5784,1.5784,1.5784,1.5784,1.5784,1.5784,1.5784,1.5784,1.5784,1.5784,1.554,1.5343,1.573,1.5534,1.5337,1.573,1.5665,1.5518,1.5518,1.5291,1.5129,1.5129,1.5062,1.4941,1.4676,1.4643,1.4543,1.4249,1.3979,1.3813,1.3733,1.3726,1.3646,1.3474,1.3454,1.3454,1.3454,1.3454,1.3454,1.3454,1.3647,1.3726,1.3726,1.3975,1.4088,1.4088,1.4088,1.4088,1.4088,1.4088,1.4088,1.4088,1.4088,1.3913,0.9738,1.1207,1.2951,1.3862,1.491,1.5482,1.4545,1.5048,1.5198,1.3457,1.3249,1.3345,1.3182,1.3018,1.2925,1.2936,1.3055,1.3069,1.2967,1.2766,1.2597,1.2304,1.1955,1.1774,1.1826,1.2368,1.2772,1.2899,1.2915,1.2915,1.2915,1.2652,1.2479,1.2479,1.216,1.1994,1.1945,1.2004,1.2052,1.2058,1.2496,1.2705,1.2674,1.3169,1.3318,1.3254,1.2926,1.282,1.278,1.2344,1.2214,1.2188,1.2026,1.1945,1.1945,1.1994,1.3644,1.5784,1.5784,1.5784,1.5784,1.5784,1.5784,1.5784,1.5784,1.5784,1.5784,1.5784,1.4902,1.4214,1.5486,1.4902,1.4262,1.5486,1.5771,1.5764,1.5764,1.5585,1.5384,1.5384,1.5202,1.5008,1.4995,1.4995,1.485,1.4549,1.4496,1.4396,1.4108,1.4075,1.4068,1.4062,1.4062,1.4062,1.4062,1.4062,1.4062,1.4062,1.4068,1.4075,1.4075,1.4082,1.4088,1.4088,1.4088,1.4088,1.4088,1.4088,1.4088,1.4088,1.4088,1.347,0.9311,1.0229,1.1276,1.2169,1.3035,1.361,1.3456,1.3993,1.4272,1.3498,1.3309,1.3194,1.2909,1.2654,1.2506,1.236,1.2552,1.2719,1.2647,1.1779,1.107,1.09,0.9824,0.9096,0.9096,1.088,1.207,1.2202,1.2217,1.2217,1.2217,1.2102,1.1668,1.0829,1.1497,1.1512,1.0632,1.1458,1.1896,1.1901,1.1378,1.1299,1.1558,1.0724,1.0406,1.0347,1.0288,1.0139,1.0067,0.9835,0.9674,0.9657,1.0367,1.0632,1.073,1.1604,1.2479,1.3204,1.3204,1.3204,1.3204,1.3204,1.3204,1.3204,1.3204,1.3204,1.3204,1.3204,1.2915,1.2673,1.3108,1.3542,1.4022,1.4459,1.5194,1.5784,1.5784,1.5752,1.5443,1.4568,1.5023,1.49,1.302,1.3361,1.3501,1.226,1.3293,1.4202,1.4095,1.4088,1.4088,1.4088,1.3379,1.3245,1.4046,1.3379,1.3252,1.4039,1.4088,1.4088,1.4088,1.4088,1.4088,1.4088,1.4088,1.3688,1.2893,1.3688,1.33,1.1778,1.2553,1.2291,0.902,0.9928,1.0915,1.1722,1.2432,1.2837,1.2479,1.2714,1.2714,1.1847,1.1428,1.1166,1.0841,1.0599,1.0399,1.0343,1.0582,1.0823,1.0892,1.0129,0.951,0.938,0.8445,0.7811,0.7811,0.9332,1.0363,1.0516,1.0534,1.0534,1.0534,1.0534,1.0145,0.9312,1.0096,1.0092,0.9316,1.0092,1.052,1.0595,0.9994,0.9924,1.0202,0.9292,0.8854,0.8804,0.8804,0.8771,0.8618,0.8469,0.8353,0.8357,0.9038,0.9266,0.9361,1.019,1.0534,1.0632,1.1556,1.1896,1.1896,1.1896,1.1896,1.1896,1.1896,1.1896,1.1896,1.1896,1.156,1.1312,1.1799,1.2183,1.2614,1.3102,1.3836,1.4418,1.4418,1.4418,1.4178,1.3343,1.3836,1.3831,1.1939,1.222,1.2319,1.1166,1.2075,1.2887,1.2875,1.2863,1.2863,1.2863,1.2163,1.2163,1.3336,1.2376,1.2206,1.3379,1.3082,1.2863,1.2863,1.2863,1.2863,1.2863,1.2863,1.2473,1.1681,1.2473,1.2086,1.0688,1.1424,1.1161,0.8725,1.018,1.1711,1.2288,1.2861,1.2933,1.1514,1.1139,1.0576,0.8672,0.7872,0.7468,0.7109,0.6947,0.6906,0.7041,0.737,0.7628,0.778,0.7884,0.7928,0.7838,0.7824,0.7824,0.7824,0.7824,0.7885,0.7988,0.8002,0.8002,0.8002,0.8008,0.8012,0.8012,0.8005,0.8002,0.8002,0.7992,0.8116,0.8323,0.8408,0.855,0.8703,0.8849,0.8835,0.8699,0.8699,0.8615,0.8472,0.8381,0.8323,0.8255,0.8099,0.7988,0.7988,0.7988,0.7988,0.8333,1.0823,1.1702,1.1702,1.1702,1.1702,1.1702,1.1702,1.1702,1.1702,1.1702,1.0828,1.0194,1.1409,1.0828,1.0293,1.1507,1.1848,1.1896,1.1896,1.1896,1.1901,1.1799,1.175,1.1707,1.1799,1.1571,1.1353,1.1144,1.089,1.0716,1.0598,1.0611,1.0611,1.0611,1.0567,1.095,1.2109,1.1166,1.0994,1.2157,1.1209,1.0611,1.0611,1.0611,1.0616,1.0626,1.0626,1.0593,1.0511,1.0603,1.0621,1.0652,1.0696,1.0176,0.8303,0.9028,0.9667,0.9979,1.0208,1.0148,0.9519,0.92,0.8783,0.7811,0.7333,0.6973,0.6563,0.6542,0.66,0.6637,0.6987,0.7304,0.7614,0.7777,0.7896,0.7924,0.7931,0.7931,0.7931,0.7931,0.8045,0.8201,0.8211,0.8211,0.8211,0.8313,0.8367,0.8367,0.8265,0.8211,0.8211,0.8096,0.8116,0.8323,0.8357,0.8401,0.854,0.8581,0.8577,0.854,0.854,0.852,0.8472,0.8381,0.8323,0.8255,0.8099,0.7988,0.7988,0.7988,0.7988,0.8088,0.8772,0.897,0.897,0.897,0.897,0.897,0.897,0.897,0.897,0.897,0.8775,0.8577,0.892,0.9509,1.0096,1.0386,1.1214,1.1896,1.1896,1.1896,1.1604,1.0681,0.9653,0.9312,1.0293,1.0445,1.0004,0.8869,0.9463,1.0186,1.0551,1.0611,1.0611,1.0611,0.9836,0.9797,1.0956,1.0009,0.9836,1.095,1.0783,1.0611,1.0611,1.0611,1.0648,1.077,1.0731,1.0364,0.9657,1.0512,1.009,0.8459,0.9276,0.9073,0.8459,0.8842,0.9137,0.9207,0.9111,0.8862,0.8499,0.8082,0.7624,0.7132,0.6688,0.6339,0.6061,0.6119,0.6259,0.6399,0.6756,0.7132,0.755,0.7723,0.7868,0.7971,0.7988,0.7988,0.7988,0.7988,0.8102,0.831,0.8323,0.8347,0.836,0.8438,0.8482,0.8482,0.8343,0.8238,0.817,0.8032,0.8032,0.817,0.8238,0.8364,0.8391,0.8455,0.8128,0.7541,0.7541,0.7142,0.6516,0.6452,0.6425,0.642,0.63,0.6224,0.6326,0.688,0.7135,0.7185,0.7789,0.7988,0.7988,0.7988,0.7988,0.7988,0.7988,0.7988,0.7988,0.7988,0.7988,0.7988,0.7988,0.8577,0.9118,0.9118,0.9657,1.019,1.019,1.019,0.9993,0.9262,0.8531,0.8233,0.897,0.9118,0.8814,0.7928,0.8431,0.9009,0.9268,0.9261,0.9261,0.9261,0.873,0.8775,0.9924,0.8996,0.882,0.9969,0.9571,0.9261,0.9261,0.9261,0.9313,0.9379,0.9379,0.9108,0.8567,0.9254,0.8925,0.7692,0.8343,0.8336,0.8944,0.9215,0.9371,0.9255,0.8913,0.855,0.8012,0.7452,0.6906,0.6478,0.6057,0.5728,0.5586,0.5691,0.5895,0.6221,0.6481,0.6789,0.7224,0.7305,0.7304,0.7465,0.7484,0.7484,0.7484,0.7484,0.755,0.7766,0.776,0.7975,0.8503,0.853,0.8523,0.8482,0.8185,0.8039,0.7992,0.7637,0.7537,0.7739,0.7712,0.7722,0.7725,0.7839,0.72,0.6011,0.6011,0.5245,0.4016,0.4016,0.4016,0.4016,0.4016,0.4016,0.4166,0.5322,0.5727,0.5877,0.7083,0.7484,0.7534,0.7889,0.7988,0.7988,0.7988,0.7988,0.7988,0.7988,0.7988,0.7988,0.7988,0.7988,0.7939,0.7786,0.7739,0.7686,0.7484,0.7484,0.7484,0.7484,0.7484,0.7484,0.7484,0.7637,0.7644,0.7317,0.7595,0.7701,0.7434,0.753,0.76,0.76,0.76,0.8013,0.8979,0.8149,0.8016,0.9021,0.8153,0.76,0.76,0.76,0.7607,0.7628,0.7628,0.7638,0.7658,0.7658,0.7723,0.7841,0.7841,0.7913,0.9412,0.953,0.9503,0.9279,0.889,0.834,0.7645,0.7119,0.6614,0.6037,0.5762,0.5583,0.5463,0.562,0.5861,0.604,0.5602,0.5389,0.574,0.504,0.454,0.47,0.4718,0.4718,0.4718,0.4718,0.4735,0.4896,0.4894,0.6021,0.8548,0.8791,0.8743,0.8489,0.7291,0.7059,0.7992,0.5822,0.527,0.6331,0.5238,0.474,0.4742,0.4756,0.4653,0.4388,0.4388,0.4228,0.4016,0.4016,0.4016,0.4016,0.4016,0.4016,0.4016,0.4268,0.4368,0.4368,0.4618,0.4718,0.5068,0.7282,0.7988,0.7988,0.7988,0.7988,0.7988,0.7988,0.7988,0.7988,0.7988,0.7988,0.7736,0.6631,0.6331,0.6027,0.492,0.4718,0.4718,0.4718,0.4718,0.4718,0.4718,0.5625,0.5969,0.4847,0.6545,0.7539,0.6424,0.7071,0.76,0.76,0.76,0.7691,0.7875,0.7691,0.7695,0.7875,0.7691,0.76,0.76,0.76,0.7655,0.7773,0.7773,0.7838,0.7914,0.7914,0.7928,0.7948,0.7948,0.7965,0.9408,0.9432,0.9279,0.8954,0.8465,0.794,0.7193,0.6675,0.6227,0.5783,0.5576,0.5484,0.5409,0.5576,0.5739,0.5888,0.5347,0.4993,0.5222,0.4486,0.3934,0.3998,0.3993,0.4016,0.4016,0.4016,0.4062,0.4176,0.4202,0.4876,0.6411,0.658,0.6501,0.6276,0.5597,0.5422,0.5922,0.4668,0.4316,0.497,0.4316,0.4016,0.4016,0.4016,0.3615,0.2964,0.2964,0.2564,0.1913,0.1913,0.1913,0.1913,0.1913,0.1913,0.2013,0.2715,0.2964,0.3065,0.3765,0.4016,0.4216,0.552,0.5922,0.5922,0.5922,0.5922,0.5922,0.5922,0.5922,0.5922,0.5922,0.5922,0.5772,0.5122,0.497,0.477,0.4116,0.4016,0.4016,0.4016,0.4016,0.4016,0.4016,0.5122,0.5525,0.4216,0.5672,0.6478,0.5122,0.5387,0.6257,0.7679,0.7828,0.7828,0.7828,0.7828,0.7828,0.7828,0.7828,0.7828,0.7828,0.7828,0.7862,0.788,0.788,0.7917,0.7988,0.7988,0.7988,0.7988,0.7988,0.7988,0.9252,0.9222,0.9005,0.8587,0.8119,0.757,0.6824,0.6329,0.5899,0.561,0.5481,0.5395,0.5395,0.5521,0.5627,0.5739,0.5214,0.4768,0.4662,0.3967,0.3407,0.3151,0.3161,0.315,0.3164,0.3165,0.3191,0.3303,0.3307,0.3668,0.4435,0.4475,0.4349,0.4183,0.3909,0.3823,0.4016,0.3416,0.3265,0.3565,0.3265,0.3165,0.3165,0.3165,0.2564,0.1561,0.1561,0.0958,0.0,0.0,0.0,0.0,0.0,0.0,0.0151,0.1159,0.1561,0.1712,0.2765,0.3165,0.3165,0.3165,0.3516,0.4016,0.4016,0.4016,0.4016,0.4016,0.4016,0.4016,0.4016,0.4016,0.3915,0.3615,0.3364,0.3165,0.3165,0.3165,0.3165,0.3165,0.3165,0.3165,0.3165,0.427,0.4672,0.3366,0.452,0.5072,0.3765,0.3815,0.4818,0.6927,0.7129,0.7129,0.7129,0.7129,0.7129,0.7129,0.7129,0.7129,0.7129,0.7129,0.7129,0.7129,0.7129,0.7129,0.7129,0.7129,0.7129,0.7129,0.7129,0.7129,0.9149,0.9069,0.8882,0.856,0.8048,0.7421,0.6706,0.6254,0.5908,0.5504,0.5405,0.5395,0.5395,0.5521,0.5593,0.5606,0.5007,0.4189,0.3245,0.2375,0.1462,0.0476,0.0389,0.0347,0.0353,0.0353,0.0356,0.0363,0.0363,0.1567,0.4357,0.4339,0.424,0.4181,0.2898,0.277,0.3966,0.1561,0.0958,0.2163,0.0958,0.0353,0.0353,0.0353,0.0303,0.0202,0.0202,0.0101,0.0,0.0,0.0,0.0,0.0,0.0,0.0,0.0151,0.0202,0.0202,0.0303,0.0353,0.0353,0.0353,0.2013,0.4016,0.4016,0.4016,0.4016,0.4016,0.4016,0.4016,0.4016,0.4016,0.3715,0.2464,0.126,0.0353,0.0353,0.0353,0.0353,0.0353,0.0353,0.0353,0.0353,0.1461,0.1913,0.0555,0.2564,0.3717,0.2364,0.3265,0.4116,0.4316,0.4366,0.4366,0.4366,0.4366,0.4366,0.4366,0.4366,0.4366,0.4366,0.4366,0.4366,0.4366,0.4366,0.4366,0.4366,0.4366,0.4366,0.4366,0.4366,0.4366,0.8569,0.8642,0.857,0.8177,0.7767,0.7265,0.6555,0.6112,0.5789,0.547,0.5395,0.5395,0.5395,0.5443,0.5487,0.5487,0.4751,0.4077,0.3742,0.2933,0.2025,0.1095,0.0982,0.0719,0.0049,0.0,0.0,0.0,0.0,0.0518,0.1751,0.1738,0.1681,0.1681,0.1113,0.1058,0.1611,0.0555,0.0252,0.0807,0.0252,0.0,0.0,0.0,0.0,0.0,0.0,0.0,0.0,0.0,0.0,0.0,0.0,0.0,0.0,0.0,0.0,0.0,0.0,0.0,0.0,0.0,0.0706,0.1611,0.1611,0.1611,0.1615,0.1583,0.1587,0.1591,0.1609,0.1601,0.1481,0.091,0.0404,0.0,0.0,0.0,0.0,0.0,0.0,0.0,0.0,0.1109,0.1561,0.0202,0.1611,0.2314,0.0958,0.126,0.1611,0.1611,0.3015,0.4016,0.4016,0.4016,0.4016,0.4016,0.4016,0.4016,0.4016,0.4016,0.4016,0.4016,0.4016,0.4016,0.4016,0.4016,0.4016,0.4016,0.4016,0.4016,0.7882,0.8079,0.8079,0.776,0.739,0.6989,0.6332,0.5956,0.5667,0.5446,0.5395,0.5395,0.5395,0.5395,0.5395,0.5395,0.4866,0.4383,0.4181,0.3714,0.3033,0.2135,0.1799,0.1305,0.0586,0.0197,0.0,0.0,0.0,0.0,0.0,0.0,0.0,0.0,0.0,0.0,0.0,0.0,0.0,0.0,0.0,0.0,0.0,0.0,0.0,0.0,0.0,0.0,0.0,0.0,0.0,0.0,0.0,0.0,0.0,0.0,0.0,0.0,0.0,0.0,0.0,0.0,0.0,0.0,0.0,0.0,0.0,0.0,0.0,0.0,0.0,0.0,-0.0103,-0.0507,-0.0605,-0.0706,-0.1109,-0.1159,-0.1159,-0.1159,-0.1159,-0.1159,-0.1159,-0.005,0.0352,-0.0957,-0.005,0.0352,-0.1007,-0.1159,-0.1159,-0.1159,0.0502,0.1955,0.2764,0.2815,0.2815,0.2815,0.2815,0.2815,0.2815,0.2815,0.2815,0.2815,0.2815,0.2815,0.2815,0.2815,0.2815,0.2815,0.2815,0.2612,0.7303,0.7429,0.7429,0.7422,0.6968,0.6403,0.6064,0.5803,0.5549,0.5426,0.5395,0.5395,0.5395,0.5395,0.5395,0.5395,0.5491,0.5202,0.4154,0.4289,0.4135,0.3208,0.2223,0.1652,0.1754,0.0699,0.0,0.0,0.0,0.0,0.0,0.0,0.0,0.0,0.0,0.0,0.0,0.0,0.0,0.0,0.0,0.0,0.0,0.0,0.0,0.0,0.0,0.0,0.0,0.0,0.0,0.0,0.0,0.0,0.0,0.0,0.0,0.0,0.0,0.0,0.0,0.0,0.0,0.0,0.0,0.0,0.0,0.0,0.0,0.0,0.0,0.0,-0.031,-0.1669,-0.1962,-0.2364,-0.3665,-0.3966,-0.3966,-0.3966,-0.3966,-0.3966,-0.3966,-0.2864,-0.2414,-0.3765,-0.2815,-0.2464,-0.3765,-0.3966,-0.3966,-0.3966,-0.3915,-0.2864,-0.0202,0.0051,0.0051,0.0051,0.0051,0.0051,0.0051,0.0051,0.0051,0.0051,0.0051,0.0051,0.0051,0.0051,0.0051,0.0051,0.0051,-0.0656,0.6555,0.6801,0.6888,0.6825,0.6583,0.6286,0.5942,0.5728,0.5545,0.5426,0.5395,0.5395,0.5395,0.5395,0.5395,0.5395,0.5436,0.5399,0.5239,0.5304,0.4825,0.3278,0.1566,0.0518,0.0576,0.0248,0.0,0.0,0.0,0.0,0.0,0.0,0.0,0.0,0.0,0.0,0.0,0.0,0.0,0.0,0.0,0.0,0.0,0.0,0.0,0.0,0.0,0.0,0.0,0.0,0.0,0.0,0.0,0.0,0.0,0.0,0.0,-0.0151,-0.1058,-0.136,-0.1511,-0.2414,-0.2715,-0.2715,-0.2715,-0.146,-0.0203,-0.1203,-0.2262,-0.3062,-0.292,-0.2843,-0.2978,-0.329,-0.3364,-0.3465,-0.3915,-0.4016,-0.4016,-0.4016,-0.4016,-0.4016,-0.4016,-0.3667,-0.3515,-0.3915,-0.3615,-0.3516,-0.3966,-0.4016,-0.4016,-0.4016,-0.4016,-0.3665,-0.2815,-0.2715,-0.2715,-0.2715,-0.2715,-0.2715,-0.2715,-0.2715,-0.2715,-0.2715,-0.2715,-0.2715,-0.2715,-0.2715,-0.2715,-0.2715,-0.2715,-0.2964,0.5859,0.6095,0.6186,0.6187,0.5986,0.5783,0.5593,0.5481,0.5389,0.5294,0.5354,0.5395,0.5395,0.5395,0.5395,0.5395,0.5395,0.5481,0.5688,0.5817,0.5211,0.3438,0.1691,0.0478,0.0048,0.0,0.0,0.0,0.0,0.0,0.0,0.0,0.0,0.0,0.0,0.0,0.0,0.0,0.0,0.0,0.0,0.0,0.0,0.0,0.0,0.0,0.0,0.0,0.0,0.0,0.0,0.0,0.0,-0.0303,-0.0756,-0.0756,-0.1058,-0.1611,-0.2464,-0.2764,-0.2914,-0.3715,-0.4016,-0.4016,-0.4016,-0.2828,-0.169,-0.2687,-0.3613,-0.4308,-0.4214,-0.4169,-0.4221,-0.4651,-0.477,-0.487,-0.542,-0.552,-0.552,-0.552,-0.552,-0.552,-0.552,-0.507,-0.492,-0.542,-0.507,-0.492,-0.542,-0.552,-0.552,-0.552,-0.552,-0.552,-0.552,-0.4568,-0.4016,-0.4016,-0.4016,-0.4016,-0.4016,-0.4016,-0.4016,-0.4016,-0.4016,-0.4016,-0.4016,-0.4016,-0.4016,-0.4016,-0.4016,-0.4268,0.0,0.5361,0.5412,0.5521,0.5342,0.5096,0.5086,0.5093,0.0,0.51,0.5254,0.5395,0.5395,0.5395,0.5395,0.5395,0.5395,0.545,0.5583,0.5805,0.5305,0.3694,0.2502,0.1343,0.0244,0.005,0.0,0.0,0.0,0.0,0.0,0.0,0.0,0.0,0.0,0.0,0.0,0.0,0.0,0.0,0.0,0.0,0.0,0.0,0.0,0.0,0.0,0.0,0.0,-0.0101,-0.0151,-0.0151,-0.0252,-0.1058,-0.2163,-0.2163,-0.2914,-0.4016,-0.4116,-0.4166,-0.4166,-0.4266,-0.4266,-0.4266,-0.4266,-0.4221,-0.4197,-0.4327,-0.4348,-0.4348,-0.4454,-0.4395,-0.4623,-0.5854,-0.6129,-0.6481,-0.7739,-0.7988,-0.7988,-0.7988,-0.7988,-0.7988,-0.7988,-0.6983,-0.6581,-0.7789,-0.6933,-0.6581,-0.7839,-0.7988,-0.7988,-0.7988,-0.7988,-0.7988,-0.7988,-0.5722,-0.4266,-0.4266,-0.4266,-0.4266,-0.4266,-0.4266,-0.4266,-0.4266,-0.4266,-0.4266,-0.4266,-0.4266,-0.4266,-0.4266,-0.4266,-0.5018,0.4849,0.0,0.5192,0.5197,0.515,0.5069,0.0,0.5022,0.51,0.51,0.5254,0.5395,0.5395,0.5395,0.5395,0.5395,0.5395,0.5487,0.5715,0.5393,0.5,0.4582,0.2913,0.1669,0.1389,0.0544,0.0,0.0,0.0,0.0,0.0,0.0,0.0,0.0,0.0,0.0,0.0,0.0,0.0,0.0,0.0,0.0,0.0,0.0,0.0,0.0,0.0,0.0,-0.0101,-0.1109,-0.1511,-0.1611,-0.2665,-0.3265,-0.3516,-0.3516,-0.3715,-0.4166,-0.5172,-0.5525,-0.5677,-0.6728,-0.708,-0.708,-0.708,-0.6457,-0.5798,-0.5905,-0.6677,-0.7472,-0.7472,-0.7379,-0.7352,-0.7469,-0.7537,-0.7637,-0.7939,-0.7988,-0.7988,-0.7988,-0.7988,-0.7988,-0.7988,-0.7739,-0.7637,-0.7939,-0.7739,-0.7637,-0.7939,-0.7988,-0.7988,-0.7988,-0.7988,-0.7988,-0.7988,-0.7431,-0.708,-0.708,-0.708,-0.708,-0.708,-0.708,-0.708,-0.708,-0.708,-0.708,-0.708,-0.708,-0.708,-0.708,-0.708,-0.777,0.4857,0.4931,0.5002,0.5002,0.4951,0.4908,0.483,0.4897,0.5002,0.5002,0.5209,0.5395,0.5395,0.5395,0.5419,0.5487,0.5501,0.5651,0.6047,0.5402,0.4957,0.5106,0.3175,0.1815,0.1783,0.0694,0.0,0.0,0.0,0.0,0.0,0.0,0.0,0.0,0.0,0.0,0.0,0.0,0.0,0.0,0.0,0.0,0.0,0.0,0.0,-0.0051,-0.0656,-0.0555,-0.0151,-0.2113,-0.2564,-0.2113,-0.3465,-0.4368,-0.492,-0.492,-0.5322,-0.5924,-0.6681,-0.6933,-0.7033,-0.7786,-0.7988,-0.7988,-0.7988,-0.7585,-0.7113,-0.7297,-0.7759,-0.8296,-0.8367,-0.8275,-0.8143,-0.8008,-0.7988,-0.7988,-0.7988,-0.7988,-0.7988,-0.7988,-0.7988,-0.7988,-0.7988,-0.8528,-0.892,-0.892,-0.941,-0.9801,-0.9801,-0.9801,-0.9801,-0.9801,-0.9801,-0.9801,-0.9801,-0.9801,-0.9262,-0.8088,-0.8581,-0.892,-0.892,-0.946,-0.9801,-0.9801,-0.9801,-0.9801,-0.9801,-0.9801,-0.9801,-0.9801,-0.9801,-1.019,0.5026,0.5029,0.4982,0.4928,0.4853,0.4752,0.4731,0.4843,0.4921,0.4921,0.5169,0.5395,0.5395,0.5416,0.5474,0.5569,0.5647,0.5911,0.6436,0.5756,0.5336,0.5602,0.356,0.2061,0.2102,0.0848,0.0,0.0,0.0,0.0,0.0,0.0,0.0,0.0,0.0,0.0,0.0,0.0,0.0,0.0,0.0,0.0,0.0,0.0,0.0,-0.005,-0.1209,-0.1159,-0.0504,-0.2964,-0.3466,-0.2765,-0.4067,-0.5322,-0.6282,-0.6282,-0.7033,-0.7988,-0.7988,-0.7988,-0.7988,-0.7988,-0.8137,-0.8283,-0.8283,-0.8432,-0.8606,-0.8798,-0.8438,-0.8075,-0.8479,-0.847,-0.8411,-0.8535,-0.8645,-0.8656,-0.8581,-0.8577,-0.8577,-0.8577,-0.8577,-0.8577,-0.8577,-0.9558,-1.0288,-1.0288,-1.1214,-1.1896,-1.1896,-1.1896,-1.1896,-1.1896,-1.1896,-1.1896,-1.1896,-1.1896,-1.097,-0.8726,-0.9657,-1.0288,-1.0288,-1.1312,-1.1896,-1.1896,-1.1896,-1.1896,-1.1896,-1.1896,-1.1896,-1.1896,-1.1896,-1.1994,0.5056,0.5209,0.5296,0.51,0.5049,0.5002,0.4881,0.4965,0.5066,0.5066,0.524,0.5395,0.5395,0.5501,0.5562,0.5586,0.5945,0.6269,0.648,0.6546,0.6658,0.684,0.4776,0.3349,0.3465,0.1396,0.0,0.0,0.0,0.0,0.0,0.0,0.0,0.0,0.0,0.0,0.0,0.0,0.0,0.0,0.0,0.0,0.0,0.0,0.0,0.0,-0.0202,-0.0857,-0.1812,-0.3364,-0.457,-0.5525,-0.688,-0.7534,-0.7686,-0.7686,-0.7839,-0.7988,-0.7988,-0.7988,-0.7988,-0.7988,-0.8775,-0.9706,-0.9706,-1.0435,-1.1321,-1.1355,-0.9727,-0.8318,-0.9567,-0.9944,-1.0238,-1.111,-1.15,-1.1631,-1.135,-1.1312,-1.1312,-1.1312,-1.1312,-1.1312,-1.1312,-1.1458,-1.1609,-1.1609,-1.175,-1.1896,-1.1896,-1.1896,-1.1896,-1.1896,-1.1896,-1.1896,-1.1896,-1.1896,-1.175,-1.1312,-1.1512,-1.1609,-1.1609,-1.1804,-1.1896,-1.1896,-1.1896,-1.1896,-1.1896,-1.1896,-1.1896,-1.1896,-1.1896,-1.2528,0.5196,0.5341,0.5378,0.5274,0.5192,0.5079,0.5015,0.5052,0.51,0.51,0.5254,0.5395,0.5395,0.5521,0.5671,0.5948,0.63,0.6576,0.68,0.7027,0.7221,0.737,0.5824,0.4546,0.3858,0.214,0.0756,0.005,0.0,0.0,0.0,0.0,0.0,0.0,0.0,0.0,0.0,0.0,0.0,0.0,0.0,0.0,0.0,0.0,0.0,-0.0101,-0.1511,-0.2113,-0.2213,-0.502,-0.6077,-0.6129,-0.7484,-0.7988,-0.7988,-0.7988,-0.7988,-0.7988,-0.7988,-0.7988,-0.8137,-0.8825,-0.9509,-1.0145,-1.0828,-1.1458,-1.1896,-1.1896,-1.1019,-1.0261,-1.0937,-1.1159,-1.1333,-1.1775,-1.2026,-1.2071,-1.1922,-1.1896,-1.1896,-1.1896,-1.1896,-1.1896,-1.1896,-1.2479,-1.2963,-1.2963,-1.359,-1.4034,-1.4034,-1.4034,-1.4034,-1.4034,-1.4034,-1.4034,-1.4034,-1.4034,-1.3692,-1.3006,-1.2963,-1.3301,-1.398,-1.4034,-1.4034,-1.4034,-1.468,-1.5054,-1.5054,-1.5691,-1.6007,-1.6007,-1.6007,-1.6343,0.5313,0.5395,0.5395,0.5395,0.5274,0.516,0.5197,0.5204,0.5214,0.5248,0.5355,0.5446,0.5446,0.5573,0.58,0.6323,0.6583,0.6858,0.7109,0.7326,0.7482,0.7631,0.6534,0.5428,0.4424,0.2892,0.1561,0.0555,0.0202,0.0,0.0,0.0,0.0,0.0,0.0,0.0,0.0,0.0,0.0,0.0,0.0,0.0,0.0,0.0,0.0,-0.0151,-0.2514,-0.3115,-0.2715,-0.6126,-0.7132,-0.6581,-0.7587,-0.7988,-0.7988,-0.7988,-0.7988,-0.7988,-0.7988,-0.7988,-0.8233,-0.9558,-1.0194,-1.0681,-1.1994,-1.2576,-1.2818,-1.2818,-1.2818,-1.2721,-1.2431,-1.2419,-1.2542,-1.2737,-1.2861,-1.2889,-1.2829,-1.2818,-1.2818,-1.2818,-1.2818,-1.2818,-1.2818,-1.3638,-1.4364,-1.4364,-1.5194,-1.5784,-1.5784,-1.5784,-1.592,-1.6204,-1.6244,-1.6339,-1.6655,-1.6655,-1.6264,-1.5285,-1.4965,-1.5358,-1.6608,-1.6655,-1.6655,-1.6655,-1.763,-1.8141,-1.8141,-1.9047,-1.9497,-1.9497,-1.9497,-1.9497,0.5313,0.5395,0.5395,0.5395,0.5385,0.5416,0.5525,0.5555,0.5593,0.5725,0.5657,0.5576,0.5576,0.5691,0.5979,0.6573,0.6807,0.7017,0.7312,0.7489,0.7638,0.778,0.6631,0.5801,0.5857,0.3516,0.1962,0.1862,0.0706,0.0,0.0,0.0,0.0,0.0,0.0,0.0,0.0,0.0,0.0,0.0,0.0,0.0,0.0,0.0,0.0,-0.0101,-0.1511,-0.2815,-0.3966,-0.5525,-0.6833,-0.7889,-0.7939,-0.7988,-0.7988,-0.7988,-0.7988,-0.7988,-0.7988,-0.7988,-0.8233,-0.9558,-1.0779,-1.1994,-1.3343,-1.4561,-1.554,-1.554,-1.554,-1.5242,-1.407,-1.3951,-1.4368,-1.5306,-1.5744,-1.5917,-1.5593,-1.554,-1.554,-1.554,-1.554,-1.554,-1.554,-1.5588,-1.5683,-1.5683,-1.573,-1.5784,-1.5784,-1.5784,-1.6244,-1.7458,-1.7552,-1.8002,-1.9131,-1.9214,-1.9169,-1.9115,-1.8033,-1.7948,-1.9177,-1.9214,-1.9214,-1.9214,-1.9306,-1.936,-1.936,-1.9451,-1.9497,-1.9497,-1.9497,-1.9497,0.5313,0.5395,0.5395,0.5395,0.5395,0.5436,0.5555,0.5589,0.5801,0.658,0.6179,0.5749,0.5844,0.583,0.6,0.6603,0.6827,0.7034,0.7374,0.7502,0.7617,0.7675,0.7247,0.6592,0.5812,0.4171,0.2768,0.1945,0.073,0.0,0.0,0.0,0.0,0.0,0.0,0.0,0.0,0.0,0.0,0.0,0.0,0.0,0.0,0.0,-0.0454,-0.131,-0.2665,-0.4017,-0.5322,-0.6681,-0.7537,-0.7988,-0.7988,-0.7988,-0.7988,-0.7988,-0.7988,-0.8137,-0.897,-0.9266,-0.9604,-1.1745,-1.2764,-1.3397,-1.4704,-1.5439,-1.5784,-1.5784,-1.5784,-1.5683,-1.5194,-1.5169,-1.5514,-1.6683,-1.7084,-1.7323,-1.7971,-1.8118,-1.8118,-1.8118,-1.8118,-1.8118,-1.8118,-1.8118,-1.8118,-1.8118,-1.8118,-1.8118,-1.8118,-1.8118,-1.8311,-1.8772,-1.8818,-1.9001,-1.9451,-1.9497,-1.9807,-2.0567,-1.9497,-1.8993,-1.9497,-1.9497,-1.9497,-1.9497,-2.026,-2.0621,-2.0621,-2.1355,-2.1721,-2.1721,-2.1721,-2.2136,0.5313,0.5591,0.5749,0.5458,0.5626,0.5839,0.5693,0.5657,0.592,0.6804,0.6626,0.6262,0.6047,0.6238,0.6482,0.6658,0.6865,0.7085,0.7381,0.7502,0.76,0.76,0.76,0.7073,0.5782,0.4553,0.3277,0.1951,0.0715,0.0,0.0,0.0,0.0,0.0,0.0,0.0,0.0,0.0,0.0,0.0,0.0,0.0,0.0,-0.0454,-0.1109,-0.2113,-0.3867,-0.5172,-0.6079,-0.7437,-0.7988,-0.7988,-0.7988,-0.7988,-0.7988,-0.7988,-0.8283,-0.8775,-0.9706,-1.0243,-1.097,-1.3199,-1.3926,-1.4118,-1.5391,-1.5784,-1.5784,-1.5784,-1.5784,-1.5872,-1.6292,-1.6386,-1.6615,-1.7505,-1.8002,-1.8503,-1.9314,-1.9497,-1.9497,-1.9497,-1.9497,-1.9497,-1.9497,-1.9497,-1.9497,-1.9497,-1.9497,-1.9497,-1.9497,-1.9497,-1.9633,-2.0034,-2.0395,-2.0629,-2.0629,-2.0629,-2.0989,-2.18,-2.1078,-2.0629,-2.0629,-2.0629,-2.0629,-2.0629,-2.1445,-2.1845,-2.1845,-2.3052,-2.3637,-2.3637,-2.4016,-2.4595,0.5313,0.6042,0.6494,0.5624,0.6138,0.6712,0.598,0.5803,0.5928,0.6238,0.6961,0.7208,0.6183,0.6984,0.7559,0.6819,0.6906,0.7146,0.735,0.7499,0.7597,0.7597,0.7597,0.7117,0.5923,0.4598,0.3323,0.2092,0.0762,0.0,0.0,0.0,0.0,0.0,0.0,0.0,0.0,0.0,0.0,0.0,0.0,0.0,-0.005,-0.141,-0.2013,-0.2163,-0.4824,-0.6029,-0.6129,-0.7434,-0.7988,-0.7988,-0.7988,-0.7988,-0.7988,-0.7988,-0.8874,-0.9998,-0.9998,-1.0828,-1.2139,-1.3494,-1.3926,-1.4166,-1.5439,-1.5784,-1.5784,-1.5784,-1.5832,-1.6109,-1.7365,-1.7738,-1.7731,-1.7731,-1.8642,-1.9542,-1.9534,-1.9534,-1.9534,-1.9534,-1.9534,-1.9534,-1.9534,-1.9534,-1.9534,-1.9534,-1.9534,-1.9534,-1.9534,-1.9534,-1.9988,-2.1203,-2.2403,-2.3091,-2.3135,-2.3135,-2.3135,-2.3135,-2.3135,-2.3135,-2.3091,-2.3091,-2.3101,-2.3135,-2.3135,-2.3135,-2.3144,-2.4253,-2.483,-2.483,-2.5964,-2.6524,0.5313,0.5591,0.5748,0.5596,0.5758,0.5961,0.5941,0.6507,0.7076,0.7426,0.7688,0.7575,0.6678,0.6726,0.6867,0.6852,0.6893,0.6997,0.7187,0.7203,0.723,0.723,0.723,0.7095,0.6728,0.5636,0.4412,0.3229,0.1959,0.0913,0.0046,0.0,0.0,0.0,0.0,0.0,0.0,0.0,0.0,0.0,0.0,0.0,-0.005,-0.1402,-0.2514,-0.3515,-0.5225,-0.6531,-0.7428,-0.7723,-0.7879,-0.7879,-0.7879,-0.7894,-0.7988,-0.7988,-0.8874,-1.0145,-1.1023,-1.2183,-1.3542,-1.4806,-1.5242,-1.5289,-1.5683,-1.5784,-1.5784,-1.5784,-1.6433,-1.7225,-1.7598,-1.8956,-2.0215,-2.0215,-2.0531,-2.098,-2.1863,-2.2041,-2.2041,-2.2041,-2.2041,-2.2041,-2.2041,-2.2041,-2.2041,-2.2041,-2.2041,-2.2041,-2.2041,-2.2041,-2.2183,-2.2545,-2.2906,-2.342,-2.4211,-2.4296,-2.4628,-2.5431,-2.5473,-2.4766,-2.3178,-2.3091,-2.3464,-2.4296,-2.4296,-2.467,-2.5473,-2.585,-2.6016,-2.6005,-2.6348,-2.6883,0.533,0.5653,0.5855,0.5655,0.5908,0.6281,0.6645,0.6866,0.7091,0.7359,0.7732,0.7749,0.6874,0.6948,0.7108,0.6849,0.6837,0.6868,0.691,0.6923,0.6923,0.6923,0.6923,0.6747,0.627,0.5618,0.4528,0.2917,0.2136,0.1223,0.0044,0.0,0.0,0.0,0.0,0.0,0.0,0.0,0.0,0.0,0.0,0.0,-0.0048,-0.1918,-0.3243,-0.4114,-0.5929,-0.7125,-0.7858,-0.7767,-0.7726,-0.7726,-0.7726,-0.7784,-0.7872,-0.788,-0.9112,-1.0766,-1.1623,-1.3108,-1.48,-1.554,-1.5784,-1.5784,-1.5784,-1.5784,-1.5927,-1.6433,-1.7131,-1.7917,-1.8864,-2.0215,-2.1293,-2.1293,-2.1667,-2.2208,-2.295,-2.3091,-2.3091,-2.3091,-2.3091,-2.3091,-2.3091,-2.3091,-2.3091,-2.3091,-2.3091,-2.3091,-2.3091,-2.3091,-2.3091,-2.3091,-2.3507,-2.4049,-2.4745,-2.521,-2.5755,-2.6483,-2.6524,-2.5891,-2.452,-2.4435,-2.4766,-2.5462,-2.5462,-2.5797,-2.6524,-2.6924,-2.7128,-2.7168,-2.7585,-2.8374,0.5351,0.5976,0.6411,0.5768,0.6322,0.7146,0.7555,0.6949,0.6379,0.66,0.731,0.7648,0.6836,0.7435,0.7761,0.6864,0.6702,0.6702,0.6702,0.6702,0.6702,0.6702,0.6702,0.628,0.5152,0.5069,0.4145,0.1928,0.176,0.1259,0.0042,0.0,0.0,0.0,0.0,0.0,0.0,0.0,0.0,0.0,0.0,-0.0046,-0.0231,-0.2828,-0.4132,-0.444,-0.6766,-0.7709,-0.758,-0.758,-0.758,-0.758,-0.758,-0.7587,-0.7614,-0.7839,-0.9498,-1.1706,-1.1935,-1.3657,-1.5792,-1.5771,-1.5784,-1.5784,-1.5784,-1.5879,-1.6204,-1.7365,-1.787,-1.8549,-2.0747,-2.1382,-2.148,-2.148,-2.2306,-2.3091,-2.3091,-2.3091,-2.3091,-2.3091,-2.3091,-2.3091,-2.3091,-2.3091,-2.3091,-2.3091,-2.3091,-2.3091,-2.3091,-2.3178,-2.3256,-2.3256,-2.4253,-2.4999,-2.5073,-2.6047,-2.6678,-2.6801,-2.6812,-2.6812,-2.6812,-2.6607,-2.6565,-2.6637,-2.6637,-2.6689,-2.6812,-2.7884,-2.8402,-2.8402,-2.9535,-3.0533,0.5351,0.5524,0.5688,0.5758,0.6106,0.6481,0.6588,0.6451,0.6571,0.7502,0.7285,0.6905,0.6733,0.6864,0.6943,0.674,0.6702,0.6702,0.6702,0.6702,0.6702,0.6702,0.6702,0.6615,0.6322,0.6322,0.5399,0.3183,0.2974,0.2096,0.0084,0.0,0.0,0.0,0.0,0.0,0.0,0.0,0.0,0.0,0.0,-0.0489,-0.1489,-0.3098,-0.4929,-0.687,-0.7418,-0.756,-0.7421,-0.7421,-0.7421,-0.7421,-0.7421,-0.7495,-0.7695,-0.8652,-1.0008,-1.1569,-1.2684,-1.4147,-1.5524,-1.5752,-1.5784,-1.5784,-1.5784,-1.648,-1.7365,-1.7638,-1.9039,-2.0666,-2.1159,-2.1987,-2.2721,-2.2721,-2.2906,-2.3091,-2.3091,-2.3091,-2.3091,-2.3091,-2.3091,-2.3091,-2.3091,-2.3091,-2.3091,-2.3091,-2.3091,-2.3091,-2.3091,-2.3877,-2.4414,-2.4414,-2.5473,-2.6461,-2.7308,-2.7602,-2.8148,-2.904,-2.9079,-2.9079,-2.9079,-2.7424,-2.6883,-2.7723,-2.7775,-2.8187,-2.9079,-3.005,-3.0518,-3.0556,-3.1523,-3.2105,0.5375,0.5395,0.545,0.5644,0.5871,0.6078,0.6078,0.6078,0.6245,0.6806,0.6774,0.6614,0.6685,0.6641,0.659,0.659,0.6532,0.6488,0.6488,0.6488,0.6488,0.6488,0.6488,0.6488,0.6488,0.6488,0.5799,0.4133,0.3526,0.2474,0.0854,0.0288,0.0,0.0,0.0,0.0,0.0,0.0,0.0,0.0,0.0,-0.0952,-0.2692,-0.4035,-0.5709,-0.7492,-0.7492,-0.7404,-0.7261,-0.7261,-0.7261,-0.7261,-0.7261,-0.767,-0.8291,-0.8955,-1.0386,-1.2141,-1.294,-1.4108,-1.5237,-1.5524,-1.5625,-1.5738,-1.6485,-1.7178,-1.7963,-1.9085,-2.035,-2.1426,-2.2031,-2.2633,-2.3091,-2.3091,-2.3091,-2.3091,-2.3091,-2.3091,-2.3091,-2.3091,-2.3091,-2.3091,-2.3091,-2.3091,-2.3091,-2.3091,-2.3551,-2.392,-2.392,-2.4925,-2.563,-2.563,-2.6625,-2.7493,-2.8056,-2.8597,-2.9157,-2.9753,-3.0203,-3.0482,-3.0482,-2.9795,-2.945,-2.959,-2.959,-3.0101,-3.1132,-3.1609,-3.1852,-3.1888,-3.2393,-3.2855,0.5395,0.5416,0.5467,0.5559,0.5694,0.58,0.58,0.58,0.58,0.58,0.6098,0.6393,0.6522,0.6464,0.6396,0.6396,0.6361,0.6289,0.6262,0.6259,0.6248,0.6224,0.6221,0.6231,0.6255,0.6259,0.58,0.4763,0.3709,0.2657,0.1646,0.06,0.0,0.0,0.0,0.0,0.0,0.0,0.0,0.0,-0.0418,-0.1732,-0.3884,-0.5175,-0.6377,-0.7333,-0.7333,-0.7258,-0.7095,-0.7095,-0.7095,-0.7139,-0.7316,-0.8017,-0.8951,-0.9447,-1.0967,-1.2774,-1.3129,-1.4007,-1.4981,-1.5224,-1.5455,-1.587,-1.722,-1.7918,-1.8654,-2.0738,-2.1426,-2.1845,-2.2818,-2.3091,-2.3091,-2.3091,-2.3091,-2.3091,-2.3091,-2.3091,-2.3091,-2.3091,-2.3091,-2.3178,-2.3343,-2.3387,-2.3474,-2.3637,-2.451,-2.5083,-2.5083,-2.6088,-2.676,-2.676,-2.7735,-2.8386,-2.8386,-2.9275,-2.9869,-3.0037,-3.0758,-3.1278,-3.1426,-3.2177,-3.2321,-3.1706,-3.1536,-3.1815,-3.2593,-3.2749,-3.2855,-3.2855,-3.3031,-3.3533,0.5395,0.5491,0.5562,0.5586,0.5694,0.58,0.58,0.58,0.58,0.58,0.585,0.5898,0.5918,0.6013,0.605,0.605,0.6186,0.6252,0.6078,0.6023,0.601,0.5878,0.5864,0.5915,0.6047,0.6023,0.5654,0.4758,0.3709,0.2657,0.1646,0.059,0.0,0.0,0.0,0.0,0.0,0.0,0.0,-0.004,-0.2017,-0.3581,-0.4757,-0.5984,-0.6774,-0.7125,-0.7125,-0.7115,-0.7095,-0.7095,-0.7095,-0.7183,-0.8233,-0.8759,-0.9152,-1.116,-1.2075,-1.2545,-1.3847,-1.4401,-1.4629,-1.4968,-1.5669,-1.6544,-1.7086,-1.8698,-2.0421,-2.1114,-2.2031,-2.2906,-2.3047,-2.3091,-2.3091,-2.3091,-2.3091,-2.3091,-2.3091,-2.3091,-2.3091,-2.3091,-2.3091,-2.343,-2.4414,-2.4585,-2.4914,-2.5891,-2.6182,-2.6265,-2.6265,-2.7238,-2.7896,-2.7896,-2.8897,-2.9573,-2.9573,-2.9702,-3.0139,-3.097,-3.1143,-3.1573,-3.2393,-3.2522,-3.2925,-3.3602,-3.282,-3.2464,-3.2593,-3.3415,-3.3808,-3.3842,-3.4691,-3.518,0.5395,0.5443,0.5494,0.5494,0.5542,0.559,0.559,0.559,0.559,0.559,0.559,0.5606,0.5772,0.5857,0.5901,0.5901,0.5959,0.5979,0.5911,0.5901,0.5878,0.581,0.58,0.5861,0.5979,0.5993,0.5899,0.5619,0.4059,0.289,0.2462,0.0902,0.0,0.0,0.0,0.0,0.0,0.0,-0.0314,-0.0902,-0.2604,-0.3908,-0.4936,-0.6163,-0.6817,-0.6977,-0.6977,-0.7021,-0.7095,-0.7095,-0.7489,-0.8145,-0.8671,-0.9666,-1.0907,-1.1938,-1.2717,-1.3398,-1.4058,-1.4282,-1.4408,-1.533,-1.5937,-1.6669,-1.8586,-1.9869,-2.0927,-2.2007,-2.2677,-2.3091,-2.3091,-2.3091,-2.3091,-2.3091,-2.3091,-2.3091,-2.3091,-2.3091,-2.3309,-2.392,-2.4049,-2.4414,-2.5557,-2.5755,-2.5922,-2.6431,-2.7005,-2.7412,-2.7412,-2.8359,-2.9067,-2.9067,-2.9495,-2.9792,-2.9792,-3.0279,-3.0758,-3.118,-3.2177,-3.2961,-3.338,-3.3939,-3.4409,-3.4839,-3.3891,-3.3671,-3.424,-3.4624,-3.4839,-3.4839,-3.5279,-3.5504,0.5395,0.5557,0.5686,0.5458,0.5557,0.5686,0.5458,0.5395,0.5395,0.5395,0.5395,0.5463,0.5647,0.5722,0.5749,0.5749,0.5779,0.5789,0.5752,0.5749,0.5732,0.5694,0.5688,0.5766,0.5919,0.5936,0.5938,0.589,0.4178,0.3007,0.2735,0.0979,0.0,0.0,0.0,0.0,0.0,0.0,-0.0667,-0.1997,-0.2905,-0.4012,-0.53,-0.6168,-0.6671,-0.6817,-0.6852,-0.6947,-0.7045,-0.7082,-0.7797,-0.8934,-0.9235,-1.0567,-1.2328,-1.2632,-1.3336,-1.4088,-1.4088,-1.4292,-1.4692,-1.565,-1.6392,-1.7293,-1.9683,-2.0704,-2.1274,-2.2592,-2.3013,-2.3091,-2.3091,-2.3091,-2.3091,-2.3091,-2.3091,-2.3178,-2.3464,-2.3507,-2.3887,-2.4999,-2.521,-2.5588,-2.6719,-2.6924,-2.7005,-2.7302,-2.8028,-2.8518,-2.8518,-2.9275,-2.9792,-2.9792,-2.9792,-2.9792,-2.9792,-3.0658,-3.1278,-3.1536,-3.3101,-3.4095,-3.4361,-3.51,-3.5504,-3.5504,-3.4758,-3.4758,-3.5504,-3.5504,-3.5504,-3.5504,-3.5504,-3.5504,0.5395,0.6009,0.6429,0.5591,0.6009,0.6429,0.5591,0.5395,0.5395,0.5395,0.5395,0.5399,0.5416,0.5539,0.5599,0.5599,0.5715,0.5752,0.562,0.5599,0.5549,0.5436,0.5419,0.5532,0.5786,0.5813,0.5525,0.4825,0.3748,0.2696,0.1723,0.0628,0.0,0.0,0.0,0.0,0.0,0.0,-0.1019,-0.3007,-0.3088,-0.4224,-0.6232,-0.6278,-0.6402,-0.6552,-0.6803,-0.6889,-0.6906,-0.7041,-0.7797,-0.9021,-1.0096,-1.1252,-1.2456,-1.3597,-1.4039,-1.4088,-1.4088,-1.4776,-1.5621,-1.5718,-1.7155,-1.8945,-1.9471,-2.0683,-2.1919,-2.2389,-2.2789,-2.3091,-2.3091,-2.3091,-2.3091,-2.3091,-2.3091,-2.3387,-2.4457,-2.4702,-2.5041,-2.6182,-2.6389,-2.676,-2.7844,-2.8004,-2.8386,-2.9456,-2.9663,-2.9702,-2.9702,-2.9753,-2.9792,-2.9792,-2.9792,-2.9792,-2.9792,-3.0658,-3.1573,-3.2464,-3.3449,-3.4428,-3.5392,-3.5472,-3.5504,-3.5504,-3.5439,-3.5439,-3.5504,-3.5504,-3.5504,-3.5504,-3.5504,-3.5504,0.5395,0.562,0.5914,0.617,0.6042,0.5947,0.617,0.5818,0.5395,0.5395,0.5395,0.5395,0.5395,0.544,0.5477,0.5477,0.5521,0.5535,0.5484,0.5477,0.5457,0.5402,0.5395,0.5511,0.5772,0.58,0.5778,0.5726,0.41,0.2929,0.2579,0.0941,0.0,0.0,0.0,0.0,0.0,-0.0667,-0.1722,-0.3124,-0.3787,-0.4882,-0.63,-0.63,-0.6327,-0.6385,-0.6549,-0.6749,-0.6889,-0.694,-0.8178,-1.0009,-1.0438,-1.1778,-1.3512,-1.3955,-1.4088,-1.4208,-1.4894,-1.5379,-1.5944,-1.7374,-1.8341,-1.9197,-2.0304,-2.1238,-2.1973,-2.2393,-2.2769,-2.3091,-2.3091,-2.3091,-2.3091,-2.3091,-2.3091,-2.3594,-2.5473,-2.5336,-2.5326,-2.7145,-2.7522,-2.7855,-2.8988,-2.9197,-2.9326,-2.9753,-2.9792,-2.9792,-2.9792,-2.9792,-2.9792,-2.9792,-2.9792,-3.0037,-3.0658,-3.1573,-3.25,-3.3449,-3.4442,-3.5133,-3.5504,-3.5504,-3.5504,-3.5504,-3.5504,-3.5504,-3.5504,-3.5504,-3.5504,-3.5504,-3.5504,-3.5504,0.5395,0.562,0.5914,0.6203,0.6042,0.5914,0.6203,0.5815,0.5395,0.5395,0.5395,0.5395,0.5395,0.5395,0.5395,0.5395,0.5395,0.5395,0.5395,0.5395,0.5395,0.5395,0.5395,0.5511,0.5772,0.58,0.5628,0.5256,0.3904,0.2812,0.2111,0.0745,0.0,0.0,0.0,0.0,0.0,-0.0706,-0.1761,-0.3124,-0.3826,-0.4921,-0.63,-0.63,-0.63,-0.6306,-0.6402,-0.6542,-0.6825,-0.7303,-0.8721,-1.059,-1.1005,-1.2382,-1.4088,-1.4088,-1.4088,-1.425,-1.5338,-1.5944,-1.656,-1.839,-1.9244,-1.9734,-2.071,-2.1318,-2.1758,-2.2178,-2.2607,-2.2916,-2.3062,-2.3091,-2.3222,-2.3594,-2.3681,-2.4296,-2.6543,-2.6171,-2.6036,-2.8227,-2.8688,-2.8897,-2.9663,-2.9792,-2.9792,-2.9792,-2.9792,-2.9792,-2.9792,-2.9792,-2.9934,-3.0241,-3.0279,-3.0671,-3.1609,-3.2522,-3.3345,-3.3959,-3.4953,-3.5504,-3.5504,-3.5504,-3.5504,-3.5504,-3.5504,-3.5504,-3.5504,-3.5504,-3.5504,-3.5504,-3.5504,-3.5504,0.0,0.0,0.0,0.5657,0.6042,0.6461,0.562,0.5428,0.5428,0.5395,0.5428,0.5428,0.5395,0.5395,0.5395,0.5395,0.5395,0.5395,0.5395,0.5395,0.5395,0.5395,0.5395,0.5511,0.5766,0.5764,0.5032,0.3263,0.3083,0.2189,0.0157,0.0,0.0,0.0,0.0,0.0,0.0,-0.0079,-0.1096,-0.3085,-0.3163,-0.4295,-0.63,-0.63,-0.63,-0.63,-0.63,-0.6378,-0.6649,-0.8068,-0.9386,-1.0585,-1.1787,-1.3021,-1.4088,-1.4088,-1.413,-1.4292,-1.5379,-1.6437,-1.7545,-1.8678,-1.9756,-2.0605,-2.0605,-2.0879,-2.1278,-2.1748,-2.2168,-2.2588,-2.3008,-2.3125,-2.343,-2.4585,-2.483,-2.5452,-2.7631,-2.7279,-2.718,-2.9378,-2.9792,-2.9792,-2.9792,-2.9792,-2.9792,-2.9792,-2.983,-2.983,-2.983,-2.9869,-3.0241,-3.1143,-3.1254,-3.1609,-3.2558,-3.3484,-3.4027,-3.4027,-3.4953,-3.5504,-3.5504,-3.5504,-3.5504,-3.5504,-3.5504,-3.5504,-3.5537,-3.5504,-3.5504,-3.5537,-3.5569,-3.5569,0.5395,0.0,0.0,0.0,0.0,0.0,0.6268,0.633,0.6174,0.5524,0.5914,0.6137,0.5524,0.5395,0.5395,0.5395,0.5395,0.5395,0.5395,0.5395,0.5395,0.5395,0.5395,0.547,0.563,0.5024,0.4486,0.4133,0.2826,0.1762,0.1176,0.0432,0.0,0.0,0.0,0.0,0.0,-0.1488,-0.2539,-0.3124,-0.4686,-0.5709,-0.63,-0.63,-0.63,-0.63,-0.63,-0.6743,-0.7492,-0.7984,-0.9495,-1.1538,-1.1856,-1.2859,-1.4088,-1.4088,-1.4573,-1.5421,-1.6478,-1.7577,-1.8709,-1.9805,-2.0362,-2.0605,-2.0605,-2.0879,-2.122,-2.1346,-2.1728,-2.2357,-2.3585,-2.4092,-2.4628,-2.5755,-2.6016,-2.6419,-2.7804,-2.7884,-2.8068,-2.9534,-2.9792,-2.9792,-2.9792,-2.9792,-2.9792,-2.9792,-3.0381,-3.0796,-3.0796,-3.1402,-3.1938,-3.2177,-3.2213,-3.2593,-3.3518,-3.3842,-3.4312,-3.5019,-3.5359,-3.5504,-3.5504,-3.5504,-3.5504,-3.5504,-3.5504,-3.575,-3.6306,-3.575,-3.5782,-3.6306,-3.6874,-3.7145,0.5504,0.5491,0.5608,0.6061,0.0,0.0,0.6042,0.6174,0.6009,0.5491,0.5818,0.6009,0.5491,0.5395,0.5395,0.5395,0.5395,0.5395,0.5395,0.5395,0.5395,0.5395,0.5395,0.5453,0.5576,0.4745,0.4097,0.3869,0.2447,0.1396,0.0941,0.0353,0.0,0.0,0.0,0.0,0.0,-0.1644,-0.2696,-0.3124,-0.4805,-0.5867,-0.63,-0.63,-0.63,-0.6338,-0.6756,-0.748,-0.8475,-0.8961,-1.0113,-1.1652,-1.2367,-1.315,-1.3956,-1.4566,-1.5179,-1.5902,-1.7455,-1.843,-1.9195,-2.0245,-2.0605,-2.0605,-2.0605,-2.0752,-2.0996,-2.1142,-2.1553,-2.2213,-2.3473,-2.4199,-2.4922,-2.6483,-2.7007,-2.7452,-2.8569,-2.8806,-2.9028,-2.9663,-2.9792,-2.9934,-3.0317,-3.0381,-3.0533,-3.0921,-3.1439,-3.1779,-3.1779,-3.2249,-3.2749,-3.3136,-3.3171,-3.3567,-3.4543,-3.4624,-3.4872,-3.5472,-3.5504,-3.5504,-3.5504,-3.5504,-3.5504,-3.5504,-3.5504,-3.5863,-3.6615,-3.6165,-3.6352,-3.713,-3.7905,-3.8092,0.5682,0.5613,0.5579,0.5457,0.5419,0.0,0.5399,0.5462,0.5524,0.5428,0.5495,0.5524,0.5428,0.5395,0.5395,0.5395,0.5395,0.5395,0.5395,0.5395,0.5395,0.5395,0.5395,0.5446,0.5552,0.4634,0.3706,0.292,0.1964,0.0996,0.0039,0.0,0.0,0.0,0.0,0.0,0.0,-0.1176,-0.2229,-0.3124,-0.4295,-0.5392,-0.63,-0.63,-0.63,-0.6338,-0.7365,-0.8389,-0.9372,-1.0378,-1.1023,-1.1513,-1.3087,-1.3703,-1.3947,-1.53,-1.5913,-1.6355,-1.831,-1.9076,-1.9313,-2.0284,-2.0605,-2.0605,-2.0605,-2.0605,-2.0683,-2.1164,-2.1708,-2.2351,-2.3339,-2.3998,-2.4981,-2.6976,-2.7825,-2.8485,-2.9573,-2.9895,-2.9972,-2.9972,-2.9972,-3.0203,-3.1082,-3.1278,-3.1646,-3.2464,-3.2713,-3.2749,-3.2749,-3.2855,-3.3241,-3.4061,-3.4177,-3.4543,-3.5424,-3.5504,-3.5504,-3.5504,-3.5504,-3.5504,-3.5504,-3.5504,-3.5504,-3.5504,-3.5683,-3.6117,-3.6873,-3.6873,-3.7233,-3.795,-3.869,-3.8663,0.598,0.5762,0.5725,0.5583,0.5545,0.0,0.5423,0.5943,0.6235,0.5557,0.5947,0.6235,0.5524,0.5395,0.5395,0.5395,0.5395,0.5395,0.5395,0.5395,0.5395,0.5395,0.5395,0.5405,0.5436,0.3959,0.2935,0.2736,0.1217,0.0234,0.0,0.0,0.0,0.0,0.0,0.0,0.0,-0.1878,-0.289,-0.3124,-0.5079,-0.6103,-0.63,-0.63,-0.63,-0.6338,-0.7365,-0.8389,-0.9372,-1.0378,-1.1476,-1.2599,-1.3665,-1.445,-1.5105,-1.615,-1.7269,-1.843,-1.8838,-1.9559,-2.0323,-2.0518,-2.0605,-2.0605,-2.0605,-2.0605,-2.077,-2.1591,-2.2779,-2.3979,-2.5018,-2.5687,-2.6479,-2.8184,-2.8686,-2.8935,-2.9653,-3.0381,-3.0932,-3.0932,-3.0932,-3.097,-3.118,-3.1815,-3.2393,-3.2558,-3.3241,-3.3739,-3.3739,-3.4442,-3.5001,-3.518,-3.5213,-3.5279,-3.5472,-3.5504,-3.5504,-3.5504,-3.5504,-3.5504,-3.5504,-3.5504,-3.5504,-3.5504,-3.6723,-3.7703,-3.8453,-3.8453,-3.8536,-3.8718,-3.9489,-3.9782,0.6082,0.5915,0.5881,0.5732,0.5644,0.0,0.0,0.5777,0.5914,0.5491,0.5752,0.5914,0.5495,0.5395,0.5395,0.5395,0.5395,0.5395,0.5395,0.5395,0.5395,0.5395,0.5395,0.5426,0.5501,0.3806,0.2342,0.1403,0.0499,0.0,0.0,0.0,0.0,0.0,0.0,-0.0275,-0.0784,-0.2281,-0.326,-0.3834,-0.541,-0.6146,-0.6149,-0.6265,-0.6567,-0.7099,-0.8122,-0.9102,-1.0121,-1.113,-1.1932,-1.2651,-1.3767,-1.444,-1.4941,-1.6604,-1.7693,-1.8475,-1.9187,-1.9803,-2.0273,-2.0537,-2.0458,-2.0283,-2.0537,-2.0934,-2.1413,-2.1886,-2.2875,-2.4081,-2.512,-2.5765,-2.6489,-2.7766,-2.8524,-2.8963,-2.9302,-3.0351,-3.1217,-3.1217,-3.196,-3.2593,-3.2593,-3.2996,-3.3463,-3.3973,-3.4442,-3.4758,-3.4758,-3.518,-3.5504,-3.5504,-3.5504,-3.5504,-3.5504,-3.5504,-3.5504,-3.5504,-3.5846,-3.5894,-3.5504,-3.6227,-3.6662,-3.6662,-3.7777,-3.8525,-3.8908,-3.9315,-3.9489,-3.9516,-3.9901,-4.0096,0.6146,0.6074,0.6037,0.5884,0.5759,0.5667,0.0,0.0,0.0,0.5481,0.5457,0.544,0.544,0.5416,0.5395,0.5395,0.5395,0.5395,0.5395,0.5395,0.5395,0.5395,0.5395,0.5453,0.5576,0.4049,0.22,0.0151,0.0194,0.0236,0.0,0.0,0.0,0.0,-0.0156,-0.0662,-0.1518,-0.2617,-0.3593,-0.4447,-0.5489,-0.5993,-0.5996,-0.619,-0.6834,-0.7859,-0.8846,-0.9857,-1.0901,-1.1885,-1.2409,-1.2686,-1.3926,-1.444,-1.4785,-1.7053,-1.7935,-1.8165,-1.937,-1.9795,-1.9853,-2.0243,-2.0078,-1.9873,-2.0341,-2.1242,-2.2184,-2.2269,-2.3136,-2.4253,-2.5075,-2.56,-2.619,-2.7066,-2.8091,-2.8909,-2.9137,-3.0448,-3.1585,-3.1729,-3.3101,-3.4245,-3.4027,-3.4177,-3.4576,-3.5392,-3.5504,-3.5504,-3.5504,-3.5504,-3.5504,-3.5504,-3.5504,-3.5504,-3.5504,-3.5651,-3.5701,-3.5701,-3.643,-3.6569,-3.5973,-3.7161,-3.7879,-3.8007,-3.8608,-3.8962,-3.9139,-3.9782,-4.0096,-4.0096,-4.0204,-4.0237,0.6503,0.6272,0.6235,0.6044,0.5952,0.5905,0.581,0.0,0.5752,0.5752,0.0,0.5562,0.5562,0.0,0.0,0.5395,0.5395,0.5395,0.5395,0.5395,0.5395,0.5395,0.5395,0.5453,0.5576,0.4801,0.3106,0.0227,0.089,0.102,0.0039,0.0,0.0,0.0,-0.0768,-0.1214,-0.1328,-0.3139,-0.4118,-0.4266,-0.5442,-0.5993,-0.5996,-0.619,-0.6834,-0.7859,-0.8846,-0.9857,-1.0901,-1.1885,-1.2806,-1.3637,-1.4677,-1.5311,-1.5846,-1.7774,-1.8766,-1.9141,-1.9309,-1.9355,-1.9365,-1.9414,-1.9394,-1.9434,-1.9863,-2.1292,-2.2858,-2.3209,-2.4696,-2.6198,-2.6314,-2.6352,-2.6561,-2.7168,-2.7952,-2.8834,-2.9994,-3.1632,-3.3043,-3.3571,-3.4576,-3.5052,-3.4143,-3.4725,-3.5359,-3.5472,-3.5504,-3.5504,-3.5504,-3.5504,-3.5504,-3.5504,-3.5504,-3.5504,-3.5504,-3.6117,-3.6477,-3.6477,-3.7219,-3.7648,-3.7531,-3.7706,-3.8121,-3.8772,-3.8854,-3.9262,-3.9952,-4.0045,-4.0096,-4.0121,-4.0601,-4.0803,0.6416,0.6718,0.7007,0.6332,0.6543,0.6707,0.6056,0.5864,0.58,0.58,0.0,0.0,0.0,0.0,0.0,0.0,0.5528,0.5291,0.4664,0.4586,0.4586,0.4586,0.5057,0.5011,0.4,0.3716,0.2582,0.0185,0.0411,0.0492,0.0038,0.0,-0.0231,-0.0729,-0.1101,-0.1836,-0.2989,-0.3703,-0.4401,-0.5009,-0.5607,-0.5898,-0.5905,-0.6187,-0.7176,-0.8694,-0.9107,-1.0196,-1.1694,-1.2114,-1.2842,-1.381,-1.4807,-1.5645,-1.6422,-1.7758,-1.8389,-1.8584,-1.8818,-1.887,-1.887,-1.887,-1.9082,-1.9377,-1.9782,-2.1282,-2.302,-2.3732,-2.5164,-2.6499,-2.6499,-2.685,-2.7248,-2.7493,-2.8397,-2.9409,-2.9937,-3.1352,-3.2598,-3.2857,-3.4,-3.4795,-3.4363,-3.4946,-3.5504,-3.5504,-3.5504,-3.5504,-3.5504,-3.5863,-3.6134,-3.6134,-3.6569,-3.6829,-3.6829,-3.7115,-3.7308,-3.7308,-3.7602,-3.8206,-3.9119,-3.8679,-3.8816,-3.9584,-3.961,-3.9756,-4.0096,-4.0417,-4.0552,-4.0577,-4.0803,-4.1087,0.63,0.6834,0.7215,0.649,0.6741,0.6982,0.6242,0.6006,0.5925,0.5925,0.5895,0.0,0.0,0.0,0.5659,0.5275,0.0,0.4839,0.3776,0.3628,0.3641,0.3654,0.428,0.4094,0.2472,0.2717,0.2143,0.0146,0.0255,0.022,-0.0337,-0.0374,-0.0748,-0.1644,-0.1929,-0.2709,-0.413,-0.4332,-0.4815,-0.5593,-0.5776,-0.584,-0.581,-0.6334,-0.7488,-0.9114,-0.9473,-1.0578,-1.2228,-1.2558,-1.3237,-1.4207,-1.5199,-1.6149,-1.707,-1.7759,-1.8008,-1.8057,-1.8325,-1.8432,-1.8457,-1.8701,-1.9014,-1.9409,-2.0068,-2.157,-2.3225,-2.3977,-2.5318,-2.6555,-2.6782,-2.7263,-2.7769,-2.7986,-2.9012,-2.9983,-3.015,-3.1251,-3.2271,-3.2445,-3.3437,-3.4294,-3.4474,-3.5055,-3.5504,-3.5504,-3.5504,-3.5554,-3.5782,-3.6275,-3.6661,-3.6904,-3.7456,-3.7793,-3.7793,-3.7978,-3.8206,-3.8418,-3.843,-3.8941,-4.0045,-3.9542,-3.9489,-4.007,-4.0096,-4.0154,-4.0336,-4.0726,-4.1064,-4.1402,-4.1402,-4.1621,0.63,0.6338,0.6338,0.63,0.6335,0.6331,0.6293,0.6289,0.6286,0.6286,0.6129,0.5986,0.5986,0.5901,0.0,0.0,0.4244,0.0,0.0,0.2751,0.2735,0.2728,0.2879,0.2545,0.1467,0.2396,0.2217,0.0146,0.0946,0.0727,-0.1164,-0.1273,-0.1673,-0.2617,-0.3472,-0.3948,-0.4015,-0.5029,-0.5555,-0.5593,-0.5884,-0.5909,-0.5842,-0.6826,-0.7761,-0.8695,-0.9843,-1.0964,-1.2011,-1.3187,-1.4243,-1.5234,-1.6184,-1.7139,-1.7974,-1.7974,-1.8008,-1.8008,-1.8027,-1.8037,-1.8163,-1.8998,-1.9308,-1.9524,-2.0775,-2.2247,-2.3566,-2.4043,-2.5318,-2.6692,-2.7451,-2.767,-2.792,-2.8748,-2.9642,-3.0456,-3.1032,-3.185,-3.2661,-3.3334,-3.3514,-3.3724,-3.4399,-3.5055,-3.5504,-3.5504,-3.5504,-3.575,-3.6477,-3.6584,-3.6904,-3.769,-3.7777,-3.7793,-3.7793,-3.8442,-3.9209,-3.9995,-4.002,-4.0045,-4.0096,-4.0087,-4.007,-4.0096,-4.0096,-4.036,-4.088,-4.088,-4.1512,-4.2635,-4.2635,-4.2655,0.63,0.6795,0.7138,0.6451,0.6795,0.7138,0.6451,0.63,0.63,0.63,0.6259,0.6183,0.6183,0.56,0.0,0.0,0.0,0.2962,0.0,0.1272,0.0898,0.0902,0.146,0.1699,0.1327,0.1679,0.1379,0.0104,-0.0207,-0.059,-0.1274,-0.1876,-0.2673,-0.3664,-0.3994,-0.4476,-0.519,-0.5551,-0.5728,-0.5732,-0.583,-0.614,-0.6655,-0.6997,-0.8016,-0.9509,-1.0112,-1.1339,-1.2868,-1.3467,-1.4665,-1.614,-1.6498,-1.7173,-1.8008,-1.8008,-1.8008,-1.8008,-1.8008,-1.8008,-1.8134,-1.9011,-1.9299,-1.9594,-2.1168,-2.2506,-2.3649,-2.4385,-2.5911,-2.7351,-2.7637,-2.8556,-2.9473,-2.9797,-3.0494,-3.1146,-3.1353,-3.1634,-3.1899,-3.2123,-3.2512,-3.3051,-3.3709,-3.4382,-3.4981,-3.5429,-3.5926,-3.6306,-3.6584,-3.7496,-3.823,-3.8497,-3.8995,-3.9305,-3.9305,-3.9558,-3.9808,-4.007,-4.0096,-4.0096,-4.0096,-4.0096,-4.0262,-4.0607,-4.0631,-4.092,-4.149,-4.1895,-4.2302,-4.2711,-4.305,-4.3232,0.63,0.6756,0.7099,0.6451,0.6795,0.7099,0.6451,0.63,0.63,0.63,0.63,0.63,0.63,0.5747,0.4974,0.0,0.0,0.247,0.0,0.0337,0.0,0.0,0.0493,0.0831,0.0842,0.0839,0.047,-0.0404,-0.0973,-0.1586,-0.2233,-0.2819,-0.3619,-0.4651,-0.469,-0.5069,-0.58,-0.5857,-0.5857,-0.58,-0.6176,-0.6571,-0.7049,-0.7674,-0.86,-0.9733,-1.0811,-1.1991,-1.3228,-1.4297,-1.5473,-1.6636,-1.6957,-1.7467,-1.8008,-1.8008,-1.8008,-1.8008,-1.8008,-1.8202,-1.863,-1.9464,-1.9977,-2.0494,-2.1896,-2.3106,-2.4099,-2.4646,-2.5983,-2.7351,-2.7637,-2.8748,-2.9919,-3.0238,-3.0896,-3.1511,-3.1511,-3.1511,-3.1511,-3.1511,-3.1854,-3.2422,-3.3335,-3.4106,-3.488,-3.5758,-3.6306,-3.6813,-3.7365,-3.8286,-3.9016,-3.9289,-3.9782,-4.0096,-4.0096,-4.0096,-4.0096,-4.0096,-4.0096,-4.0196,-4.0368,-4.0392,-4.0648,-4.1223,-4.1223,-4.1512,-4.2121,-4.25,-4.2807,-4.2995,-4.3339,-4.3515]},{"header":{"parameterUnit":"m.s-1","parameterCategory":1,"la1":30.6,"la2":29.2853,"lo1":-89.7004,"lo2":-87.6739,"dy":0.0162,"dx":0.0183,"nx":112,"ny":82,"refTime":"2023-10-10T18:00:00:Z","depth":0,"parameterNumber":3,"parameterNumberName":"V-component_of_WINDS"},"data":[0.0,0.0,0.0,0.0,0.0,0.0,0.0,0.0,0.0,0.0,0.0,0.0,0.0,0.0,0.0,0.0,0.0,0.0,0.0,0.0,0.0,0.0,0.0,0.0,0.0,0.0,0.0,0.0,0.0,0.0,0.0,0.0,0.0,0.0,0.0,0.0,0.0,0.0,0.0,0.0,0.0,0.0,0.0,0.0,0.0,0.0,0.0,0.0,0.0,0.0,0.0,0.0,0.0,0.0,0.0,0.0,0.0,0.0,0.0,0.0,0.0,0.0,0.0,0.0,0.0,0.0,0.0,0.0,0.0,0.0,0.0,0.0,0.0,0.0,0.0,0.0,0.0,0.0,0.0,0.0,0.0,0.0,0.0,0.0,0.0,0.0,0.0,0.0,0.0,0.0,2.3847,2.5756,2.9362,3.1606,3.1543,3.0707,2.9194,2.686,0.0,0.0,0.0,0.0,0.0,0.0,0.0,0.0,0.0,0.0,0.0,0.0,0.0,0.0,0.0,0.0,0.0,0.0,0.0,0.0,0.0,0.0,0.0,0.0,0.0,0.0,0.0,0.0,0.0,0.0,0.0,0.0,0.0,0.0,0.0,0.0,0.0,0.0,0.0,0.0,0.0,0.0,0.0,0.0,0.0,0.0,0.0,0.0,0.0,0.0,0.0,0.0,0.0,0.0,0.0,0.0,0.0,0.0,0.0,0.0,0.0,0.0,0.0,0.0,0.0,0.0,0.0,0.0,0.0,0.0,0.0,0.0,0.0,0.0,0.0,0.0,0.0,0.0,0.0,0.0,0.0,0.0,0.0,0.0,0.0,0.0,0.0,0.0,0.0,0.0,0.0,0.0,0.0,0.0,0.0,0.0,0.0,0.0,0.0,0.0,0.0,0.0,0.0,0.0,2.4772,2.8915,3.1056,3.2169,3.2171,3.0903,2.9134,2.6843,0.0,0.0,0.0,0.0,0.0,0.0,0.0,0.0,0.0,0.0,0.0,0.0,0.0,0.0,0.0,0.0,0.0,0.0,0.0,0.0,0.0,0.0,0.0,0.0,0.0,0.0,0.0,0.0,0.0,0.0,0.0,0.0,0.0,0.0,0.0,0.0,0.0,0.0,0.0,0.0,0.0,0.0,0.0,0.0,0.0,0.0,0.0,0.0,0.0,0.0,0.0,0.0,0.0,0.0,0.0,0.0,0.0,0.0,0.0,0.0,0.0,0.0,0.0,0.0,0.0,0.0,0.0,0.0,0.0,0.0,0.0,0.0,0.0,0.0,0.0,0.0,0.0,0.0,0.0,0.0,0.0,0.0,0.0,0.0,0.0,0.0,0.0,0.0,0.0,0.0,0.0,0.0,0.0,0.0,0.0,0.0,0.0,0.0,0.0,0.0,0.0,0.0,0.0,2.2808,2.4829,2.7773,2.9641,3.0537,3.0147,2.9748,2.8538,2.6252,2.51,0.0,0.0,0.0,0.0,0.0,0.0,0.0,0.0,0.0,0.0,0.0,0.0,0.0,0.0,0.0,0.0,0.0,0.0,0.0,0.0,0.0,0.0,0.0,0.0,0.0,0.0,0.0,0.0,0.0,0.0,0.0,0.0,0.0,0.0,0.0,0.0,0.0,0.0,0.0,0.0,0.0,0.0,0.0,0.0,0.0,0.0,0.0,0.0,0.0,0.0,0.0,0.0,0.0,0.0,0.0,0.0,0.0,0.0,0.0,0.0,0.0,0.0,0.0,0.0,0.0,0.0,0.0,0.0,0.0,0.0,0.0,0.0,0.0,0.0,0.0,0.0,0.0,0.0,0.0,0.0,0.0,0.0,0.0,0.0,0.0,0.0,0.0,0.0,0.0,0.0,0.0,0.0,0.0,0.0,0.0,0.0,0.0,0.0,0.0,0.0,0.0,0.0,2.3817,2.4932,2.6556,2.8239,2.9006,2.8503,2.8456,2.7655,2.5728,2.4729,0.0,0.0,0.0,0.0,0.0,0.0,0.0,0.0,0.0,0.0,0.0,0.0,0.0,0.0,0.0,0.0,0.0,0.0,0.0,0.0,0.0,0.0,0.0,0.0,0.0,0.0,0.0,0.0,0.0,0.0,0.0,0.0,0.0,0.0,0.0,0.0,0.0,0.0,0.0,0.0,0.0,0.0,0.0,0.0,0.0,0.0,0.0,0.0,0.0,0.0,0.0,0.0,0.0,0.0,0.0,0.0,0.0,0.0,0.0,0.0,0.0,0.0,0.0,0.0,0.0,0.0,0.0,0.0,0.0,0.0,0.0,0.0,0.0,0.0,0.0,0.0,0.0,0.0,0.0,0.0,0.0,0.0,0.0,0.0,0.0,0.0,0.0,0.0,0.0,0.0,0.0,0.0,0.0,0.0,0.0,0.0,0.0,0.0,0.0,0.0,0.0,0.0,2.4207,2.5642,2.7494,2.8492,2.9001,2.895,2.767,2.6489,2.5643,2.4255,0.0,0.0,0.0,0.0,0.0,0.0,0.0,0.0,0.0,0.0,0.0,0.0,0.0,0.0,0.0,0.0,0.0,0.0,0.0,0.0,0.0,0.0,0.0,0.0,0.0,0.0,0.0,0.0,0.0,0.0,0.0,0.0,0.0,0.0,0.0,0.0,0.0,0.0,0.0,0.0,0.0,0.0,0.0,0.0,0.0,0.0,0.0,0.0,0.0,0.0,0.0,0.0,0.0,0.0,0.0,0.0,0.0,0.0,0.0,0.0,0.0,0.0,0.0,0.0,0.0,0.0,0.0,0.0,0.0,0.0,0.0,0.0,0.0,0.0,0.0,0.0,0.0,0.0,0.0,0.0,0.0,0.0,0.0,0.0,0.0,0.0,0.0,0.0,0.0,0.0,0.0,0.0,0.0,0.0,0.0,0.0,0.0,0.0,0.0,0.0,0.0,0.0,2.3848,2.5059,2.7018,2.7847,2.7902,2.7075,2.6807,2.5981,2.4323,0.0,0.0,0.0,0.0,0.0,0.0,0.0,0.0,0.0,0.0,0.0,0.0,0.0,0.0,0.0,0.0,0.0,0.0,0.0,0.0,0.0,0.0,0.0,0.0,0.0,0.0,0.0,0.0,0.0,0.0,0.0,0.0,0.0,0.0,0.0,0.0,0.0,0.0,0.0,0.0,0.0,0.0,0.0,0.0,0.0,0.0,0.0,0.0,0.0,0.0,0.0,0.0,0.0,0.0,0.0,0.0,0.0,0.0,0.0,0.0,0.0,0.0,0.0,0.0,0.0,0.0,0.0,0.0,0.0,0.0,0.0,0.0,0.0,0.0,0.0,0.0,0.0,0.0,0.0,0.0,0.0,0.0,0.0,0.0,0.0,0.0,0.0,0.0,0.0,0.0,0.0,0.0,0.0,0.0,0.0,0.0,0.0,0.0,0.0,0.0,0.0,0.0,2.2964,2.372,2.4813,2.6652,2.7007,2.674,2.5807,2.5665,2.4935,2.3279,0.0,0.0,0.0,0.0,0.0,0.0,0.0,0.0,0.0,0.0,0.0,0.0,0.0,0.0,0.0,0.0,0.0,0.0,0.0,0.0,0.0,0.0,0.0,0.0,0.0,0.0,0.0,0.0,0.0,0.0,0.0,0.0,0.0,0.0,0.0,0.0,0.0,0.0,0.0,0.0,0.0,0.0,0.0,0.0,0.0,0.0,0.0,0.0,0.0,0.0,0.0,0.0,0.0,0.0,0.0,0.0,0.0,0.0,0.0,0.0,0.0,0.0,0.0,0.0,0.0,0.0,0.0,0.0,0.0,0.0,0.0,0.0,0.0,0.0,0.0,0.0,0.0,0.0,0.0,0.0,0.0,0.0,0.0,0.0,0.0,0.0,0.0,0.0,0.0,0.0,0.0,0.0,0.0,0.0,0.0,0.0,0.0,0.0,0.0,0.0,0.0,0.0,2.2999,2.3966,2.5066,2.6522,2.6048,2.5592,2.5592,2.4239,2.3195,0.0,0.0,0.0,0.0,0.0,0.0,0.0,0.0,0.0,0.0,0.0,0.0,0.0,0.0,0.0,0.0,0.0,0.0,0.0,0.0,0.0,0.0,0.0,0.0,0.0,0.0,0.0,0.0,0.0,0.0,0.0,0.0,0.0,0.0,0.0,0.0,0.0,0.0,0.0,0.0,0.0,0.0,0.0,0.0,0.0,0.0,0.0,0.0,0.0,0.0,0.0,0.0,0.0,0.0,0.0,0.0,0.0,0.0,0.0,0.0,0.0,0.0,0.0,0.0,0.0,0.0,0.0,0.0,0.0,0.0,0.0,0.0,0.0,0.0,0.0,0.0,0.0,0.0,0.0,0.0,0.0,0.0,0.0,0.0,0.0,0.0,0.0,0.0,0.0,0.0,0.0,0.0,0.0,0.0,0.0,0.0,0.0,0.0,0.0,0.0,0.0,0.0,0.0,2.2307,2.3651,2.488,2.5828,2.5744,2.5389,2.488,2.3949,2.2977,2.199,0.0,0.0,0.0,0.0,0.0,0.0,0.0,0.0,0.0,0.0,0.0,0.0,0.0,0.0,0.0,0.0,0.0,0.0,0.0,0.0,0.0,0.0,0.0,0.0,0.0,0.0,0.0,0.0,0.0,0.0,0.0,0.0,0.0,0.0,0.0,0.0,0.0,0.0,0.0,0.0,0.0,0.0,0.0,0.0,0.0,0.0,0.0,0.0,0.0,0.0,0.0,0.0,0.0,0.0,0.0,0.0,0.0,0.0,0.0,0.0,0.0,0.0,0.0,0.0,0.0,0.0,0.0,0.0,0.0,0.0,0.0,0.0,0.0,0.0,0.0,0.0,0.0,0.0,0.0,0.0,0.0,0.0,0.0,0.0,0.0,0.0,0.0,0.0,0.0,0.0,0.0,0.0,0.0,0.0,0.0,0.0,0.0,0.0,0.0,0.0,0.0,0.0,2.2018,2.3253,2.4338,2.5067,2.4898,2.4543,2.4101,2.3376,2.2574,2.166,0.0,0.0,0.0,0.0,0.0,0.0,0.0,0.0,0.0,0.0,0.0,0.0,0.0,0.0,0.0,0.0,0.0,0.0,0.0,0.0,0.0,0.0,0.0,0.0,0.0,0.0,0.0,0.0,0.0,0.0,0.0,0.0,0.0,0.0,0.0,0.0,0.0,0.0,0.0,0.0,0.0,0.0,0.0,0.0,0.0,0.0,0.0,0.0,0.0,0.0,0.0,0.0,0.0,0.0,0.0,0.0,0.0,0.0,0.0,0.0,0.0,0.0,0.0,0.0,0.0,0.0,0.0,0.0,0.0,0.0,0.0,0.0,0.0,0.0,0.0,0.0,0.0,0.0,0.0,0.0,0.0,0.0,0.0,0.0,0.0,0.0,0.0,0.0,0.0,0.0,0.0,0.0,0.0,0.0,0.0,0.0,0.0,0.0,0.0,0.0,0.0,0.0,2.1905,2.2873,2.3763,2.4423,2.3898,2.3494,2.3494,2.2767,2.2106,2.1643,0.0,0.0,0.0,0.0,0.0,0.0,0.0,0.0,0.0,0.0,0.0,0.0,0.0,0.0,0.0,0.0,0.0,0.0,0.0,0.0,0.0,0.0,0.0,0.0,0.0,0.0,0.0,0.0,0.0,0.0,0.0,0.0,0.0,0.0,0.0,0.0,0.0,0.0,0.0,0.0,0.0,0.0,0.0,0.0,0.0,0.0,0.0,0.0,0.0,0.0,0.0,0.0,0.0,0.0,0.0,0.0,0.0,0.0,0.0,0.0,2.1477,2.0416,0.0,0.0,0.0,0.0,0.0,0.0,0.0,0.0,0.0,0.0,0.0,0.0,0.0,0.0,0.0,0.0,0.0,0.0,0.0,0.0,0.0,0.0,0.0,0.0,0.0,0.0,0.0,0.0,0.0,0.0,0.0,0.0,0.0,0.0,0.0,0.0,0.0,0.0,0.0,0.0,2.1215,2.3006,2.4321,2.4474,2.4355,2.4271,2.4271,2.3054,2.2106,2.1643,2.1943,0.0,0.0,0.0,0.0,0.0,0.0,0.0,0.0,0.0,0.0,0.0,0.0,0.0,0.0,0.0,0.0,0.0,0.0,0.0,0.0,0.0,0.0,0.0,0.0,0.0,0.0,0.0,0.0,0.0,0.0,0.0,0.0,0.0,0.0,0.0,0.0,0.0,0.0,0.0,0.0,0.0,0.0,0.0,0.0,0.0,0.0,0.0,0.0,0.0,0.0,0.0,0.0,0.0,0.0,0.0,0.0,0.0,0.0,0.0,2.3196,2.2158,0.0,0.0,0.0,0.0,0.0,0.0,0.0,0.0,0.0,0.0,0.0,0.0,0.0,0.0,0.0,0.0,0.0,0.0,0.0,0.0,0.0,0.0,0.0,0.0,0.0,0.0,0.0,0.0,0.0,0.0,0.0,0.0,0.0,0.0,0.0,0.0,0.0,0.0,0.0,0.0,2.1471,2.2956,2.4118,2.4457,2.4491,2.4491,2.4491,2.346,2.2714,2.2475,2.2158,0.0,0.0,0.0,0.0,0.0,0.0,0.0,0.0,0.0,0.0,0.0,0.0,0.0,0.0,0.0,0.0,0.0,0.0,0.0,0.0,0.0,0.0,0.0,0.0,0.0,0.0,0.0,0.0,0.0,0.0,0.0,0.0,0.0,0.0,0.0,0.0,0.0,0.0,0.0,0.0,0.0,0.0,0.0,0.0,0.0,0.0,0.0,0.0,0.0,0.0,0.0,0.0,0.0,2.6953,2.7406,2.7791,2.7791,2.8382,2.9207,2.6131,2.5048,2.5343,2.3534,0.0,0.0,0.0,0.0,0.0,0.0,0.0,0.0,0.0,0.0,0.0,0.0,0.0,0.0,0.0,0.0,0.0,0.0,0.0,0.0,0.0,0.0,2.3754,2.3807,2.4571,2.5088,2.4186,0.0,0.0,0.0,0.0,0.0,0.0,0.0,0.0,0.0,0.0,0.0,2.2327,2.3219,2.4034,2.4626,2.4694,2.4694,2.4694,2.4017,2.3594,2.3594,2.2658,2.2517,0.0,0.0,0.0,0.0,0.0,0.0,0.0,0.0,0.0,0.0,0.0,0.0,0.0,0.0,0.0,0.0,0.0,0.0,0.0,0.0,0.0,0.0,0.0,0.0,0.0,0.0,0.0,0.0,0.0,0.0,0.0,0.0,2.5625,2.6454,0.0,0.0,0.0,0.0,0.0,0.0,0.0,0.0,0.0,0.0,0.0,0.0,0.0,2.8646,2.8646,2.9435,3.0112,3.0698,3.123,3.1854,3.2517,3.2517,3.2925,3.3596,3.1847,0.0,2.733,2.6091,0.0,0.0,0.0,0.0,0.0,0.0,0.0,0.0,0.0,0.0,0.0,0.0,0.0,0.0,0.0,0.0,0.0,0.0,0.0,0.0,0.0,0.0,2.6236,2.6236,2.6842,2.7364,2.7228,2.6001,2.4929,2.4837,2.4358,2.3814,0.0,0.0,0.0,0.0,0.0,0.0,2.3588,2.4627,2.5355,2.5439,2.5456,2.5456,2.5456,2.478,2.4355,2.4355,2.4208,2.4036,2.3851,2.4058,0.0,0.0,0.0,0.0,0.0,0.0,0.0,0.0,0.0,0.0,0.0,0.0,0.0,0.0,0.0,0.0,0.0,0.0,0.0,0.0,0.0,0.0,0.0,0.0,0.0,0.0,0.0,0.0,0.0,2.5744,2.6336,2.6657,2.6691,2.6691,0.0,0.0,0.0,0.0,0.0,0.0,0.0,0.0,0.0,2.9406,3.0849,3.1612,3.1612,3.2734,3.3471,3.3806,3.4042,3.4556,3.5301,3.5301,3.5707,3.6366,3.5723,3.4455,3.2574,2.9162,2.7526,2.7106,0.0,0.0,0.0,0.0,2.5929,2.6133,2.636,2.6597,2.6771,2.6771,0.0,0.0,0.0,0.0,0.0,0.0,0.0,2.5654,2.5446,2.6465,2.7622,2.7907,2.823,2.8467,2.8467,2.752,2.6457,2.5789,2.5409,2.4959,2.4099,2.3673,0.0,0.0,0.0,2.3782,2.443,2.5145,2.5761,2.6167,2.6218,2.6218,2.6218,2.5541,2.5118,2.5118,2.4728,2.4616,2.4861,2.4746,2.4913,0.0,0.0,0.0,0.0,0.0,0.0,0.0,0.0,0.0,0.0,0.0,0.0,0.0,0.0,0.0,0.0,0.0,0.0,0.0,0.0,0.0,0.0,0.0,0.0,0.0,0.0,0.0,0.0,2.664,2.7063,2.7249,2.73,2.73,0.0,0.0,0.0,0.0,0.0,0.0,3.0288,3.0723,3.12,3.1724,3.3388,3.4269,3.4269,3.5554,3.6276,3.6462,3.6462,3.6891,3.7642,3.7642,3.7922,3.8447,3.8261,3.7872,3.6998,3.2327,3.0296,2.9974,2.845,2.7841,2.7909,2.8466,2.8669,2.8753,2.9347,2.9568,2.9568,2.9568,2.945,2.9108,2.8188,0.0,0.0,0.0,0.0,2.7454,2.6977,2.7909,2.9015,2.9222,2.9433,2.9517,2.9331,2.8653,2.7786,2.666,2.6324,2.589,2.4969,2.4732,0.0,2.4135,2.429,2.4679,2.5345,2.5715,2.6099,2.664,2.6691,2.6691,2.6691,2.6201,2.5879,2.5879,2.5355,2.532,2.5862,2.5497,2.573,2.6674,0.0,0.0,0.0,0.0,0.0,0.0,0.0,0.0,0.0,0.0,0.0,0.0,0.0,0.0,0.0,0.0,0.0,0.0,0.0,0.0,0.0,0.0,0.0,0.0,0.0,0.0,0.0,0.0,0.0,2.879,2.8874,0.0,0.0,0.0,0.0,2.9939,2.9989,3.0917,3.3077,3.3216,3.3875,3.5307,3.618,3.6626,3.6626,3.7398,3.8142,3.8819,3.8819,3.9208,3.9926,3.9926,3.996,3.996,3.9242,3.892,3.8633,3.5504,3.3812,3.3034,3.1546,3.097,3.097,3.1021,3.1021,3.1021,3.1072,3.1089,3.1089,3.1089,3.0615,2.981,2.8569,2.8507,0.0,0.0,2.8455,2.8889,2.8855,2.9954,3.0883,3.019,3.0581,3.0903,3.0209,2.9448,2.8704,2.7874,2.7147,2.6505,2.6013,0.0,2.5893,2.5875,2.5878,2.6074,2.6556,2.664,2.6657,2.6691,2.6691,2.6691,2.6691,2.6657,2.664,2.664,2.6607,2.6607,2.664,2.6624,2.664,2.6691,2.6674,0.0,0.0,0.0,0.0,0.0,0.0,0.0,0.0,0.0,0.0,0.0,0.0,0.0,0.0,0.0,0.0,0.0,0.0,0.0,0.0,0.0,0.0,0.0,0.0,0.0,0.0,0.0,0.0,3.0328,3.0431,0.0,3.1075,3.1125,3.1633,3.2831,3.2933,3.3711,3.5487,3.5594,3.6045,3.7036,3.7821,3.821,3.821,3.8937,3.9453,3.9723,3.9723,3.9859,4.0096,4.0096,4.0096,4.0096,3.9825,3.9723,3.9613,3.8402,3.7197,3.5971,3.4555,3.4252,3.4547,3.4164,3.4032,3.4032,3.4032,3.4032,3.3964,3.3474,3.2814,3.2046,3.1113,3.0634,3.0376,3.0169,3.06,3.1125,3.1125,3.1867,3.256,3.229,3.2425,3.2408,3.1664,3.0956,3.0192,2.9431,2.8263,2.7094,2.6151,2.6244,2.6349,2.6049,2.6662,2.7227,2.7384,2.7858,2.818,2.818,2.7723,2.7401,2.7401,2.6962,2.6691,2.6691,2.6691,2.6691,2.6691,2.6691,2.6691,2.6691,2.6691,2.6496,0.0,0.0,0.0,0.0,0.0,0.0,0.0,0.0,0.0,0.0,0.0,0.0,0.0,0.0,0.0,0.0,0.0,0.0,0.0,0.0,0.0,0.0,0.0,0.0,0.0,3.0751,3.1681,3.2933,3.3106,3.3372,3.4121,3.4206,3.4692,3.5926,3.6011,3.6552,3.7845,3.7905,3.8142,3.8633,3.9106,3.9385,3.9385,3.9859,4.0096,4.0096,4.0096,4.0096,4.0096,4.0096,4.0096,4.0096,4.0096,4.0096,4.0112,4.0145,3.9725,3.8887,3.7474,3.7203,3.7496,3.7097,3.6943,3.6943,3.6943,3.6943,3.6801,3.5852,3.5203,3.458,3.3405,3.2699,3.2256,3.2002,3.229,3.2662,3.2662,3.322,3.3711,3.3457,3.3592,3.3575,3.2835,3.209,3.1343,3.0615,2.9024,2.755,2.6764,2.6874,2.696,2.6646,2.7512,2.8213,2.8213,2.867,2.8993,2.8993,2.8518,2.8213,2.8213,2.7757,2.7486,2.7486,2.7486,2.7486,2.7486,2.7486,2.7486,2.7486,2.7486,2.7281,2.6868,0.0,0.0,0.0,0.0,0.0,0.0,0.0,0.0,0.0,0.0,0.0,0.0,0.0,0.0,0.0,0.0,0.0,0.0,0.0,0.0,0.0,0.0,0.0,3.2482,3.3076,3.4397,3.6632,3.692,3.7225,3.7963,3.8031,3.8335,3.9088,3.9114,3.9419,4.018,4.0222,4.018,4.0172,4.0172,4.0138,4.0096,4.0096,4.0096,4.0096,4.0096,4.0096,4.0096,4.0121,4.0121,4.0121,4.0146,4.0146,4.0179,4.0726,4.1313,4.1672,4.0228,3.968,3.9682,3.968,3.968,3.968,3.968,3.968,3.9438,3.8133,3.7679,3.7292,3.5253,3.4612,3.4455,3.3744,3.3541,3.3541,3.3541,3.4066,3.4421,3.3694,3.4049,3.4353,3.3609,3.2865,3.2141,3.1376,2.9431,2.7891,2.7858,2.7841,2.7841,2.7841,2.8518,0.0,2.9027,2.9044,2.9077,2.9077,2.9044,2.9027,2.9027,2.901,2.8993,2.8993,2.8993,2.8993,2.8993,2.8993,2.8993,2.8993,2.8991,2.8753,2.8246,0.0,0.0,0.0,0.0,0.0,0.0,0.0,0.0,0.0,0.0,0.0,0.0,0.0,0.0,0.0,0.0,0.0,0.0,0.0,0.0,0.0,3.4641,3.5783,3.4639,3.6056,3.768,3.8893,3.9514,4.0152,4.094,4.1026,4.1336,4.2053,4.1665,4.1868,4.2999,4.2649,4.2174,4.1623,4.1605,4.1128,4.0113,4.0096,4.0096,4.0096,4.0096,4.0096,4.0121,4.0504,4.0679,4.0703,4.115,4.1331,4.1375,4.1958,4.2302,4.2366,4.152,4.1459,4.1776,4.1377,4.1194,4.1194,4.1194,4.1194,4.1049,4.015,3.9546,3.8997,3.7879,3.7279,3.6924,3.6721,3.6671,3.6671,3.6671,3.6823,3.6789,3.6051,3.6034,3.5814,3.4472,3.4032,3.3529,3.2242,3.1055,2.9922,2.8839,2.867,2.867,2.867,2.9313,2.9803,2.9803,3.026,3.0601,3.0601,3.0108,2.9803,2.9803,2.9314,2.8993,2.8993,2.8993,2.8993,2.8993,2.8993,2.8993,2.8993,2.909,2.9069,0.0,0.0,0.0,0.0,0.0,0.0,0.0,0.0,0.0,0.0,0.0,0.0,0.0,0.0,0.0,0.0,0.0,0.0,0.0,0.0,0.0,0.0,3.7577,3.9044,3.8909,3.9849,4.0946,4.2033,4.2537,4.3109,4.3891,4.3962,4.413,4.4568,4.4235,4.4202,4.463,4.4009,4.329,4.2543,4.2228,4.1638,4.0814,4.0814,4.0814,4.0814,4.0814,4.0814,4.0814,4.1133,4.1291,4.1291,4.1643,4.181,4.1853,4.246,4.2711,4.2692,0.0,0.0,0.0,0.0,4.2523,4.2523,4.2523,4.2523,4.2393,4.1747,4.1304,4.0828,3.9845,3.9312,3.9007,3.8696,3.861,3.861,3.861,3.861,3.8419,3.7659,3.7469,3.7141,3.5897,3.5211,3.4582,3.373,3.2522,0.0,3.0533,2.9873,2.9448,2.9448,3.0091,3.0565,3.0565,3.0937,3.119,3.119,3.0818,3.0624,3.0798,3.0408,0.0,0.0,0.0,3.0473,3.0473,3.0473,0.0,0.0,0.0,3.0197,3.0029,3.0116,0.0,0.0,2.905,2.9095,0.0,0.0,0.0,0.0,0.0,0.0,0.0,0.0,0.0,0.0,0.0,0.0,0.0,0.0,0.0,0.0,4.0562,4.2594,4.4076,4.3932,4.4114,4.5262,4.5493,4.579,4.6454,4.6524,4.6524,4.6524,4.6454,4.62,4.5672,4.4796,0.0,0.0,0.0,4.1963,4.181,4.181,4.1846,4.1934,4.1934,4.197,4.2058,4.2143,4.2165,4.2165,4.2139,4.2124,4.2166,4.2614,4.2788,4.2845,4.3303,4.3515,4.3515,4.3515,4.3515,4.3515,4.3515,0.0,0.0,4.2939,4.275,4.249,4.1283,4.0869,4.0686,4.0033,3.9838,3.9838,3.9838,3.9838,3.9642,3.886,3.8593,3.829,3.7416,3.6291,3.5376,3.5229,3.3822,3.2615,3.253,3.123,3.0207,3.0207,3.0784,3.119,3.119,3.119,3.121,3.1252,3.1271,0.0,3.1843,3.1897,3.1897,3.1897,3.2264,3.2501,3.2501,3.2501,3.2298,3.1897,3.1897,3.1696,3.1349,3.1349,3.1526,3.1844,3.0361,3.0005,0.0,0.0,0.0,0.0,0.0,0.0,0.0,0.0,0.0,0.0,0.0,0.0,0.0,0.0,0.0,4.1086,4.3484,4.5407,4.634,4.6959,4.6999,4.6206,4.6625,4.7054,4.7198,4.7194,4.7194,4.7194,4.671,4.6775,4.768,4.6494,4.5471,4.4721,4.3908,4.2949,4.181,4.181,4.2133,4.2774,4.2774,0.0,4.3757,4.4226,4.4451,4.4453,4.4231,4.4126,4.4108,4.356,4.3357,4.3357,4.3444,4.3515,4.3515,4.3515,4.3515,4.3515,4.3515,4.3515,4.3479,4.3375,4.305,4.2656,4.2379,4.1971,0.0,4.1424,4.1371,4.1371,4.1371,4.1371,4.1176,4.0438,3.9762,3.8949,3.7787,3.6831,3.5873,3.4849,3.4682,3.453,3.3926,3.2252,3.0987,3.0987,3.1106,3.119,3.119,3.119,3.1312,3.1641,3.1678,3.1861,3.2333,3.2349,3.2349,3.2349,3.2451,3.2501,3.2501,3.2501,3.2451,3.2367,3.2349,3.2333,3.2248,3.2248,3.2282,3.235,3.1663,3.1591,0.0,0.0,0.0,0.0,0.0,0.0,0.0,0.0,0.0,0.0,0.0,3.4827,3.683,0.0,4.1295,4.3718,4.5461,4.6764,4.759,4.8048,4.8044,4.737,4.764,4.7856,4.7856,4.7856,4.7856,4.7856,4.7533,4.7617,4.8267,4.6865,4.5872,4.551,4.4325,4.3358,4.2676,4.3036,4.3433,4.385,4.4267,4.4664,4.5062,4.5376,4.551,4.5492,4.5352,4.5076,4.4654,4.3828,4.3515,4.3515,4.3515,4.3515,4.3515,4.3515,4.3515,4.3515,4.3515,4.3515,4.3515,4.3515,4.3322,4.3105,4.3105,4.2884,4.2639,4.2639,4.2639,4.2639,4.2639,4.2639,4.2478,4.1665,4.0889,4.0022,3.8976,3.7911,3.6955,3.6338,3.5894,3.5528,3.5159,3.3976,3.3043,3.3043,3.2712,3.2451,3.2451,3.2451,3.2367,3.2179,3.2144,3.2332,3.2809,3.284,3.2952,3.3151,3.3326,3.3544,3.3746,3.4174,3.4297,3.4053,3.4053,3.3955,3.3701,3.3701,3.382,3.4053,3.382,3.3489,0.0,0.0,0.0,0.0,0.0,0.0,0.0,3.3346,3.3866,3.5604,3.6762,3.8102,4.021,4.1901,4.3681,4.5792,4.6801,4.7553,4.8214,4.8177,4.8086,4.8086,4.8214,4.8306,4.8306,4.8306,4.8306,4.8306,4.8306,4.8306,4.8306,4.6764,4.5902,4.5902,4.4341,4.3515,4.3515,4.414,4.4562,4.4727,4.5516,4.5975,4.614,4.6305,4.6361,4.6342,4.603,4.5443,4.4654,4.3828,4.3515,4.3515,4.3515,4.3515,4.3515,4.3515,4.3515,4.3515,4.3515,4.3515,4.3515,4.3515,4.3515,4.3515,4.3515,4.3515,4.3515,4.3515,4.3515,4.3515,4.3515,4.3515,4.3332,4.269,4.1919,4.1134,4.0372,3.9125,3.8111,3.8006,3.7113,3.6363,3.6363,3.5828,3.5291,3.4959,3.4339,3.3932,3.3932,3.3932,3.3718,3.3164,3.3093,3.3289,3.3758,3.3788,3.3938,3.427,3.4586,3.492,3.5247,3.5936,3.6117,3.574,3.5724,3.5564,3.5164,3.5164,3.5365,3.5724,3.5903,3.5333,2.7467,2.8637,2.9923,3.0949,3.2243,3.3726,0.0,3.6953,3.8221,3.9166,4.0561,4.1937,4.2927,4.4397,4.5828,4.6801,4.7626,4.8214,4.8306,4.7681,4.7223,4.7223,4.7846,4.8306,4.8306,4.8306,4.8306,4.8306,4.8306,4.8306,4.8306,4.6764,4.5902,4.5902,4.4341,4.3515,4.3515,4.3589,4.3993,4.4727,4.5516,4.6269,4.6984,4.7719,4.8031,4.7957,4.6526,4.5443,4.4654,4.3828,4.3515,4.3515,4.3515,4.3515,4.3515,4.3515,4.3515,4.3515,4.3515,4.3515,4.3515,4.3515,4.3515,4.3515,4.3515,4.3515,4.3515,4.3515,4.3515,4.3515,4.3515,4.3515,4.3478,4.3404,4.2745,4.202,4.1434,4.0094,3.8851,3.8428,3.799,3.7698,3.7698,3.7417,3.6685,3.5134,3.4817,3.4782,3.4782,3.4782,3.4884,3.5213,3.5245,3.5437,3.5904,3.5952,3.5966,3.6028,3.6072,3.6113,3.6156,3.6248,3.6288,3.6208,3.6227,3.6212,3.6131,3.6131,3.6164,3.6245,3.6956,3.6835,2.8282,2.9329,3.0742,3.2931,3.4724,3.6486,3.8615,4.0341,4.1846,4.313,4.392,4.4782,4.6067,4.6471,4.6856,4.7663,4.8067,4.8306,4.8306,4.7813,4.7271,4.6756,4.6754,4.6814,4.6912,4.6911,4.6911,4.6911,4.6911,4.6911,4.6911,4.5828,4.5292,4.5493,4.4186,4.3597,4.3788,4.4057,4.4378,4.4709,4.5975,4.6893,4.7473,4.8269,4.8779,4.8922,4.7796,4.6825,4.5988,4.5182,4.4565,4.4125,4.3865,4.3788,4.3756,4.3563,4.3515,4.3515,4.3515,4.3515,4.3515,4.3515,4.3515,4.3515,4.3515,4.3515,4.3515,4.3515,4.3515,4.3515,4.3515,4.3515,4.3515,4.3515,4.2892,4.2235,4.2009,4.1063,4.021,4.002,3.9852,3.9606,3.9148,3.8965,3.8486,3.7295,3.6703,3.6395,3.6395,3.6395,3.6313,3.6049,3.6009,3.6087,3.627,3.6303,3.6303,3.6303,3.6725,3.6997,3.6997,3.7441,3.7698,3.7698,3.7698,3.7698,3.7698,3.7698,3.7698,3.7698,3.8046,3.801,2.9277,3.0471,3.2252,3.5261,3.7606,3.9764,4.2097,4.4031,4.5634,4.6695,4.6916,4.7178,4.8104,4.7605,4.7254,4.7846,4.8123,4.8196,4.7975,4.7675,4.7105,4.6013,4.5387,4.5077,4.5175,4.5571,4.5941,4.618,4.6198,4.6198,4.6198,4.544,4.5106,4.5365,4.4339,4.3931,4.4161,4.4491,4.4663,4.4681,4.6291,4.7237,4.7545,4.8592,4.9218,4.9466,4.8664,4.7947,4.7291,4.6234,4.5461,4.4887,4.4369,4.418,4.415,4.3899,4.3662,4.3515,4.3515,4.3515,4.3515,4.3515,4.3515,4.3515,4.3515,4.3515,4.3515,4.3515,4.3582,4.3631,4.3513,4.3563,4.3612,4.3513,4.3039,4.2635,4.2635,4.2011,4.1425,4.1425,4.1242,4.0912,4.0322,4.023,3.9955,3.9148,3.8539,3.808,3.786,3.7841,3.7621,3.7019,3.6964,3.6964,3.6964,3.6964,3.6964,3.6964,3.7496,3.7841,3.7841,3.8395,3.8707,3.8707,3.8707,3.8707,3.8707,3.8707,3.8707,3.8707,3.8707,3.875,3.0536,3.2662,3.5463,3.7958,4.0965,4.3872,4.5956,4.8275,4.9905,4.9573,4.9447,4.9158,4.8352,4.7547,4.7005,4.7043,4.7679,4.7938,4.7156,4.7028,4.6406,4.4745,4.3849,4.3372,4.3378,4.4788,4.6055,4.6911,4.6968,4.6968,4.6968,4.6209,4.5771,4.5771,4.4987,4.4567,4.458,4.4604,4.4591,4.461,4.6232,4.7005,4.7094,4.872,4.9489,4.9466,4.8664,4.8268,4.8117,4.6474,4.5782,4.5687,4.4881,4.458,4.458,4.4567,4.411,4.3515,4.3515,4.3515,4.3515,4.3515,4.3515,4.3515,4.3515,4.3515,4.3515,4.3515,4.3742,4.3909,4.358,4.3742,4.3893,4.358,4.3478,4.346,4.346,4.2818,4.2268,4.2268,4.1627,4.1095,4.1058,4.1058,4.0799,3.9974,3.9827,3.9551,3.8762,3.867,3.8652,3.8634,3.8634,3.8634,3.8634,3.8634,3.8634,3.8634,3.8652,3.867,3.867,3.8689,3.8707,3.8707,3.8707,3.8707,3.8707,3.8707,3.8707,3.8707,3.8707,3.8844,3.3718,3.6118,3.8845,4.1922,4.4721,4.7076,4.8317,5.0033,5.103,4.9724,4.9026,4.8187,4.6746,4.5824,4.5095,4.4568,4.5649,4.6454,4.619,4.6379,4.6111,4.4967,4.4315,4.3971,4.3971,4.4047,4.4465,4.534,4.5396,4.5396,4.5396,4.5164,4.5117,4.5326,4.4859,4.4714,4.4931,4.4707,4.4593,4.4612,4.6499,4.7984,4.9087,4.9916,5.0302,5.0294,5.0007,4.9559,4.8936,4.7807,4.7023,4.6428,4.5354,4.4931,4.4908,4.467,4.4433,4.4223,4.4223,4.4223,4.4223,4.4223,4.4223,4.4223,4.4223,4.4223,4.4223,4.4223,4.4308,4.4378,4.4252,4.4121,4.3971,4.3849,4.3662,4.3515,4.3515,4.3277,4.316,4.3381,4.3019,4.2668,4.2585,4.2377,4.1861,4.0734,3.9729,3.9019,3.8726,3.8707,3.8707,3.8707,3.8855,3.888,3.8723,3.8855,3.8898,3.8704,3.8707,3.8707,3.8707,3.8707,3.8707,3.8707,3.8707,3.8788,3.8957,3.8788,3.8902,3.9288,3.9068,3.9131,3.6862,3.9635,4.2588,4.5325,4.7643,4.9414,5.005,5.0756,5.0756,4.8878,4.7371,4.5847,4.4097,4.3111,4.2496,4.2268,4.3658,4.4865,4.515,4.5687,4.5721,4.485,4.4479,4.4297,4.4297,4.3902,4.4011,4.4878,4.4954,4.4954,4.4954,4.4954,4.5063,4.5263,4.5074,4.5055,4.5282,4.5055,4.5118,4.5441,4.7016,4.8507,4.9865,5.044,5.0539,5.025,5.025,4.974,4.8875,4.8029,4.7375,4.6799,4.5697,4.5292,4.5253,4.5033,4.4954,4.4931,4.4682,4.4593,4.4593,4.4593,4.4593,4.4593,4.4593,4.4593,4.4593,4.4593,4.4701,4.4745,4.4618,4.4495,4.4354,4.4233,4.405,4.3884,4.3884,4.3884,4.3962,4.4161,4.405,4.3867,4.3792,4.3329,4.261,4.1492,4.028,3.937,3.9045,3.9008,3.9008,3.9008,3.9171,3.9171,3.8869,3.9104,3.9157,3.8855,3.8956,3.9008,3.9008,3.9008,3.9008,3.9008,3.9008,3.9114,3.9276,3.9114,3.9378,4.0064,3.984,4.0076,3.9977,4.3232,4.6537,4.8164,4.9731,5.0922,5.1142,5.0505,4.9228,4.7079,4.4643,4.2354,4.0573,3.965,3.9419,4.0189,4.1797,4.3258,4.4124,4.4998,4.5248,4.4451,4.4374,4.4374,4.4374,4.4374,4.472,4.5594,4.5671,4.5671,4.5671,4.571,4.5729,4.5729,4.5691,4.5671,4.5671,4.5614,4.6028,4.6904,4.7682,4.849,4.9356,5.0183,5.0106,4.9336,4.9336,4.8856,4.8048,4.7231,4.6904,4.6817,4.5932,4.5594,4.5594,4.5594,4.5594,4.5513,4.4865,4.4644,4.4644,4.4644,4.4644,4.4644,4.4644,4.4644,4.4644,4.4644,4.4884,4.5052,4.472,4.4884,4.503,4.4695,4.4606,4.4593,4.4593,4.4593,4.4612,4.4618,4.4631,4.4663,4.4618,4.3951,4.312,4.2327,4.1546,4.0703,3.9724,3.9599,3.9599,3.9599,3.9611,3.9486,3.9147,3.9426,3.9474,3.9152,3.9414,3.9599,3.9599,3.9599,3.9618,3.9656,3.9656,3.9705,3.9747,3.9743,4.0162,4.1002,4.0991,4.1585,4.4525,4.727,4.9733,5.0747,5.1319,5.1311,5.0139,4.8749,4.682,4.3742,4.1585,3.9546,3.7219,3.7103,3.743,3.7642,3.9623,4.1689,4.3181,4.4105,4.4778,4.5229,4.5267,4.5267,4.5267,4.5267,4.5624,4.6509,4.6567,4.6567,4.6567,4.7144,4.7451,4.7451,4.6874,4.6567,4.6567,4.5913,4.6028,4.6904,4.7096,4.7644,4.8432,4.8663,4.8644,4.8432,4.8432,4.8317,4.8048,4.7231,4.6904,4.6817,4.5932,4.5594,4.5594,4.5594,4.5594,4.5577,4.5391,4.5352,4.5352,4.5352,4.5352,4.5352,4.5352,4.5352,4.5352,4.5352,4.541,4.5448,4.5362,4.5222,4.5074,4.4988,4.4769,4.4593,4.4593,4.4593,4.467,4.4919,4.5171,4.5263,4.503,4.4794,4.4435,4.3838,4.3354,4.2226,3.9898,3.9599,3.9599,3.9599,3.9819,3.9848,3.9505,3.9775,3.9819,3.9486,3.9552,3.9599,3.9599,3.9599,3.9913,4.0547,4.0578,4.0995,4.1829,4.1582,4.1827,4.2526,4.2276,4.2459,4.7971,5.0144,5.1818,5.1885,5.1346,5.026,4.8202,4.5836,4.3239,4.0192,3.793,3.5949,3.4154,3.4481,3.5269,3.6058,3.8315,4.0708,4.2816,4.3797,4.4624,4.5498,4.5594,4.5594,4.5594,4.5594,4.5951,4.6827,4.6904,4.7038,4.7413,4.7855,4.8105,4.8105,4.7317,4.6721,4.6336,4.5845,4.5845,4.6336,4.6721,4.7135,4.7586,4.7952,4.7929,4.761,4.761,4.7434,4.711,4.6646,4.6452,4.6413,4.5917,4.5731,4.5736,4.5696,4.5696,4.5688,4.5629,4.5594,4.5594,4.5594,4.5594,4.5594,4.5594,4.5594,4.5594,4.5594,4.5594,4.5594,4.5594,4.5448,4.5322,4.5322,4.5191,4.5033,4.5033,4.5033,4.5077,4.5273,4.5476,4.5531,4.5352,4.5322,4.5084,4.4395,4.4143,4.3311,4.1377,4.1138,4.1138,4.1138,4.1294,4.1285,4.0943,4.1217,4.1275,4.0932,4.1047,4.1138,4.1138,4.1138,4.1367,4.1873,4.1873,4.2172,4.2823,4.262,4.291,4.3624,4.3425,4.3645,5.0721,5.226,5.3145,5.2154,5.0548,4.849,4.5729,4.2536,3.9419,3.6738,3.4353,3.2487,3.1679,3.2275,3.343,3.5058,3.7471,4.0034,4.2595,4.3651,4.4542,4.5525,4.564,4.564,4.564,4.564,4.6045,4.7039,4.7,4.7341,4.8221,4.8375,4.8336,4.8105,4.7325,4.6478,4.5614,4.5635,4.5651,4.5637,4.6395,4.6769,4.6788,4.7482,4.7465,4.6842,4.6842,4.6482,4.5899,4.5899,4.5899,4.5899,4.5899,4.5899,4.5885,4.5825,4.5815,4.5796,4.5685,4.564,4.5632,4.5612,4.5594,4.5594,4.5594,4.5594,4.5594,4.5594,4.5594,4.5594,4.5594,4.5594,4.5603,4.561,4.5637,4.5627,4.564,4.564,4.564,4.564,4.564,4.564,4.564,4.5635,4.5376,4.4619,4.4493,4.4237,4.355,4.3256,4.3104,4.3104,4.3104,4.297,4.2699,4.2925,4.2989,4.267,4.2944,4.3104,4.3104,4.3104,4.3143,4.3258,4.3258,4.3316,4.3431,4.3431,4.3797,4.447,4.447,4.4874,5.3376,5.4049,5.3895,5.2288,5.0096,4.7298,4.3355,4.0373,3.7507,3.4237,3.2679,3.166,3.0788,3.1872,3.3237,3.4257,3.6664,3.928,4.1835,4.2987,4.4122,4.5677,4.5852,4.5852,4.5852,4.5852,4.6517,4.8091,4.7561,4.7747,4.9105,4.9856,4.9586,4.8144,4.7372,4.6538,4.5614,4.5764,4.5811,4.5775,4.5972,4.6065,4.6085,4.6221,4.6212,4.61,4.61,4.6017,4.5899,4.5899,4.5899,4.5899,4.5899,4.5899,4.5899,4.5896,4.5886,4.5886,4.5862,4.5852,4.5814,4.5653,4.5594,4.5594,4.5594,4.5594,4.5594,4.5594,4.5594,4.5594,4.5594,4.5594,4.5618,4.5733,4.5775,4.5777,4.585,4.5852,4.5852,4.5852,4.5852,4.5852,4.5852,4.5808,4.5725,4.5642,4.5488,4.5354,4.5348,4.4025,4.3104,4.3104,4.3104,4.3069,4.3015,4.3069,4.3088,4.3015,4.3069,4.3104,4.3104,4.3104,4.3412,4.4085,4.4085,4.4451,4.5171,4.5171,4.5248,4.5364,4.5364,4.546,5.3356,5.3491,5.2626,5.0462,4.8009,4.5028,4.0796,3.7853,3.5315,3.2795,3.1621,3.0904,3.0481,3.1423,3.2545,3.3391,3.5774,3.825,4.0347,4.2243,4.3867,4.5136,4.5646,4.5899,4.5899,4.5899,4.6424,4.7728,4.7431,4.7897,4.9528,4.9565,4.8965,4.7674,4.7287,4.6678,4.5751,4.5857,4.5872,4.5845,4.5872,4.5899,4.5899,4.5899,4.5932,4.5998,4.5998,4.6042,4.6113,4.6113,4.6113,4.6113,4.6113,4.6113,4.6108,4.6033,4.5998,4.5992,4.592,4.5899,4.5881,4.5782,4.5751,4.5751,4.5751,4.5751,4.5751,4.5751,4.5751,4.5751,4.5751,4.5751,4.577,4.5847,4.5845,4.5866,4.589,4.5899,4.5899,4.5899,4.5899,4.5899,4.5899,4.5847,4.582,4.5881,4.5783,4.5735,4.5847,4.5089,4.4523,4.4399,4.4393,4.4393,4.4393,4.4393,4.4393,4.4393,4.4393,4.4393,4.4393,4.4393,4.4586,4.4979,4.4979,4.519,4.5594,4.5594,4.5594,4.5594,4.5594,4.5594,5.2472,5.2299,5.1068,4.8702,4.6047,4.2931,3.87,3.5892,3.3667,3.1814,3.0885,3.0404,3.0404,3.1115,3.191,3.2545,3.4886,3.7156,3.8665,4.1196,4.3284,4.4361,4.5202,4.5771,4.5965,4.5985,4.6355,4.7228,4.7287,4.7946,4.945,4.8701,4.7908,4.7217,4.7045,4.6621,4.5899,4.5967,4.5978,4.5936,4.5978,4.5985,4.5985,4.5985,4.6042,4.6145,4.6145,4.6201,4.6308,4.6308,4.6308,4.6308,4.6308,4.6308,4.6289,4.6177,4.6145,4.614,4.603,4.5985,4.5985,4.5985,4.5959,4.5899,4.5899,4.5899,4.5899,4.5899,4.5899,4.5899,4.5899,4.5899,4.5907,4.5932,4.5951,4.5985,4.5985,4.5985,4.5985,4.5985,4.5985,4.5985,4.5985,4.5915,4.5896,4.5971,4.5891,4.5853,4.592,4.5916,4.5841,4.5669,4.5658,4.5658,4.5658,4.5658,4.5658,4.5658,4.5658,4.5658,4.5658,4.5658,4.5658,4.5658,4.5658,4.5658,4.5658,4.5658,4.5658,4.5658,4.5658,4.5658,5.1558,5.1433,5.0375,4.8548,4.5643,4.2085,3.7788,3.5468,3.3506,3.1019,3.0462,3.0404,3.0404,3.1115,3.1718,3.1795,3.4008,3.6066,3.7085,3.9538,4.1869,4.3591,4.4569,4.5389,4.619,4.6268,4.662,4.7499,4.7557,4.7865,4.8574,4.7792,4.7271,4.7198,4.655,4.6108,4.5903,4.6145,4.6201,4.6082,4.6201,4.6268,4.6268,4.6268,4.6268,4.6289,4.6289,4.6289,4.6308,4.6308,4.6308,4.6308,4.6308,4.6308,4.6308,4.6289,4.6289,4.6289,4.6268,4.6268,4.6268,4.6268,4.6108,4.5899,4.5899,4.5899,4.5899,4.5899,4.5899,4.5899,4.5899,4.5899,4.5924,4.6047,4.6174,4.6268,4.6268,4.6268,4.6268,4.6268,4.6268,4.6268,4.6268,4.6168,4.6113,4.6247,4.6042,4.5944,4.6072,4.5978,4.589,4.5872,4.5867,4.5867,4.5867,4.5867,4.5867,4.5867,4.5867,4.5867,4.5867,4.5867,4.5867,4.5867,4.5867,4.5867,4.5867,4.5867,4.5867,4.5867,4.5867,4.5867,4.8288,4.9009,4.8606,4.6374,4.4047,4.12,3.6942,3.4661,3.2833,3.0827,3.0404,3.0404,3.0404,3.0673,3.0923,3.0923,3.2269,3.3817,3.5231,3.7267,3.946,4.1802,4.284,4.3939,4.5371,4.5527,4.5879,4.6758,4.7305,4.7478,4.7194,4.6843,4.6669,4.6669,4.6373,4.6199,4.6144,4.6247,4.6269,4.6223,4.6269,4.6308,4.6308,4.6308,4.6308,4.6308,4.6308,4.6308,4.6308,4.6308,4.6308,4.6308,4.6308,4.6308,4.6308,4.6308,4.6308,4.6308,4.6308,4.6308,4.6308,4.6308,4.6225,4.6144,4.6144,4.6144,4.6241,4.679,4.6926,4.7043,4.757,4.7317,4.6793,4.6339,4.6268,4.6308,4.6308,4.6308,4.6308,4.6308,4.6308,4.6308,4.6308,4.6198,4.6145,4.6289,4.6144,4.6075,4.6201,4.6174,4.6144,4.6144,4.5995,4.5899,4.5899,4.5899,4.5899,4.5899,4.5899,4.5899,4.5899,4.5899,4.5899,4.5899,4.5899,4.5899,4.5899,4.5899,4.5899,4.5899,4.5899,4.5899,4.4701,4.5817,4.5817,4.4008,4.1912,3.9385,3.5911,3.3776,3.2141,3.0692,3.0404,3.0404,3.0404,3.0404,3.0404,3.0404,3.1165,3.2203,3.3451,3.5333,3.7495,3.9904,4.1211,4.2714,4.4762,4.5214,4.5644,4.625,4.6875,4.6953,4.6328,4.6308,4.6308,4.6308,4.6308,4.6308,4.6308,4.6308,4.6308,4.6308,4.6308,4.6308,4.6308,4.6308,4.6308,4.6308,4.6308,4.6308,4.6308,4.6308,4.6308,4.6308,4.6308,4.6308,4.6308,4.6308,4.6308,4.6308,4.6308,4.6308,4.6308,4.6308,4.6308,4.6308,4.6308,4.6308,4.6484,4.7344,4.7793,4.8066,4.8418,4.8066,4.7363,4.6462,4.6246,4.6225,4.6198,4.6177,4.6177,4.6177,4.6177,4.6177,4.6177,4.6133,4.6112,4.6162,4.6133,4.6112,4.6161,4.6177,4.6177,4.6177,4.6013,4.5935,4.6011,4.6027,4.6027,4.6027,4.6027,4.6027,4.6027,4.6027,4.6027,4.6027,4.6027,4.6027,4.6027,4.6027,4.6027,4.6027,4.6027,4.6,4.1154,4.1865,4.1865,4.1827,3.9269,3.6315,3.4609,3.291,3.1468,3.0577,3.0404,3.0404,3.0404,3.0404,3.0404,3.0404,3.1141,3.1725,3.182,3.4008,3.6289,3.8107,3.9919,4.2038,4.4653,4.5737,4.6289,4.6308,4.6308,4.6308,4.6308,4.6308,4.6308,4.6308,4.6308,4.6308,4.6308,4.6308,4.6308,4.6308,4.6308,4.6308,4.6308,4.6308,4.6308,4.6308,4.6308,4.6308,4.6308,4.6308,4.6308,4.6308,4.6308,4.6308,4.6308,4.6308,4.6308,4.6308,4.6308,4.6308,4.6308,4.6308,4.6308,4.6308,4.6308,4.6308,4.6484,4.7344,4.8223,4.8691,4.7832,4.7617,4.7343,4.6337,4.6091,4.6072,4.5928,4.5903,4.5903,4.5903,4.5903,4.5903,4.5903,4.6005,4.6069,4.592,4.6027,4.6047,4.592,4.5903,4.5903,4.5903,4.5907,4.6005,4.6269,4.6308,4.6308,4.6308,4.6308,4.6308,4.6308,4.6308,4.6308,4.6308,4.6308,4.6308,4.6308,4.6308,4.6308,4.6308,4.6308,4.6226,3.6942,3.8327,3.9065,3.8462,3.7096,3.5423,3.3699,3.2487,3.1448,3.0577,3.0404,3.0404,3.0404,3.0404,3.0404,3.0404,3.0635,3.1216,3.2391,3.3251,3.4883,3.7945,4.0986,4.3161,4.4,4.5429,4.6308,4.6308,4.6855,4.6933,4.6328,4.6855,4.6914,4.6328,4.6308,4.6308,4.6308,4.6308,4.6308,4.6308,4.6308,4.6308,4.6308,4.6308,4.6308,4.6308,4.6308,4.6308,4.6308,4.6308,4.6308,4.6308,4.6308,4.6308,4.6308,4.6308,4.6308,4.6289,4.6199,4.6152,4.6147,4.6069,4.6033,4.6033,4.6033,4.6149,4.6581,4.7954,4.9343,5.0063,4.8604,4.8217,4.7837,4.6329,4.5951,4.5944,4.5907,4.5899,4.5899,4.5899,4.5899,4.5899,4.5899,4.5948,4.594,4.5907,4.5932,4.5959,4.5903,4.5899,4.5899,4.5899,4.5899,4.5928,4.6027,4.6033,4.6033,4.6033,4.6033,4.6033,4.6033,4.6033,4.6033,4.6033,4.6033,4.6033,4.6033,4.6033,4.6033,4.6033,4.6033,4.5998,3.3019,3.4346,3.5084,3.4865,3.3949,3.2795,3.1718,3.1083,3.0564,3.0025,3.0173,3.0404,3.0404,3.0404,3.0404,3.0404,3.0404,3.0885,3.2256,3.2987,3.4867,3.8813,4.188,4.3806,4.416,4.5469,4.6308,4.6308,4.6797,4.6875,4.6328,4.6816,4.6855,4.6328,4.6308,4.6308,4.6308,4.6308,4.6308,4.6308,4.6308,4.6308,4.6308,4.6308,4.6308,4.6308,4.6308,4.6308,0.0,4.6308,4.6308,4.6308,4.6308,4.6268,4.6224,4.6224,4.6199,4.6144,4.6047,4.6011,4.6001,4.5924,4.5899,4.5899,4.5899,4.6242,4.6923,4.8245,4.934,4.9873,4.8783,4.8258,4.7645,4.6192,4.5866,4.5855,4.5794,4.5782,4.5782,4.5782,4.5782,4.5782,4.5782,4.5834,4.585,4.5794,4.5834,4.585,4.5794,4.5782,4.5782,4.5782,4.5782,4.5782,4.5782,4.5867,4.5899,4.5899,4.5899,4.5899,4.5899,4.5899,4.5899,4.5899,4.5899,4.5899,4.5899,4.5899,4.5899,4.5899,4.5899,4.5896,0.0,3.0212,3.05,3.1314,3.0294,2.9088,2.903,2.9069,0.0,2.9107,2.9794,3.0404,3.0404,3.0404,3.0404,3.0404,3.0404,3.0712,3.166,3.3346,3.6037,4.0202,4.2426,4.3944,4.4823,4.5742,4.6308,4.6308,4.6308,4.6308,4.6308,4.6308,4.6308,4.6308,4.6308,4.6308,4.6308,4.6308,4.6308,4.6308,4.6308,4.6308,4.6308,4.6308,4.6308,4.6308,4.6308,4.6308,4.6308,4.6289,4.6289,4.6289,4.6288,4.6199,4.6082,4.6082,4.6001,4.5899,4.589,4.5885,4.5885,4.5876,4.5876,4.5876,4.5876,4.6488,4.7373,4.8244,4.8477,4.8477,4.8468,4.7826,4.6941,4.6016,4.5783,4.5754,4.5637,4.5594,4.5594,4.5594,4.5594,4.5594,4.5594,4.57,4.574,4.5629,4.5708,4.574,4.562,4.5594,4.5594,4.5594,4.5594,4.5594,4.5594,4.5776,4.5876,4.5876,4.5876,4.5876,4.5876,4.5876,4.5876,4.5876,4.5876,4.5876,4.5876,4.5876,4.5876,4.5876,4.5876,4.582,2.7327,0.0,2.9448,2.9665,2.9396,2.8934,0.0,2.8665,2.9107,2.9107,2.9794,3.0404,3.0404,3.0404,3.0404,3.0404,3.0404,3.0923,3.241,3.5293,3.7658,3.8714,4.1656,4.3699,4.3904,4.5368,4.6308,4.6308,4.6308,4.6308,4.6308,4.6308,4.6308,4.6308,4.6308,4.6308,4.6308,4.6308,4.6308,4.6308,4.6308,4.6308,4.6308,4.6308,4.6308,4.6308,4.6308,4.6308,4.6289,4.6198,4.6147,4.6144,4.6036,4.5978,4.5959,4.5959,4.5924,4.5885,4.5842,4.582,4.5821,4.5699,4.5665,4.5665,4.5665,4.631,4.7223,4.8096,4.8271,4.8194,4.8194,4.7595,4.675,4.5861,4.5651,4.5635,4.5603,4.5594,4.5594,4.5594,4.5594,4.5594,4.5594,4.5637,4.5635,4.5603,4.5637,4.5635,4.5603,4.5594,4.5594,4.5594,4.5594,4.5594,4.5594,4.5629,4.5665,4.5665,4.5665,4.5665,4.5665,4.5665,4.5665,4.5665,4.5665,4.5665,4.5665,4.5665,4.5665,4.5665,4.5665,4.5513,2.7544,2.8145,2.8549,2.8549,2.8261,2.7832,2.739,2.7953,2.8549,2.8549,2.9544,3.0404,3.0404,3.0404,3.0538,3.0923,3.1,3.1846,3.4295,3.6694,3.8628,3.9791,4.2107,4.3751,4.4163,4.5463,4.6308,4.6308,4.6308,4.6308,4.6308,4.6308,4.6308,4.6308,4.6308,4.6308,4.6308,4.6308,4.6308,4.6308,4.6308,4.6308,4.6308,4.6308,4.6308,4.6308,4.6226,4.6247,4.6289,4.6084,4.6042,4.6084,4.5944,4.5886,4.585,4.585,4.5825,4.577,4.5725,4.5708,4.5692,4.561,4.5594,4.5594,4.5594,4.594,4.6549,4.741,4.7317,4.7048,4.7451,4.6932,4.6182,4.571,4.5594,4.5594,4.5594,4.5594,4.5594,4.5594,4.5594,4.5594,4.5594,4.5457,4.5362,4.5362,4.5243,4.514,4.514,4.514,4.514,4.514,4.514,4.514,4.514,4.514,4.5273,4.5577,4.5467,4.5362,4.5362,4.5232,4.514,4.514,4.514,4.514,4.514,4.514,4.514,4.514,4.514,4.5033,2.8684,2.8703,2.8255,2.8126,2.7525,2.6948,2.6832,2.7467,2.8088,2.8088,2.9313,3.0404,3.0404,3.0519,3.0846,3.1583,3.2025,3.3308,3.6269,3.7668,3.9209,4.1499,4.2841,4.3916,4.4775,4.5734,4.6308,4.6308,4.6308,4.6308,4.6308,4.6308,4.6308,4.6308,4.6308,4.6308,4.6308,4.6308,4.6308,4.6308,4.6308,4.6308,4.6308,4.6308,4.6308,4.6289,4.6175,4.6177,4.6247,4.5998,4.5963,4.603,4.5914,4.5825,4.5782,4.5782,4.5692,4.5594,4.5594,4.5594,4.5594,4.5594,4.5568,4.5522,4.5522,4.5495,4.5601,4.634,4.6089,4.5797,4.6598,4.6262,4.5657,4.5495,4.5534,4.5592,4.5467,4.5448,4.5448,4.5448,4.5448,4.5448,4.5448,4.5211,4.5011,4.5011,4.4769,4.4593,4.4593,4.4593,4.4593,4.4593,4.4593,4.4593,4.4593,4.4593,4.483,4.5419,4.5191,4.5011,4.5011,4.4745,4.4593,4.4593,4.4593,4.4593,4.4593,4.4593,4.4593,4.4593,4.4593,4.4567,2.8857,2.9544,2.9846,2.9107,2.8819,2.8549,2.7857,2.8338,2.8915,2.8915,2.9717,3.0404,3.0404,3.1,3.1545,3.1679,3.35,3.5327,3.6519,3.8094,3.9521,4.06,4.2329,4.3778,4.4651,4.5682,4.6308,4.6308,4.6308,4.6308,4.6308,4.6308,4.6308,4.6308,4.6308,4.6308,4.6308,4.6308,4.6308,4.6308,4.6308,4.6308,4.6308,4.6308,4.6308,4.6308,4.6289,4.6222,4.6117,4.5951,4.5886,4.582,4.5696,4.5632,4.5627,4.5627,4.562,4.5594,4.5594,4.5594,4.5594,4.5594,4.541,4.518,4.518,4.4977,4.4782,4.4915,4.5275,4.5714,4.6247,4.6287,4.5943,4.4976,4.5281,4.559,4.4896,4.4745,4.4745,4.4745,4.4745,4.4745,4.4745,4.4707,4.4688,4.4688,4.4631,4.4593,4.4593,4.4593,4.4593,4.4593,4.4593,4.4593,4.4593,4.4593,4.4631,4.4745,4.4714,4.4688,4.4688,4.4637,4.4593,4.4593,4.4593,4.4593,4.4593,4.4593,4.4593,4.4593,4.4593,4.4419,2.9467,3.0096,3.0308,2.991,2.9448,2.8992,2.8626,2.8838,2.9107,2.9107,2.9794,3.0404,3.0404,3.1115,3.216,3.3519,3.55,3.7296,3.8565,3.9854,4.095,4.1797,4.3144,4.4181,4.4658,4.5594,4.6224,4.6289,4.6308,4.6308,4.6308,4.6308,4.6308,4.6308,4.6308,4.6308,4.6308,4.6308,4.6308,4.6308,4.6308,4.6308,4.6308,4.6308,4.6308,4.6289,4.6147,4.6084,4.608,4.5839,4.577,4.5783,4.564,4.5594,4.5594,4.5594,4.5594,4.5594,4.5594,4.5594,4.5568,4.54,4.5222,4.5063,4.4884,4.4707,4.4593,4.4593,4.4818,4.5117,4.534,4.5387,4.5243,4.4726,4.4881,4.5051,4.4687,4.4593,4.4593,4.4593,4.4593,4.4593,4.4593,4.4433,4.4294,4.4294,4.4106,4.4008,4.4008,4.4008,4.4008,4.4008,4.4008,4.4008,4.4008,4.4008,4.4095,4.4261,4.4294,4.4194,4.4004,4.4008,4.4008,4.4008,4.3714,4.3566,4.3566,4.3258,4.31,4.31,4.31,4.2995,2.9942,3.0404,3.0404,3.0404,2.991,2.9454,2.9665,2.9704,2.9761,2.9954,3.0371,3.0692,3.0692,3.1404,3.2891,3.5635,3.7334,3.8892,4.0573,4.1546,4.2431,4.3278,4.4049,4.4612,4.4919,4.5651,4.6145,4.6247,4.6289,4.6308,4.6308,4.6308,4.6308,4.6308,4.6308,4.6308,4.6308,4.6308,4.6308,4.6308,4.6308,4.6308,4.6308,4.6308,4.6308,4.6289,4.6045,4.5988,4.6033,4.5764,4.5677,4.574,4.5643,4.5594,4.5594,4.5594,4.5594,4.5594,4.5594,4.5594,4.5531,4.5211,4.5052,4.4919,4.4567,4.4406,4.4337,4.4337,4.4337,4.4364,4.4447,4.4592,4.4659,4.4421,4.4487,4.458,4.4374,4.4337,4.4337,4.4337,4.4337,4.4337,4.4337,4.4091,4.3881,4.3881,4.3662,4.3515,4.3515,4.3515,4.3444,4.3339,4.3303,4.3268,4.3105,4.3105,4.3212,4.3465,4.3617,4.3522,4.3123,4.3105,4.3105,4.3105,4.2694,4.248,4.248,4.2038,4.181,4.181,4.181,4.181,2.9942,3.0404,3.0404,3.0404,3.0346,3.0519,3.1333,3.1506,3.1718,3.2468,3.2083,3.1621,3.1621,3.2275,3.391,3.7276,3.8604,3.9796,4.147,4.247,4.3316,4.4124,4.437,4.4821,4.5641,4.5959,4.6091,4.6115,4.6225,4.6308,4.6308,4.6308,4.6308,4.6308,4.6308,4.6308,4.6308,4.6308,4.6308,4.6308,4.6308,4.6308,4.6308,4.6308,4.6308,4.6289,4.6147,4.6027,4.5903,4.582,4.5723,4.5612,4.5603,4.5594,4.5594,4.5594,4.5594,4.5594,4.5594,4.5594,4.5531,4.5211,4.4896,4.4567,4.4161,4.3836,4.3582,4.3582,4.3582,4.3646,4.3955,4.4587,4.4885,4.383,4.4152,4.4484,4.3729,4.3582,4.3582,4.3582,4.3582,4.3582,4.3582,4.3565,4.3531,4.3531,4.3513,4.3515,4.3515,4.3515,4.3303,4.2807,4.2769,4.2539,4.1979,4.1919,4.194,4.1943,4.2483,4.2541,4.1958,4.1919,4.1919,4.1919,4.1877,4.1874,4.1874,4.1832,4.181,4.181,4.181,4.181,2.9942,3.0404,3.0404,3.0404,3.0404,3.0635,3.1506,3.1698,3.1879,3.2525,3.2544,3.2602,3.3141,3.3064,3.4026,3.745,3.8719,3.9892,4.1558,4.2547,4.3201,4.3528,4.3601,4.3784,4.415,4.4335,4.4465,4.4547,4.4623,4.4687,4.4687,4.4687,4.4687,4.4687,4.4687,4.4687,4.4687,4.5215,4.5488,4.5508,4.6035,4.6308,4.6308,4.6308,4.6248,4.6173,4.6036,4.5918,4.5825,4.5725,4.5651,4.5594,4.5594,4.5594,4.5594,4.5594,4.5594,4.5568,4.5352,4.5292,4.5182,4.4612,4.4332,4.4165,4.3788,4.3597,4.3515,4.3515,4.3515,4.3531,4.3662,4.3898,4.3964,4.3178,4.3231,4.3283,4.2595,4.2426,4.2426,4.2426,4.2426,4.2426,4.2426,4.2426,4.2426,4.2426,4.2426,4.2426,4.2426,4.2426,4.2364,4.2162,4.2142,4.2059,4.1832,4.181,4.1643,4.1251,4.181,4.2041,4.181,4.181,4.181,4.181,4.1424,4.1246,4.1246,4.0914,4.0744,4.0744,4.0744,4.0453,2.9942,3.0349,3.0279,3.0373,3.0541,3.0938,3.1878,3.2083,3.2334,3.3256,3.3312,3.3382,3.4077,3.3864,3.4553,3.7519,3.8931,4.0181,4.1596,4.2547,4.3104,4.3104,4.3104,4.3135,4.3189,4.3316,4.3451,4.3589,4.3666,4.3691,4.3691,4.3691,4.3691,4.3691,4.3691,4.3691,4.3691,4.4297,4.459,4.4609,4.5469,4.6035,4.6308,4.6267,4.6198,4.6084,4.5931,4.5842,4.579,4.5668,4.5594,4.5594,4.5594,4.5594,4.5594,4.5594,4.5522,4.541,4.518,4.5041,4.483,4.4204,4.4001,4.394,4.3614,4.3515,4.3515,4.3515,4.3515,4.3462,4.3286,4.325,4.3142,4.2788,4.2539,4.2302,4.1895,4.181,4.181,4.181,4.181,4.181,4.181,4.181,4.181,4.181,4.181,4.181,4.181,4.181,4.1746,4.1534,4.1358,4.1263,4.1263,4.1263,4.1082,4.0679,4.1036,4.1263,4.1263,4.1263,4.1263,4.1263,4.0868,4.0655,4.0655,4.0028,3.9731,3.9731,3.948,3.9076,2.9942,3.0202,3.0068,3.0343,3.086,3.158,3.266,3.291,3.3404,3.5154,3.46,3.391,3.4191,3.4715,3.5753,3.7709,3.9419,4.0785,4.1681,4.2527,4.3085,4.3085,4.3085,4.3108,4.317,4.3292,4.3428,4.3563,4.3646,4.3672,4.3672,4.3672,4.3672,4.3672,4.3672,4.3672,4.3672,4.3672,4.3691,4.3691,4.457,4.5449,4.6289,4.615,4.6108,4.6082,4.5899,4.5796,4.5783,4.5648,4.5594,4.5594,4.5594,4.5594,4.5594,4.5594,4.539,4.5096,4.5096,4.4884,4.4527,4.4136,4.4001,4.3924,4.3597,4.3515,4.3515,4.3515,4.3497,4.3375,4.2845,4.2692,4.2674,4.2674,4.2241,4.1789,4.1771,4.1771,4.1771,4.1771,4.1771,4.1771,4.1771,4.1771,4.1771,4.1771,4.1771,4.1771,4.1771,4.1771,4.1556,4.0949,4.0417,4.0096,4.007,4.007,4.007,4.007,4.007,4.007,4.0096,4.0096,4.0113,4.007,4.007,4.007,4.0087,3.9289,3.8881,3.8881,3.8133,3.7793,2.9942,3.0349,3.0458,3.1142,3.145,3.1968,3.3481,3.3674,3.4018,3.5701,3.5785,3.5829,3.6702,3.6514,3.6826,3.8615,3.9342,3.9938,4.0758,4.1112,4.1266,4.1266,4.1266,4.1289,4.1311,4.1415,4.1544,4.1613,4.1731,4.1845,4.1933,4.1933,4.1933,4.1933,4.1933,4.1933,4.1933,4.25,4.2793,4.2793,4.3672,4.4531,4.539,4.5877,4.6045,4.594,4.5856,4.5747,4.561,4.4947,4.4682,4.4682,4.4682,4.5056,4.5594,4.5594,4.539,4.5063,4.4837,4.4495,4.4121,4.3775,4.3646,4.3629,4.3531,4.3515,4.3515,4.3515,4.3232,4.2902,4.275,4.208,4.1446,4.1446,4.1291,4.1064,4.0689,4.0594,4.0594,4.0594,4.0594,4.0594,4.0594,4.0594,4.0594,4.0594,4.0594,4.0594,4.0594,4.0594,4.0538,4.036,4.0179,3.9859,3.9315,3.9262,3.9032,3.8513,3.8486,3.8968,4.0045,4.0096,3.9833,3.9262,3.9262,3.9005,3.8486,3.8234,3.8121,3.8104,3.7892,3.7515,3.0038,3.0317,3.0478,3.1469,3.1879,3.2504,3.4184,3.4519,3.4852,3.6173,3.6375,3.6651,3.7778,3.7487,3.7437,3.8596,3.8777,3.895,3.9438,3.9515,3.9515,3.9515,3.9515,3.9526,3.9585,3.9663,3.9743,3.9835,3.9923,4.002,4.0156,4.0508,4.0684,4.0684,4.1016,4.1191,4.1191,4.168,4.1914,4.1933,4.2773,4.3457,4.4004,4.5057,4.5666,4.587,4.5415,4.4986,4.4566,4.4047,4.3816,4.3816,4.3816,4.4143,4.4643,4.4979,4.4786,4.4417,4.4543,4.4252,4.3756,4.3582,4.3515,4.3515,4.3515,4.3515,4.3463,4.3232,4.2939,4.2596,4.2121,4.1446,4.0903,4.0903,4.075,4.048,4.0154,4.0096,4.0096,4.0096,4.0096,4.0096,4.0096,4.0096,4.0096,4.0096,4.0096,4.0096,4.0096,4.0096,4.0096,4.0096,3.9808,3.9437,3.8935,3.8635,3.8274,3.7822,3.7793,3.8206,3.9146,3.9199,3.8968,3.8469,3.8469,3.8246,3.7793,3.7485,3.7338,3.7308,3.7025,3.6399,3.0154,3.0215,3.0326,3.1507,3.2337,3.3264,3.4795,3.5339,3.5724,3.6498,3.6542,3.6771,3.7805,3.7811,3.7725,3.7959,3.8007,3.8007,3.8007,3.8007,3.8007,3.8007,3.8007,3.804,3.8169,3.8181,3.8233,3.8389,3.8397,3.8456,3.8594,3.9355,3.9785,3.9785,4.0547,4.0957,4.0957,4.0957,4.0957,4.0976,4.1777,4.2207,4.2323,4.3874,4.4967,4.5585,4.4607,4.372,4.2989,4.2989,4.2989,4.2989,4.2989,4.3028,4.3181,4.3895,4.3746,4.3309,4.4158,4.3983,4.3387,4.3478,4.3515,4.3515,4.3515,4.348,4.3339,4.2845,4.2616,4.2282,4.1161,4.0856,4.0827,4.0827,4.0449,4.0096,4.0096,4.0096,4.0096,4.0096,4.0096,4.0096,4.0096,4.0096,4.0096,4.0096,4.0096,4.0096,4.0096,4.0045,3.9978,3.9978,3.9289,3.8772,3.8701,3.8076,3.7661,3.7573,3.7589,3.7589,3.7589,3.7735,3.7764,3.769,3.769,3.7677,3.7589,3.6752,3.6353,3.6353,3.5591,3.4739,3.0154,3.0361,3.0688,3.2244,3.3769,3.4971,3.5328,3.5453,3.5669,3.6263,3.7044,3.7713,3.7942,3.7959,3.7924,3.7981,3.8007,3.8007,3.8007,3.8007,3.8007,3.8007,3.8007,3.8003,3.8033,3.8033,3.8115,3.8305,3.8322,3.84,3.8594,3.8789,3.8887,3.8887,3.9062,3.916,3.916,3.916,3.916,3.918,4.0039,4.0739,4.136,4.2955,4.3688,4.3682,4.3453,4.2874,4.2085,4.2085,4.2085,4.2085,4.2085,4.2508,4.3088,4.3005,4.271,4.2435,4.2992,4.2903,4.2653,4.3277,4.3515,4.3515,4.3515,4.3214,4.2845,4.2713,4.2021,4.1223,4.0972,4.0601,4.0262,4.0262,4.0179,4.0096,4.0096,4.0096,4.0096,4.0096,4.0096,4.0096,4.0096,4.0096,4.0096,4.0096,4.0096,4.0096,4.0096,3.9542,3.9166,3.9166,3.8486,3.779,3.7158,3.6964,3.66,3.6022,3.599,3.599,3.599,3.7145,3.7515,3.6873,3.6859,3.6569,3.599,3.5029,3.457,3.4537,3.3656,3.3101,3.0288,3.0404,3.0712,3.2006,3.3295,3.425,3.425,3.425,3.4319,3.4611,3.6108,3.7507,3.7911,3.7661,3.7373,3.7373,3.7046,3.6796,3.6796,3.6796,3.6796,3.6796,3.6796,3.6796,3.6796,3.6796,3.6871,3.6996,3.704,3.7125,3.7295,3.7733,3.7988,3.7988,3.8379,3.8594,3.8594,3.8594,3.8594,3.8613,3.9062,3.9656,4.0399,4.2386,4.3001,4.2489,4.2489,4.1989,4.1181,4.1181,4.1181,4.1181,4.1181,4.1385,4.1683,4.1905,4.1654,4.1319,4.1997,4.2011,4.1864,4.2653,4.2928,4.2949,4.3087,4.292,4.2577,4.2,4.138,4.0833,4.0577,4.0311,4.0096,4.0096,4.0096,4.0096,4.0096,4.0096,4.0096,4.0096,4.0096,4.0096,4.0096,4.0096,4.0096,4.0096,3.9782,3.9516,3.9516,3.8843,3.8358,3.8358,3.7674,3.707,3.6646,3.6275,3.5926,3.5537,3.5052,3.4758,3.4758,3.5118,3.5332,3.5342,3.5342,3.4934,3.4124,3.3602,3.3345,3.331,3.282,3.2357,3.0404,3.0519,3.0808,3.1525,3.2295,3.2891,3.2891,3.2891,3.2891,3.2891,3.4584,3.6257,3.6988,3.6661,3.6276,3.6276,3.5846,3.5442,3.5288,3.5269,3.5212,3.5077,3.5058,3.5115,3.525,3.5269,3.5367,3.5581,3.5667,3.5761,3.59,3.6655,3.707,3.707,3.7773,3.8144,3.8144,3.8144,3.8144,3.8144,3.8279,3.8692,3.9438,4.1396,4.2039,4.1585,4.1585,4.1162,4.0496,4.0496,4.0496,4.0489,4.0457,4.0304,4.0167,4.0715,4.0575,4.0207,4.1016,4.1117,4.1022,4.1827,4.2034,4.2025,4.2356,4.2341,4.2022,4.1143,4.0833,4.0655,4.0229,4.0096,4.0096,4.0096,4.0096,4.0096,4.0096,4.0096,4.0096,4.0096,4.0096,4.0045,3.9927,3.9901,3.985,3.9731,3.9129,3.8718,3.8718,3.8048,3.7602,3.7602,3.6889,3.6415,3.6415,3.5831,3.5439,3.5246,3.4461,3.391,3.3774,3.3031,3.289,3.3484,3.3671,3.338,3.2593,3.2464,3.2357,3.2357,3.2177,3.1683,3.0404,3.0942,3.1545,3.1679,3.2295,3.2891,3.2891,3.2891,3.2891,3.2891,3.3179,3.3449,3.3564,3.4103,3.4533,3.4533,3.5084,3.5231,3.4468,3.4379,3.4083,3.3333,3.3256,3.3545,3.4295,3.4379,3.4718,3.5542,3.5667,3.5761,3.59,3.6069,3.6172,3.6172,3.6289,3.6348,3.6348,3.6348,3.6348,3.6348,3.6937,3.7623,3.8398,3.8601,3.9422,4.0669,4.0669,4.0612,4.0496,4.0496,4.0496,4.0481,4.0241,4.0129,4.0041,3.957,3.9341,3.9337,3.9933,4.011,4.0194,4.0985,4.0952,4.0691,4.1377,4.091,4.0296,4.0776,4.0577,4.0179,4.0121,4.0096,4.0096,4.0096,4.0096,4.0096,4.0096,4.0096,4.0096,4.0096,4.0096,3.9876,3.9166,3.9059,3.8827,3.8206,3.8007,3.795,3.795,3.7233,3.6768,3.6768,3.6086,3.5636,3.5636,3.5554,3.5133,3.4245,3.4061,3.3636,3.282,3.2664,3.2285,3.1609,3.2393,3.2749,3.2593,3.1779,3.1389,3.1352,3.0558,3.0113,3.0404,3.0673,3.0962,3.0962,3.1231,3.15,3.15,3.15,3.15,3.15,3.15,3.1795,3.2737,3.3218,3.3468,3.3468,3.3795,3.391,3.3526,3.3468,3.3333,3.2949,3.2891,3.3237,3.4129,3.4205,3.4559,3.5476,3.5629,3.5723,3.5775,3.5926,3.5996,3.5996,3.5996,3.5996,3.5996,3.5996,3.5975,3.5946,3.6665,3.7178,3.7489,3.7841,3.8661,3.9823,3.9823,4.0073,4.0496,4.0496,4.0406,4.0258,4.0148,3.988,3.9498,3.9199,3.8994,3.891,3.9154,3.9239,3.9318,3.9806,3.982,3.9752,4.0316,4.018,3.9882,4.0323,4.0286,4.0096,4.0096,4.0096,4.0096,4.0096,4.0096,4.0096,4.0096,4.0096,3.9969,3.9516,3.9437,3.9166,3.843,3.8274,3.8161,3.7835,3.7427,3.713,3.713,3.6461,3.5975,3.5975,3.5701,3.5504,3.5504,3.4986,3.4461,3.4027,3.3031,3.2249,3.1815,3.1304,3.0846,3.0419,3.1328,3.1536,3.1033,3.0633,3.0419,3.0419,2.9998,2.9792,3.0404,3.0355,3.0311,3.0373,3.0355,3.0311,3.0373,3.0404,3.0404,3.0404,3.0404,3.0788,3.2025,3.2449,3.2602,3.2602,3.2776,3.2833,3.2622,3.2602,3.2506,3.2295,3.2256,3.2699,3.3782,3.3878,3.4334,3.5432,3.5635,3.5713,3.5755,3.5905,3.5996,3.5996,3.5996,3.5996,3.5996,3.5996,3.5951,3.5862,3.6408,3.6636,3.6551,3.7108,3.7834,3.8661,3.9111,3.965,4.0208,4.0419,4.0347,4.0091,4.0002,3.9611,3.9099,3.9022,3.8869,3.8707,3.8707,3.8611,3.8524,3.8735,3.8618,3.8502,3.905,3.9249,3.9387,3.9729,3.996,4.0096,4.0096,4.0096,4.0096,4.0096,4.0096,4.0045,3.9833,3.9808,3.9558,3.8772,3.8635,3.8386,3.7632,3.7485,3.7427,3.7235,3.6692,3.6337,3.6337,3.5831,3.5504,3.5504,3.5504,3.5504,3.5504,3.4576,3.391,3.3671,3.2105,3.1106,3.0871,3.0177,2.9792,2.9792,3.0482,3.0482,2.9792,2.9792,2.9792,2.9792,2.9792,2.9792,3.0404,3.0209,3.0082,3.0349,3.0209,3.0082,3.0349,3.0404,3.0404,3.0404,3.0404,3.0423,3.0519,3.1212,3.1756,3.1756,3.241,3.2622,3.1872,3.1756,3.1468,3.0635,3.0538,3.1173,3.2814,3.2968,3.3691,3.5454,3.5663,3.5758,3.5877,3.5951,3.5996,3.5996,3.5996,3.5996,3.5996,3.5996,3.5903,3.5713,3.5746,3.5688,3.5571,3.5603,3.6077,3.6923,3.8584,3.9323,3.9419,4.0189,4.0347,4.0071,3.9754,3.9401,3.9058,3.88,3.8704,3.8707,3.8707,3.8366,3.7946,3.7948,3.732,3.6686,3.7403,3.7797,3.8156,3.8877,3.9571,4.0096,4.0096,4.0096,4.0096,4.0096,4.0096,3.9901,3.9139,3.8962,3.8745,3.8007,3.7863,3.7602,3.6783,3.6661,3.6415,3.5733,3.5587,3.5554,3.5554,3.5537,3.5504,3.5504,3.5504,3.5504,3.5504,3.4576,3.3636,3.2749,3.1742,3.0796,2.9895,2.983,2.9792,2.9792,2.9869,2.9869,2.9792,2.9792,2.9792,2.9792,2.9792,2.9792,3.0404,3.0323,3.0248,3.0157,3.0202,3.0241,3.0157,3.0286,3.0404,3.0404,3.0404,3.0404,3.0404,3.0654,3.0865,3.0865,3.1115,3.1192,3.0904,3.0865,3.075,3.0442,3.0404,3.1058,3.2737,3.2891,3.3628,3.5399,3.5644,3.572,3.5766,3.5925,3.5996,3.5996,3.5996,3.5996,3.5996,3.5951,3.5857,3.5703,3.5659,3.5585,3.55,3.55,3.5654,3.5981,3.7142,3.8277,3.9323,3.9611,3.9753,3.9775,3.9645,3.9288,3.8829,3.8735,3.8707,3.8643,3.83,3.8065,3.779,3.7154,3.6686,3.6488,3.6913,3.7443,3.8058,3.8785,3.9537,4.0096,4.0096,4.0096,4.0096,4.0096,4.0096,3.9756,3.8486,3.8553,3.8536,3.7277,3.7024,3.6798,3.6038,3.5894,3.5814,3.5537,3.5504,3.5504,3.5504,3.5504,3.5504,3.5504,3.5504,3.5246,3.4576,3.3636,3.2713,3.1742,3.0809,3.0139,2.9792,2.9792,2.9792,2.9792,2.9792,2.9792,2.9792,2.9792,2.9792,2.9792,2.9792,2.9792,3.0404,3.0323,3.0248,3.015,3.0202,3.0248,3.015,3.0267,3.0404,3.0404,3.0404,3.0404,3.0404,3.0404,3.0404,3.0404,3.0404,3.0404,3.0404,3.0404,3.0404,3.0404,3.0404,3.1058,3.2737,3.2891,3.3634,3.5433,3.5646,3.5729,3.5797,3.593,3.5996,3.5996,3.5996,3.5996,3.5996,3.597,3.5855,3.5703,3.5655,3.5579,3.55,3.55,3.55,3.5538,3.6077,3.7103,3.8462,3.893,3.9138,3.918,3.9349,3.9122,3.8707,3.8707,3.8707,3.8627,3.8082,3.779,3.7524,3.6684,3.6287,3.6157,3.6327,3.6924,3.7686,3.8413,3.9157,3.9791,4.0045,4.0096,4.002,3.9756,3.9705,3.9262,3.7732,3.7991,3.806,3.6538,3.6228,3.6086,3.5587,3.5504,3.5504,3.5504,3.5504,3.5504,3.5504,3.5504,3.5359,3.5019,3.4986,3.4591,3.3602,3.2664,3.1852,3.1254,3.0317,2.9792,2.9792,2.9792,2.9792,2.9792,2.9792,2.9792,2.9792,2.9792,2.9792,2.9792,2.9792,2.9792,0.0,0.0,0.0,3.0336,3.0202,3.0075,3.0323,3.0398,3.0398,3.0404,3.0398,3.0398,3.0404,3.0404,3.0404,3.0404,3.0404,3.0404,3.0404,3.0404,3.0404,3.0404,3.0404,3.1058,3.2699,3.2897,3.3669,3.5514,3.5687,3.5792,3.5996,3.5996,3.5996,3.5996,3.5996,3.5996,3.5996,3.5996,3.5882,3.5707,3.57,3.5621,3.55,3.55,3.55,3.55,3.55,3.5942,3.6767,3.816,3.8541,3.8331,3.8857,3.8915,3.8707,3.8707,3.8692,3.8611,3.8065,3.7578,3.7095,3.656,3.6011,3.56,3.56,3.6163,3.6948,3.7669,3.8396,3.9123,3.9851,4.0054,3.9876,3.9059,3.8881,3.8453,3.6918,3.7203,3.7324,3.5797,3.5504,3.5504,3.5504,3.5504,3.5504,3.5504,3.5472,3.5472,3.5472,3.5439,3.5019,3.4061,3.3959,3.3602,3.2629,3.1706,3.118,3.118,3.0317,2.9792,2.9792,2.9792,2.9792,2.9792,2.9792,2.9792,2.9753,2.9792,2.9792,2.9753,2.9714,2.9714,3.0404,0.0,0.0,0.0,0.0,0.0,3.0136,3.0103,3.0176,3.0361,3.0248,3.0163,3.0361,3.0404,3.0404,3.0404,3.0404,3.0404,3.0404,3.0404,3.0404,3.0404,3.0404,3.0827,3.1929,3.2643,3.351,3.4598,3.5415,3.5875,3.5918,3.5974,3.5996,3.5996,3.5996,3.5996,3.5996,3.5868,3.575,3.5703,3.5591,3.554,3.55,3.55,3.55,3.55,3.55,3.5518,3.5627,3.658,3.7387,3.8035,3.8182,3.8433,3.8707,3.8707,3.8465,3.8048,3.756,3.7058,3.6522,3.6006,3.5717,3.56,3.56,3.6163,3.6846,3.7066,3.7635,3.8241,3.8393,3.8837,3.9032,3.8274,3.8121,3.7819,3.6813,3.6752,3.6661,3.5668,3.5504,3.5504,3.5504,3.5504,3.5504,3.5504,3.4872,3.4428,3.4428,3.3822,3.329,3.3031,3.2996,3.2593,3.1669,3.1352,3.0895,3.0241,2.9934,2.9792,2.9792,2.9792,2.9792,2.9792,2.9792,2.9404,2.8557,2.9404,2.9365,2.8557,2.7787,2.7424,3.1019,3.0942,3.0822,3.0298,0.0,0.0,3.0202,3.0176,3.0209,3.0367,3.0286,3.0209,3.0367,3.0404,3.0404,3.0404,3.0404,3.0404,3.0404,3.0404,3.0404,3.0404,3.0404,3.0731,3.1621,3.2231,3.3067,3.4294,3.4993,3.5539,3.5925,3.5975,3.5996,3.5996,3.5996,3.5996,3.5996,3.5861,3.5758,3.5703,3.5595,3.5534,3.55,3.55,3.55,3.5493,3.5376,3.519,3.4964,3.5286,3.6009,3.6956,3.7506,3.7921,3.8215,3.8321,3.8167,3.7807,3.7116,3.6664,3.6291,3.5783,3.56,3.56,3.56,3.5943,3.6366,3.6711,3.733,3.7805,3.7474,3.7893,3.8194,3.7128,3.7087,3.71,3.6321,3.6134,3.6006,3.5587,3.5504,3.5359,3.4953,3.4872,3.4739,3.4341,3.3788,3.3415,3.3415,3.2961,3.2464,3.2069,3.2033,3.1646,3.0696,3.0633,3.0381,2.983,2.9792,2.9792,2.9792,2.9792,2.9792,2.9792,2.9792,2.9236,2.8096,2.8767,2.853,2.7412,2.6295,2.6058,3.2019,3.1833,3.1641,3.075,3.0538,0.0,3.0423,3.0392,3.0361,3.0398,3.0386,3.0361,3.0398,3.0404,3.0404,3.0404,3.0404,3.0404,3.0404,3.0404,3.0404,3.0404,3.0404,3.0692,3.1487,3.1714,3.2524,3.4231,3.4593,3.5123,3.5957,3.5996,3.5996,3.5996,3.5996,3.5996,3.5996,3.5918,3.5809,3.5703,3.5621,3.555,3.55,3.55,3.55,3.5493,3.5215,3.4944,3.4674,3.4345,3.4697,3.5566,3.6701,3.7268,3.7427,3.7633,3.7718,3.7614,3.6724,3.6354,3.6228,3.5761,3.56,3.56,3.56,3.56,3.5735,3.6382,3.7037,3.7382,3.6635,3.6954,3.7123,3.5798,3.5936,3.6214,3.5636,3.5392,3.5326,3.5326,3.5326,3.5052,3.4143,3.391,3.3567,3.2749,3.25,3.2464,3.2464,3.2357,3.196,3.1143,3.1044,3.0696,2.9856,2.9792,2.9792,2.9792,2.9792,2.9792,2.9792,2.9792,2.9792,2.9792,2.9546,2.8858,2.7723,2.7723,2.7238,2.6265,2.5126,2.5168,3.266,3.2679,3.2468,3.166,3.1448,0.0,3.0558,3.0222,3.0143,3.0355,3.0241,3.0143,3.0361,3.0404,3.0404,3.0404,3.0404,3.0404,3.0404,3.0404,3.0404,3.0404,3.0404,3.0462,3.0635,3.1392,3.2328,3.3365,3.4861,3.5819,3.5996,3.5996,3.5996,3.5996,3.5996,3.5996,3.5996,3.583,3.5723,3.5703,3.5577,3.5515,3.55,3.55,3.55,3.5493,3.5215,3.4944,3.4674,3.4345,3.455,3.5092,3.5026,3.5765,3.6806,3.6488,3.6513,3.6664,3.6478,3.6118,3.5739,3.5627,3.56,3.56,3.56,3.56,3.5526,3.5148,3.516,3.5136,3.4356,3.4713,3.5219,3.4805,3.4798,3.5023,3.5417,3.4872,3.4279,3.4279,3.4279,3.4245,3.4027,3.338,3.282,3.2629,3.196,3.1462,3.1462,3.0809,3.0292,3.0113,3.0075,2.9998,2.983,2.9792,2.9792,2.9792,2.9792,2.9792,2.9792,2.9792,2.9792,2.9792,2.8051,2.6584,2.5452,2.5452,2.5326,2.5083,2.3963,2.3551,3.3634,3.3545,3.3353,3.2506,3.2006,0.0,0.0,3.0612,3.0248,3.0367,3.0299,3.0248,3.0386,3.0404,3.0404,3.0404,3.0404,3.0404,3.0404,3.0404,3.0404,3.0404,3.0404,3.0577,3.1,3.1568,3.2474,3.3838,3.5211,3.5996,3.5996,3.5996,3.5996,3.5996,3.5996,3.5975,3.5948,3.5395,3.5063,3.5005,3.4896,3.4853,3.4872,3.5308,3.5432,3.5289,3.5008,3.4725,3.4442,3.4129,3.4168,3.4408,3.4398,3.4862,3.5521,3.5207,3.5198,3.5302,3.5431,3.527,3.5115,3.5481,3.5346,3.5131,3.5481,3.5362,3.5028,3.4688,3.4397,3.3995,3.3259,3.3578,3.3981,3.3608,3.3993,3.4593,3.4921,3.4457,3.3993,3.3993,3.3241,3.2593,3.2593,3.2213,3.1756,3.1267,3.0809,3.0482,3.0482,3.0113,2.9792,2.9792,2.9792,2.9792,2.9792,2.9792,2.9792,2.9792,2.9287,2.9197,2.9792,2.8752,2.8131,2.8131,2.6513,2.5378,2.4787,2.4211,2.3963,2.392,2.3387,2.3091,3.4635,3.4449,3.4237,3.3372,3.266,3.2141,0.0,0.0,0.0,3.0885,3.075,3.0654,3.0654,3.0519,3.0404,3.0404,3.0404,3.0404,3.0404,3.0404,3.0404,3.0404,3.0404,3.0731,3.1621,3.2109,3.3013,3.4589,3.5507,3.5995,3.5996,3.5996,3.5996,3.5996,3.582,3.5697,3.5651,3.4706,3.4187,3.4066,3.4171,3.4205,3.4225,3.5103,3.5361,3.5088,3.4832,3.4518,3.4183,3.3915,3.3748,3.3707,3.3933,3.4121,3.4207,3.3924,3.3908,3.4074,3.4236,3.4286,3.4387,3.4974,3.4776,3.4421,3.5143,3.4835,3.4243,3.4374,3.382,3.3077,3.2532,3.2767,3.2999,3.2615,3.3183,3.3923,3.4191,3.3742,3.3356,3.3435,3.2105,3.097,3.118,3.1044,3.0658,2.9895,2.9792,2.9792,2.9792,2.9792,2.9792,2.9792,2.9792,2.9792,2.9792,2.9585,2.9495,2.9495,2.8398,2.8187,2.9131,2.7435,2.64,2.6182,2.5252,2.4702,2.4457,2.3551,2.3091,2.3091,2.2862,2.2765,3.5304,3.5346,3.5135,3.4276,3.3975,3.3705,3.2949,0.0,3.2622,3.2622,0.0,3.1545,3.1545,0.0,0.0,3.0404,3.0404,3.0404,3.0404,3.0404,3.0404,3.0404,3.0404,3.0731,3.1621,3.3111,3.4215,3.4667,3.5458,3.5942,3.5996,3.5996,3.5996,3.5996,3.5187,3.4764,3.476,3.3761,3.3242,3.3243,3.3882,3.4205,3.4225,3.5103,3.5361,3.5088,3.4832,3.4518,3.4183,3.3915,3.3578,3.3229,3.2868,3.3116,3.3599,3.282,3.2917,3.349,3.3529,3.3525,3.3541,3.3626,3.3592,3.366,3.4404,3.3746,3.2873,3.3533,3.2772,3.171,3.164,3.1685,3.1866,3.2377,3.2014,3.1884,3.3021,3.1979,3.0949,3.1443,3.0658,3.0203,3.1082,3.052,2.9934,2.983,2.9792,2.9792,2.9792,2.9792,2.9792,2.9792,2.9792,2.9792,2.9792,2.8858,2.8307,2.8307,2.729,2.673,2.6894,2.6648,2.6016,2.4999,2.4872,2.4296,2.3299,2.3178,2.3091,2.3047,2.1987,2.1525,3.5479,3.5383,3.5228,3.5018,3.4462,3.3913,3.3698,3.3256,3.2891,3.2891,0.0,0.0,0.0,0.0,0.0,0.0,3.1154,3.0997,3.0525,3.0457,3.0457,3.0457,3.0422,3.0766,3.1721,3.2935,3.3749,3.3925,3.4255,3.4684,3.5215,3.5254,3.5234,3.5188,3.4807,3.4326,3.3735,3.2819,3.2339,3.2309,3.3063,3.3449,3.3487,3.4865,3.5273,3.487,3.4744,3.442,3.3961,3.3855,3.3564,3.3136,3.2681,3.2527,3.2492,3.1871,3.185,3.2188,3.2594,3.2767,3.2767,3.2767,3.3051,3.3309,3.2842,3.2616,3.2497,3.2441,3.1992,3.1511,3.1511,3.1161,3.0866,3.1144,3.0855,3.0654,3.1204,3.0542,2.9936,3.0173,2.9687,2.9391,2.9805,2.9847,2.9792,2.9792,2.9792,2.9792,2.9792,2.9236,2.8806,2.8806,2.8251,2.7879,2.7879,2.7464,2.7168,2.7168,2.676,2.5891,2.4563,2.5179,2.4967,2.3844,2.38,2.3594,2.3091,2.2403,2.2076,2.2031,2.1525,2.0935,3.55,3.5361,3.5266,3.5446,3.4882,3.4316,3.4518,3.4064,3.3603,3.3603,3.343,0.0,0.0,0.0,3.2717,3.2168,0.0,3.1901,3.1316,3.1235,3.1057,3.0583,3.0699,3.1099,3.1857,3.27,3.3251,3.3398,3.3378,3.3652,3.4276,3.4314,3.4289,3.4218,3.3969,3.3484,3.2748,3.2092,3.1746,3.1718,3.2756,3.3122,3.2949,3.4382,3.4669,3.4015,3.416,3.3936,3.3482,3.3588,3.339,3.2968,3.2501,3.2039,3.1603,3.131,3.119,3.1275,3.1819,3.2005,3.1968,3.1827,3.2118,3.2383,3.1424,3.1531,3.1893,3.1675,3.1546,3.1438,3.1219,3.0748,3.0238,3.0011,2.9652,2.94,2.9564,2.9205,2.893,2.9086,2.8875,2.8712,2.8863,2.9415,2.9792,2.9792,2.9792,2.9702,2.9365,2.8597,2.8004,2.7683,2.6964,2.6524,2.6524,2.6224,2.5891,2.561,2.5557,2.4808,2.3178,2.3877,2.3963,2.3135,2.3091,2.295,2.2589,2.1712,2.098,2.0305,2.0305,1.9852,3.55,3.5493,3.5493,3.55,3.5474,3.5455,3.5462,3.5442,3.5423,3.5423,3.4757,3.4167,3.4167,3.3468,0.0,0.0,3.3069,0.0,0.0,3.3108,3.2483,3.0797,3.1333,3.1891,3.1998,3.2725,3.3266,3.3398,3.3346,3.3312,3.3339,3.3335,3.3317,3.3256,3.2353,3.1866,3.1838,3.1753,3.1705,3.1718,3.3372,3.3725,3.2923,3.3551,3.3287,3.2307,3.2834,3.2888,3.2667,3.3052,3.2952,3.2484,3.2021,3.1565,3.121,3.121,3.119,3.119,3.1224,3.1241,3.1145,3.0551,3.038,3.0427,3.0513,3.0551,3.0711,3.1404,3.1546,3.1322,3.0554,3.0329,3.0072,2.9254,2.8376,2.7908,2.8435,2.7932,2.7528,2.8033,2.8122,2.8298,2.88,2.9415,2.9792,2.9792,2.9792,2.9404,2.8307,2.8136,2.7683,2.6637,2.6513,2.6524,2.6524,2.5504,2.4382,2.3266,2.3222,2.3178,2.3091,2.3144,2.3135,2.3091,2.3091,2.2545,2.1337,2.1337,2.0079,1.7824,1.7824,1.7777,3.55,3.5369,3.5281,3.5453,3.5369,3.5281,3.5453,3.55,3.55,3.55,3.5269,3.5064,3.5064,3.4866,0.0,0.0,0.0,3.3855,0.0,3.3296,3.2917,3.1784,3.1841,3.1751,3.1183,3.1381,3.1591,3.1738,3.164,3.183,3.2416,3.2407,3.2605,3.3118,3.2824,3.2624,3.2538,3.2518,3.2487,3.2506,3.3064,3.3127,3.2709,3.2917,3.2603,3.1975,3.2691,3.2699,3.2254,3.2918,3.2745,3.2022,3.1861,3.1547,3.119,3.119,3.119,3.119,3.119,3.119,3.1095,3.0497,3.0293,3.0172,2.9404,2.9799,3.0474,3.0316,3.0473,3.0644,3.0359,2.9442,2.8524,2.8214,2.7517,2.6956,2.7135,2.6958,2.6826,2.7014,2.7341,2.7733,2.8285,2.885,2.9352,2.9729,2.9157,2.8557,2.8136,2.6808,2.5786,2.542,2.4723,2.4264,2.4264,2.3887,2.3507,2.3135,2.3091,2.3091,2.3091,2.3091,2.2721,2.1933,2.1889,2.1302,2.0124,1.9314,1.8503,1.7692,1.685,1.6433,3.55,3.5376,3.5289,3.5453,3.5369,3.5289,3.5453,3.55,3.55,3.55,3.55,3.55,3.55,3.5534,3.5394,0.0,0.0,3.4776,0.0,3.4295,3.3906,3.2754,3.2301,3.1727,3.0867,3.077,3.0797,3.0837,3.0746,3.0916,3.1444,3.1436,3.1767,3.258,3.2594,3.2695,3.2891,3.3218,3.3218,3.2891,3.312,3.2845,3.2126,3.1963,3.1544,3.0988,3.1848,3.1965,3.1643,3.2396,3.2349,3.1789,3.1641,3.143,3.119,3.119,3.119,3.119,3.119,3.1055,3.0777,3.0187,2.9827,2.9473,2.8472,2.9113,3.0094,2.9699,3.0155,3.0644,3.0359,2.9254,2.8084,2.7769,2.7095,2.6499,2.6499,2.6499,2.6499,2.6499,2.6788,2.7266,2.7971,2.8052,2.8308,2.9086,2.8557,2.7804,2.7023,2.5703,2.4617,2.4253,2.3551,2.3091,2.3091,2.3091,2.3091,2.3091,2.3091,2.2916,2.2492,2.2448,2.1898,2.0666,2.0666,2.0079,1.8864,1.8095,1.7458,1.699,1.6204,1.5784]}]]